<?xml version="1.0" encoding="UTF-8" standalone="no" ?>
<gpx xmlns="http://www.topografix.com/GPX/1/1" xmlns:xsi="http://www.w3.org/2001/XMLSchema-instance" xsi:schemaLocation="http://www.topografix.com/GPX/1/1 http://www.topografix.com/GPX/1/1/gpx.xsd" version="1.1" creator="VisuGPX - https://www.visugpx.com">
  <metadata>
    <name>Randonnée Le Mesnil Esnard</name>
    <desc><![CDATA[Circuit au départ du carrefour Market de Mesnil Esnart avec retour par Bonsecours]]></desc>
  </metadata>
  <trk>
    <name><![CDATA[Randonnée Le Mesnil Esnard_1]]></name>
    <trkseg>
      <trkpt lat="49.40773" lon="1.15115">
        <ele>163</ele>
        <time>2017-11-14T13:43:55Z</time>
      </trkpt>
      <trkpt lat="49.40773" lon="1.15115">
        <ele>163</ele>
        <time>2017-11-14T13:43:55Z</time>
      </trkpt>
      <trkpt lat="49.40774" lon="1.15115">
        <ele>163</ele>
        <time>2017-11-14T13:43:55Z</time>
      </trkpt>
      <trkpt lat="49.40774" lon="1.15118">
        <ele>163</ele>
        <time>2017-11-14T13:43:55Z</time>
      </trkpt>
      <trkpt lat="49.40772" lon="1.15125">
        <ele>163</ele>
        <time>2017-11-14T13:43:55Z</time>
      </trkpt>
      <trkpt lat="49.4077" lon="1.15131">
        <ele>162</ele>
        <time>2017-11-14T13:44:11Z</time>
      </trkpt>
      <trkpt lat="49.40767" lon="1.15137">
        <ele>162</ele>
        <time>2017-11-14T13:44:11Z</time>
      </trkpt>
      <trkpt lat="49.40765" lon="1.15144">
        <ele>162</ele>
        <time>2017-11-14T13:44:11Z</time>
      </trkpt>
      <trkpt lat="49.40763" lon="1.15151">
        <ele>162</ele>
        <time>2017-11-14T13:44:11Z</time>
      </trkpt>
      <trkpt lat="49.4076" lon="1.15157">
        <ele>162</ele>
        <time>2017-11-14T13:44:27Z</time>
      </trkpt>
      <trkpt lat="49.40757" lon="1.15163">
        <ele>162</ele>
        <time>2017-11-14T13:44:27Z</time>
      </trkpt>
      <trkpt lat="49.40754" lon="1.1517">
        <ele>162</ele>
        <time>2017-11-14T13:44:27Z</time>
      </trkpt>
      <trkpt lat="49.40751" lon="1.15177">
        <ele>162</ele>
        <time>2017-11-14T13:44:27Z</time>
      </trkpt>
      <trkpt lat="49.40748" lon="1.15184">
        <ele>162</ele>
        <time>2017-11-14T13:44:43Z</time>
      </trkpt>
      <trkpt lat="49.40747" lon="1.15191">
        <ele>162</ele>
        <time>2017-11-14T13:44:43Z</time>
      </trkpt>
      <trkpt lat="49.40745" lon="1.15199">
        <ele>162</ele>
        <time>2017-11-14T13:44:43Z</time>
      </trkpt>
      <trkpt lat="49.40742" lon="1.15206">
        <ele>162</ele>
        <time>2017-11-14T13:44:43Z</time>
      </trkpt>
      <trkpt lat="49.4074" lon="1.15214">
        <ele>162</ele>
        <time>2017-11-14T13:44:59Z</time>
      </trkpt>
      <trkpt lat="49.40738" lon="1.15221">
        <ele>162</ele>
        <time>2017-11-14T13:44:59Z</time>
      </trkpt>
      <trkpt lat="49.40735" lon="1.15228">
        <ele>162</ele>
        <time>2017-11-14T13:44:59Z</time>
      </trkpt>
      <trkpt lat="49.40733" lon="1.15235">
        <ele>162</ele>
        <time>2017-11-14T13:44:59Z</time>
      </trkpt>
      <trkpt lat="49.40729" lon="1.15241">
        <ele>162</ele>
        <time>2017-11-14T13:45:15Z</time>
      </trkpt>
      <trkpt lat="49.40726" lon="1.15248">
        <ele>162</ele>
        <time>2017-11-14T13:45:15Z</time>
      </trkpt>
      <trkpt lat="49.40723" lon="1.15254">
        <ele>162</ele>
        <time>2017-11-14T13:45:15Z</time>
      </trkpt>
      <trkpt lat="49.4072" lon="1.1526">
        <ele>162</ele>
        <time>2017-11-14T13:45:15Z</time>
      </trkpt>
      <trkpt lat="49.40717" lon="1.15268">
        <ele>162</ele>
        <time>2017-11-14T13:45:31Z</time>
      </trkpt>
      <trkpt lat="49.40714" lon="1.15275">
        <ele>162</ele>
        <time>2017-11-14T13:45:31Z</time>
      </trkpt>
      <trkpt lat="49.40712" lon="1.15281">
        <ele>162</ele>
        <time>2017-11-14T13:45:31Z</time>
      </trkpt>
      <trkpt lat="49.40709" lon="1.15288">
        <ele>162</ele>
        <time>2017-11-14T13:45:31Z</time>
      </trkpt>
      <trkpt lat="49.40706" lon="1.15294">
        <ele>163</ele>
        <time>2017-11-14T13:45:47Z</time>
      </trkpt>
      <trkpt lat="49.40703" lon="1.153">
        <ele>163</ele>
        <time>2017-11-14T13:45:47Z</time>
      </trkpt>
      <trkpt lat="49.407" lon="1.15306">
        <ele>163</ele>
        <time>2017-11-14T13:45:47Z</time>
      </trkpt>
      <trkpt lat="49.40698" lon="1.15313">
        <ele>163</ele>
        <time>2017-11-14T13:45:47Z</time>
      </trkpt>
      <trkpt lat="49.40697" lon="1.15319">
        <ele>163</ele>
        <time>2017-11-14T13:46:03Z</time>
      </trkpt>
      <trkpt lat="49.40696" lon="1.15325">
        <ele>163</ele>
        <time>2017-11-14T13:46:03Z</time>
      </trkpt>
      <trkpt lat="49.40696" lon="1.15331">
        <ele>163</ele>
        <time>2017-11-14T13:46:03Z</time>
      </trkpt>
      <trkpt lat="49.40699" lon="1.15336">
        <ele>163</ele>
        <time>2017-11-14T13:46:03Z</time>
      </trkpt>
      <trkpt lat="49.40702" lon="1.15341">
        <ele>163</ele>
        <time>2017-11-14T13:46:19Z</time>
      </trkpt>
      <trkpt lat="49.40706" lon="1.15344">
        <ele>163</ele>
        <time>2017-11-14T13:46:19Z</time>
      </trkpt>
      <trkpt lat="49.4071" lon="1.15347">
        <ele>160</ele>
        <time>2017-11-14T13:46:19Z</time>
      </trkpt>
      <trkpt lat="49.40714" lon="1.1535">
        <ele>160</ele>
        <time>2017-11-14T13:46:19Z</time>
      </trkpt>
      <trkpt lat="49.40719" lon="1.15354">
        <ele>160</ele>
        <time>2017-11-14T13:46:35Z</time>
      </trkpt>
      <trkpt lat="49.40723" lon="1.15358">
        <ele>160</ele>
        <time>2017-11-14T13:46:35Z</time>
      </trkpt>
      <trkpt lat="49.40727" lon="1.15362">
        <ele>160</ele>
        <time>2017-11-14T13:46:35Z</time>
      </trkpt>
      <trkpt lat="49.40732" lon="1.15367">
        <ele>160</ele>
        <time>2017-11-14T13:46:35Z</time>
      </trkpt>
      <trkpt lat="49.40736" lon="1.15371">
        <ele>160</ele>
        <time>2017-11-14T13:46:51Z</time>
      </trkpt>
      <trkpt lat="49.4074" lon="1.15376">
        <ele>159</ele>
        <time>2017-11-14T13:46:51Z</time>
      </trkpt>
      <trkpt lat="49.40745" lon="1.15378">
        <ele>159</ele>
        <time>2017-11-14T13:46:51Z</time>
      </trkpt>
      <trkpt lat="49.40749" lon="1.15378">
        <ele>159</ele>
        <time>2017-11-14T13:46:51Z</time>
      </trkpt>
      <trkpt lat="49.40754" lon="1.15377">
        <ele>159</ele>
        <time>2017-11-14T13:47:07Z</time>
      </trkpt>
      <trkpt lat="49.40758" lon="1.15375">
        <ele>160</ele>
        <time>2017-11-14T13:47:07Z</time>
      </trkpt>
      <trkpt lat="49.40763" lon="1.15372">
        <ele>160</ele>
        <time>2017-11-14T13:47:07Z</time>
      </trkpt>
      <trkpt lat="49.40766" lon="1.15372">
        <ele>160</ele>
        <time>2017-11-14T13:47:07Z</time>
      </trkpt>
      <trkpt lat="49.4077" lon="1.15371">
        <ele>160</ele>
        <time>2017-11-14T13:47:23Z</time>
      </trkpt>
      <trkpt lat="49.40775" lon="1.15374">
        <ele>160</ele>
        <time>2017-11-14T13:47:23Z</time>
      </trkpt>
      <trkpt lat="49.4078" lon="1.15376">
        <ele>159</ele>
        <time>2017-11-14T13:47:23Z</time>
      </trkpt>
      <trkpt lat="49.40785" lon="1.1538">
        <ele>159</ele>
        <time>2017-11-14T13:47:23Z</time>
      </trkpt>
      <trkpt lat="49.4079" lon="1.15386">
        <ele>159</ele>
        <time>2017-11-14T13:47:39Z</time>
      </trkpt>
      <trkpt lat="49.40794" lon="1.15391">
        <ele>156</ele>
        <time>2017-11-14T13:47:39Z</time>
      </trkpt>
      <trkpt lat="49.40797" lon="1.15396">
        <ele>156</ele>
        <time>2017-11-14T13:47:39Z</time>
      </trkpt>
      <trkpt lat="49.40801" lon="1.15401">
        <ele>156</ele>
        <time>2017-11-14T13:47:39Z</time>
      </trkpt>
      <trkpt lat="49.40804" lon="1.15407">
        <ele>156</ele>
        <time>2017-11-14T13:47:55Z</time>
      </trkpt>
      <trkpt lat="49.40809" lon="1.15411">
        <ele>156</ele>
        <time>2017-11-14T13:47:55Z</time>
      </trkpt>
      <trkpt lat="49.40813" lon="1.15414">
        <ele>156</ele>
        <time>2017-11-14T13:47:55Z</time>
      </trkpt>
      <trkpt lat="49.40817" lon="1.15415">
        <ele>156</ele>
        <time>2017-11-14T13:47:55Z</time>
      </trkpt>
      <trkpt lat="49.40818" lon="1.15417">
        <ele>156</ele>
        <time>2017-11-14T13:48:11Z</time>
      </trkpt>
      <trkpt lat="49.4082" lon="1.15425">
        <ele>156</ele>
        <time>2017-11-14T13:48:11Z</time>
      </trkpt>
      <trkpt lat="49.40822" lon="1.15433">
        <ele>156</ele>
        <time>2017-11-14T13:48:11Z</time>
      </trkpt>
      <trkpt lat="49.40825" lon="1.1544">
        <ele>156</ele>
        <time>2017-11-14T13:48:11Z</time>
      </trkpt>
      <trkpt lat="49.40828" lon="1.15448">
        <ele>156</ele>
        <time>2017-11-14T13:48:27Z</time>
      </trkpt>
      <trkpt lat="49.40831" lon="1.15455">
        <ele>156</ele>
        <time>2017-11-14T13:48:27Z</time>
      </trkpt>
      <trkpt lat="49.40834" lon="1.15461">
        <ele>156</ele>
        <time>2017-11-14T13:48:27Z</time>
      </trkpt>
      <trkpt lat="49.40837" lon="1.15467">
        <ele>156</ele>
        <time>2017-11-14T13:48:27Z</time>
      </trkpt>
      <trkpt lat="49.40841" lon="1.15473">
        <ele>156</ele>
        <time>2017-11-14T13:48:43Z</time>
      </trkpt>
      <trkpt lat="49.40844" lon="1.15479">
        <ele>156</ele>
        <time>2017-11-14T13:48:43Z</time>
      </trkpt>
      <trkpt lat="49.40847" lon="1.15484">
        <ele>156</ele>
        <time>2017-11-14T13:48:43Z</time>
      </trkpt>
      <trkpt lat="49.4085" lon="1.1549">
        <ele>156</ele>
        <time>2017-11-14T13:48:43Z</time>
      </trkpt>
      <trkpt lat="49.40853" lon="1.15495">
        <ele>156</ele>
        <time>2017-11-14T13:48:59Z</time>
      </trkpt>
      <trkpt lat="49.40856" lon="1.15499">
        <ele>156</ele>
        <time>2017-11-14T13:48:59Z</time>
      </trkpt>
      <trkpt lat="49.40859" lon="1.15504">
        <ele>156</ele>
        <time>2017-11-14T13:48:59Z</time>
      </trkpt>
      <trkpt lat="49.4086" lon="1.15508">
        <ele>156</ele>
        <time>2017-11-14T13:48:59Z</time>
      </trkpt>
      <trkpt lat="49.40862" lon="1.1551">
        <ele>156</ele>
        <time>2017-11-14T13:49:15Z</time>
      </trkpt>
      <trkpt lat="49.40865" lon="1.15505">
        <ele>156</ele>
        <time>2017-11-14T13:49:15Z</time>
      </trkpt>
      <trkpt lat="49.40869" lon="1.15502">
        <ele>156</ele>
        <time>2017-11-14T13:49:15Z</time>
      </trkpt>
      <trkpt lat="49.40874" lon="1.15501">
        <ele>156</ele>
        <time>2017-11-14T13:49:15Z</time>
      </trkpt>
      <trkpt lat="49.40879" lon="1.155">
        <ele>150</ele>
        <time>2017-11-14T13:49:31Z</time>
      </trkpt>
      <trkpt lat="49.40884" lon="1.15501">
        <ele>150</ele>
        <time>2017-11-14T13:49:31Z</time>
      </trkpt>
      <trkpt lat="49.40889" lon="1.15502">
        <ele>150</ele>
        <time>2017-11-14T13:49:31Z</time>
      </trkpt>
      <trkpt lat="49.40895" lon="1.15503">
        <ele>150</ele>
        <time>2017-11-14T13:49:31Z</time>
      </trkpt>
      <trkpt lat="49.409" lon="1.15504">
        <ele>150</ele>
        <time>2017-11-14T13:49:47Z</time>
      </trkpt>
      <trkpt lat="49.40906" lon="1.15505">
        <ele>150</ele>
        <time>2017-11-14T13:49:47Z</time>
      </trkpt>
      <trkpt lat="49.40911" lon="1.15507">
        <ele>150</ele>
        <time>2017-11-14T13:49:47Z</time>
      </trkpt>
      <trkpt lat="49.40916" lon="1.15509">
        <ele>150</ele>
        <time>2017-11-14T13:49:47Z</time>
      </trkpt>
      <trkpt lat="49.40921" lon="1.15512">
        <ele>150</ele>
        <time>2017-11-14T13:50:03Z</time>
      </trkpt>
      <trkpt lat="49.40926" lon="1.15516">
        <ele>150</ele>
        <time>2017-11-14T13:50:03Z</time>
      </trkpt>
      <trkpt lat="49.40931" lon="1.1552">
        <ele>150</ele>
        <time>2017-11-14T13:50:03Z</time>
      </trkpt>
      <trkpt lat="49.40936" lon="1.15524">
        <ele>150</ele>
        <time>2017-11-14T13:50:03Z</time>
      </trkpt>
      <trkpt lat="49.4094" lon="1.1553">
        <ele>150</ele>
        <time>2017-11-14T13:50:19Z</time>
      </trkpt>
      <trkpt lat="49.40944" lon="1.15535">
        <ele>150</ele>
        <time>2017-11-14T13:50:19Z</time>
      </trkpt>
      <trkpt lat="49.40949" lon="1.1554">
        <ele>150</ele>
        <time>2017-11-14T13:50:19Z</time>
      </trkpt>
      <trkpt lat="49.40952" lon="1.15546">
        <ele>151</ele>
        <time>2017-11-14T13:50:19Z</time>
      </trkpt>
      <trkpt lat="49.40956" lon="1.15552">
        <ele>151</ele>
        <time>2017-11-14T13:50:35Z</time>
      </trkpt>
      <trkpt lat="49.40959" lon="1.15558">
        <ele>148</ele>
        <time>2017-11-14T13:50:35Z</time>
      </trkpt>
      <trkpt lat="49.40961" lon="1.15565">
        <ele>148</ele>
        <time>2017-11-14T13:50:35Z</time>
      </trkpt>
      <trkpt lat="49.40964" lon="1.15572">
        <ele>148</ele>
        <time>2017-11-14T13:50:35Z</time>
      </trkpt>
      <trkpt lat="49.40966" lon="1.15579">
        <ele>148</ele>
        <time>2017-11-14T13:50:51Z</time>
      </trkpt>
      <trkpt lat="49.40969" lon="1.15587">
        <ele>148</ele>
        <time>2017-11-14T13:50:51Z</time>
      </trkpt>
      <trkpt lat="49.40971" lon="1.15594">
        <ele>148</ele>
        <time>2017-11-14T13:50:51Z</time>
      </trkpt>
      <trkpt lat="49.40972" lon="1.15602">
        <ele>148</ele>
        <time>2017-11-14T13:50:51Z</time>
      </trkpt>
      <trkpt lat="49.40974" lon="1.15609">
        <ele>148</ele>
        <time>2017-11-14T13:51:07Z</time>
      </trkpt>
      <trkpt lat="49.40975" lon="1.15617">
        <ele>148</ele>
        <time>2017-11-14T13:51:07Z</time>
      </trkpt>
      <trkpt lat="49.40976" lon="1.15626">
        <ele>149</ele>
        <time>2017-11-14T13:51:07Z</time>
      </trkpt>
      <trkpt lat="49.40977" lon="1.15634">
        <ele>149</ele>
        <time>2017-11-14T13:51:07Z</time>
      </trkpt>
      <trkpt lat="49.40978" lon="1.15641">
        <ele>149</ele>
        <time>2017-11-14T13:51:23Z</time>
      </trkpt>
      <trkpt lat="49.40978" lon="1.15649">
        <ele>149</ele>
        <time>2017-11-14T13:51:23Z</time>
      </trkpt>
      <trkpt lat="49.40978" lon="1.15656">
        <ele>149</ele>
        <time>2017-11-14T13:51:23Z</time>
      </trkpt>
      <trkpt lat="49.40978" lon="1.15663">
        <ele>149</ele>
        <time>2017-11-14T13:51:23Z</time>
      </trkpt>
      <trkpt lat="49.40978" lon="1.15664">
        <ele>149</ele>
        <time>2017-11-14T13:51:43Z</time>
      </trkpt>
      <trkpt lat="49.40977" lon="1.15663">
        <ele>149</ele>
        <time>2017-11-14T13:51:43Z</time>
      </trkpt>
      <trkpt lat="49.40979" lon="1.15664">
        <ele>149</ele>
        <time>2017-11-14T13:51:43Z</time>
      </trkpt>
      <trkpt lat="49.40984" lon="1.15664">
        <ele>149</ele>
        <time>2017-11-14T13:51:43Z</time>
      </trkpt>
      <trkpt lat="49.4099" lon="1.15664">
        <ele>149</ele>
        <time>2017-11-14T13:51:43Z</time>
      </trkpt>
      <trkpt lat="49.40995" lon="1.15663">
        <ele>149</ele>
        <time>2017-11-14T13:51:59Z</time>
      </trkpt>
      <trkpt lat="49.41001" lon="1.15662">
        <ele>149</ele>
        <time>2017-11-14T13:51:59Z</time>
      </trkpt>
      <trkpt lat="49.41006" lon="1.15661">
        <ele>149</ele>
        <time>2017-11-14T13:51:59Z</time>
      </trkpt>
      <trkpt lat="49.41011" lon="1.1566">
        <ele>149</ele>
        <time>2017-11-14T13:51:59Z</time>
      </trkpt>
      <trkpt lat="49.41016" lon="1.1566">
        <ele>149</ele>
        <time>2017-11-14T13:52:15Z</time>
      </trkpt>
      <trkpt lat="49.41021" lon="1.15659">
        <ele>149</ele>
        <time>2017-11-14T13:52:15Z</time>
      </trkpt>
      <trkpt lat="49.41025" lon="1.15658">
        <ele>149</ele>
        <time>2017-11-14T13:52:15Z</time>
      </trkpt>
      <trkpt lat="49.4103" lon="1.15656">
        <ele>149</ele>
        <time>2017-11-14T13:52:15Z</time>
      </trkpt>
      <trkpt lat="49.41034" lon="1.15655">
        <ele>149</ele>
        <time>2017-11-14T13:52:31Z</time>
      </trkpt>
      <trkpt lat="49.41039" lon="1.15655">
        <ele>149</ele>
        <time>2017-11-14T13:52:31Z</time>
      </trkpt>
      <trkpt lat="49.41044" lon="1.15652">
        <ele>145</ele>
        <time>2017-11-14T13:52:31Z</time>
      </trkpt>
      <trkpt lat="49.41047" lon="1.15648">
        <ele>145</ele>
        <time>2017-11-14T13:52:31Z</time>
      </trkpt>
      <trkpt lat="49.41051" lon="1.15643">
        <ele>145</ele>
        <time>2017-11-14T13:52:47Z</time>
      </trkpt>
      <trkpt lat="49.41055" lon="1.15638">
        <ele>145</ele>
        <time>2017-11-14T13:52:47Z</time>
      </trkpt>
      <trkpt lat="49.41057" lon="1.15631">
        <ele>145</ele>
        <time>2017-11-14T13:52:47Z</time>
      </trkpt>
      <trkpt lat="49.41059" lon="1.15626">
        <ele>145</ele>
        <time>2017-11-14T13:52:47Z</time>
      </trkpt>
      <trkpt lat="49.41062" lon="1.15621">
        <ele>145</ele>
        <time>2017-11-14T13:53:23Z</time>
      </trkpt>
      <trkpt lat="49.41065" lon="1.15626">
        <ele>145</ele>
        <time>2017-11-14T13:53:23Z</time>
      </trkpt>
      <trkpt lat="49.4107" lon="1.15626">
        <ele>145</ele>
        <time>2017-11-14T13:53:23Z</time>
      </trkpt>
      <trkpt lat="49.41075" lon="1.15622">
        <ele>145</ele>
        <time>2017-11-14T13:53:23Z</time>
      </trkpt>
      <trkpt lat="49.41079" lon="1.15618">
        <ele>145</ele>
        <time>2017-11-14T13:53:23Z</time>
      </trkpt>
      <trkpt lat="49.41084" lon="1.15613">
        <ele>145</ele>
        <time>2017-11-14T13:53:39Z</time>
      </trkpt>
      <trkpt lat="49.41088" lon="1.15608">
        <ele>145</ele>
        <time>2017-11-14T13:53:39Z</time>
      </trkpt>
      <trkpt lat="49.41092" lon="1.15603">
        <ele>145</ele>
        <time>2017-11-14T13:53:39Z</time>
      </trkpt>
      <trkpt lat="49.41097" lon="1.15598">
        <ele>145</ele>
        <time>2017-11-14T13:53:39Z</time>
      </trkpt>
      <trkpt lat="49.41101" lon="1.15593">
        <ele>145</ele>
        <time>2017-11-14T13:53:55Z</time>
      </trkpt>
      <trkpt lat="49.41105" lon="1.15588">
        <ele>145</ele>
        <time>2017-11-14T13:53:55Z</time>
      </trkpt>
      <trkpt lat="49.41109" lon="1.15582">
        <ele>145</ele>
        <time>2017-11-14T13:53:55Z</time>
      </trkpt>
      <trkpt lat="49.41113" lon="1.15577">
        <ele>145</ele>
        <time>2017-11-14T13:53:55Z</time>
      </trkpt>
      <trkpt lat="49.41117" lon="1.15573">
        <ele>145</ele>
        <time>2017-11-14T13:54:11Z</time>
      </trkpt>
      <trkpt lat="49.41122" lon="1.15569">
        <ele>145</ele>
        <time>2017-11-14T13:54:11Z</time>
      </trkpt>
      <trkpt lat="49.41126" lon="1.15564">
        <ele>143</ele>
        <time>2017-11-14T13:54:11Z</time>
      </trkpt>
      <trkpt lat="49.4113" lon="1.15559">
        <ele>143</ele>
        <time>2017-11-14T13:54:11Z</time>
      </trkpt>
      <trkpt lat="49.41133" lon="1.15553">
        <ele>143</ele>
        <time>2017-11-14T13:54:27Z</time>
      </trkpt>
      <trkpt lat="49.41137" lon="1.15546">
        <ele>143</ele>
        <time>2017-11-14T13:54:27Z</time>
      </trkpt>
      <trkpt lat="49.4114" lon="1.1554">
        <ele>144</ele>
        <time>2017-11-14T13:54:27Z</time>
      </trkpt>
      <trkpt lat="49.41141" lon="1.15533">
        <ele>144</ele>
        <time>2017-11-14T13:54:27Z</time>
      </trkpt>
      <trkpt lat="49.4114" lon="1.15528">
        <ele>144</ele>
        <time>2017-11-14T13:54:47Z</time>
      </trkpt>
      <trkpt lat="49.41139" lon="1.15525">
        <ele>144</ele>
        <time>2017-11-14T13:54:47Z</time>
      </trkpt>
      <trkpt lat="49.41137" lon="1.15522">
        <ele>144</ele>
        <time>2017-11-14T13:54:47Z</time>
      </trkpt>
      <trkpt lat="49.41135" lon="1.15518">
        <ele>144</ele>
        <time>2017-11-14T13:54:47Z</time>
      </trkpt>
      <trkpt lat="49.41133" lon="1.15512">
        <ele>144</ele>
        <time>2017-11-14T13:54:47Z</time>
      </trkpt>
      <trkpt lat="49.4113" lon="1.15508">
        <ele>144</ele>
        <time>2017-11-14T13:55:03Z</time>
      </trkpt>
      <trkpt lat="49.41126" lon="1.15504">
        <ele>144</ele>
        <time>2017-11-14T13:55:03Z</time>
      </trkpt>
      <trkpt lat="49.41123" lon="1.15498">
        <ele>145</ele>
        <time>2017-11-14T13:55:03Z</time>
      </trkpt>
      <trkpt lat="49.4112" lon="1.15493">
        <ele>145</ele>
        <time>2017-11-14T13:55:03Z</time>
      </trkpt>
      <trkpt lat="49.41117" lon="1.15487">
        <ele>145</ele>
        <time>2017-11-14T13:55:19Z</time>
      </trkpt>
      <trkpt lat="49.41116" lon="1.15481">
        <ele>145</ele>
        <time>2017-11-14T13:55:19Z</time>
      </trkpt>
      <trkpt lat="49.4112" lon="1.15477">
        <ele>145</ele>
        <time>2017-11-14T13:55:19Z</time>
      </trkpt>
      <trkpt lat="49.41123" lon="1.15473">
        <ele>145</ele>
        <time>2017-11-14T13:55:19Z</time>
      </trkpt>
      <trkpt lat="49.41127" lon="1.15467">
        <ele>144</ele>
        <time>2017-11-14T13:55:35Z</time>
      </trkpt>
      <trkpt lat="49.4113" lon="1.15462">
        <ele>144</ele>
        <time>2017-11-14T13:55:35Z</time>
      </trkpt>
      <trkpt lat="49.41133" lon="1.15456">
        <ele>146</ele>
        <time>2017-11-14T13:55:35Z</time>
      </trkpt>
      <trkpt lat="49.41136" lon="1.1545">
        <ele>146</ele>
        <time>2017-11-14T13:55:35Z</time>
      </trkpt>
      <trkpt lat="49.41139" lon="1.15443">
        <ele>146</ele>
        <time>2017-11-14T13:55:51Z</time>
      </trkpt>
      <trkpt lat="49.41142" lon="1.15437">
        <ele>146</ele>
        <time>2017-11-14T13:55:51Z</time>
      </trkpt>
      <trkpt lat="49.41144" lon="1.1543">
        <ele>146</ele>
        <time>2017-11-14T13:55:51Z</time>
      </trkpt>
      <trkpt lat="49.41146" lon="1.15423">
        <ele>146</ele>
        <time>2017-11-14T13:55:51Z</time>
      </trkpt>
      <trkpt lat="49.41149" lon="1.15417">
        <ele>146</ele>
        <time>2017-11-14T13:56:07Z</time>
      </trkpt>
      <trkpt lat="49.41152" lon="1.1541">
        <ele>146</ele>
        <time>2017-11-14T13:56:07Z</time>
      </trkpt>
      <trkpt lat="49.41155" lon="1.15404">
        <ele>146</ele>
        <time>2017-11-14T13:56:07Z</time>
      </trkpt>
      <trkpt lat="49.41157" lon="1.15398">
        <ele>146</ele>
        <time>2017-11-14T13:56:07Z</time>
      </trkpt>
      <trkpt lat="49.4116" lon="1.15393">
        <ele>146</ele>
        <time>2017-11-14T13:56:23Z</time>
      </trkpt>
      <trkpt lat="49.41163" lon="1.15386">
        <ele>146</ele>
        <time>2017-11-14T13:56:23Z</time>
      </trkpt>
      <trkpt lat="49.41166" lon="1.1538">
        <ele>146</ele>
        <time>2017-11-14T13:56:23Z</time>
      </trkpt>
      <trkpt lat="49.41169" lon="1.15373">
        <ele>146</ele>
        <time>2017-11-14T13:56:23Z</time>
      </trkpt>
      <trkpt lat="49.41173" lon="1.15367">
        <ele>146</ele>
        <time>2017-11-14T13:56:39Z</time>
      </trkpt>
      <trkpt lat="49.41176" lon="1.15362">
        <ele>146</ele>
        <time>2017-11-14T13:56:39Z</time>
      </trkpt>
      <trkpt lat="49.41181" lon="1.15358">
        <ele>146</ele>
        <time>2017-11-14T13:56:39Z</time>
      </trkpt>
      <trkpt lat="49.41185" lon="1.15358">
        <ele>146</ele>
        <time>2017-11-14T13:56:39Z</time>
      </trkpt>
      <trkpt lat="49.4119" lon="1.15363">
        <ele>146</ele>
        <time>2017-11-14T13:56:55Z</time>
      </trkpt>
      <trkpt lat="49.41194" lon="1.15369">
        <ele>146</ele>
        <time>2017-11-14T13:56:55Z</time>
      </trkpt>
      <trkpt lat="49.41197" lon="1.15376">
        <ele>146</ele>
        <time>2017-11-14T13:56:55Z</time>
      </trkpt>
      <trkpt lat="49.412" lon="1.15383">
        <ele>146</ele>
        <time>2017-11-14T13:56:55Z</time>
      </trkpt>
      <trkpt lat="49.41204" lon="1.15389">
        <ele>146</ele>
        <time>2017-11-14T13:57:11Z</time>
      </trkpt>
      <trkpt lat="49.41207" lon="1.15396">
        <ele>146</ele>
        <time>2017-11-14T13:57:11Z</time>
      </trkpt>
      <trkpt lat="49.4121" lon="1.15402">
        <ele>142</ele>
        <time>2017-11-14T13:57:11Z</time>
      </trkpt>
      <trkpt lat="49.41213" lon="1.15408">
        <ele>142</ele>
        <time>2017-11-14T13:57:11Z</time>
      </trkpt>
      <trkpt lat="49.41216" lon="1.15415">
        <ele>142</ele>
        <time>2017-11-14T13:57:27Z</time>
      </trkpt>
      <trkpt lat="49.41217" lon="1.15422">
        <ele>142</ele>
        <time>2017-11-14T13:57:27Z</time>
      </trkpt>
      <trkpt lat="49.41216" lon="1.1543">
        <ele>142</ele>
        <time>2017-11-14T13:57:27Z</time>
      </trkpt>
      <trkpt lat="49.41215" lon="1.15438">
        <ele>142</ele>
        <time>2017-11-14T13:57:27Z</time>
      </trkpt>
      <trkpt lat="49.41214" lon="1.15446">
        <ele>142</ele>
        <time>2017-11-14T13:57:43Z</time>
      </trkpt>
      <trkpt lat="49.41214" lon="1.15453">
        <ele>142</ele>
        <time>2017-11-14T13:57:43Z</time>
      </trkpt>
      <trkpt lat="49.41214" lon="1.15461">
        <ele>142</ele>
        <time>2017-11-14T13:57:43Z</time>
      </trkpt>
      <trkpt lat="49.41217" lon="1.15468">
        <ele>142</ele>
        <time>2017-11-14T13:57:43Z</time>
      </trkpt>
      <trkpt lat="49.41222" lon="1.15473">
        <ele>142</ele>
        <time>2017-11-14T13:57:59Z</time>
      </trkpt>
      <trkpt lat="49.41226" lon="1.15475">
        <ele>142</ele>
        <time>2017-11-14T13:57:59Z</time>
      </trkpt>
      <trkpt lat="49.41231" lon="1.15473">
        <ele>142</ele>
        <time>2017-11-14T13:57:59Z</time>
      </trkpt>
      <trkpt lat="49.41236" lon="1.15471">
        <ele>142</ele>
        <time>2017-11-14T13:57:59Z</time>
      </trkpt>
      <trkpt lat="49.41241" lon="1.15473">
        <ele>142</ele>
        <time>2017-11-14T13:58:15Z</time>
      </trkpt>
      <trkpt lat="49.41246" lon="1.15477">
        <ele>142</ele>
        <time>2017-11-14T13:58:15Z</time>
      </trkpt>
      <trkpt lat="49.4125" lon="1.15482">
        <ele>142</ele>
        <time>2017-11-14T13:58:15Z</time>
      </trkpt>
      <trkpt lat="49.41253" lon="1.15489">
        <ele>142</ele>
        <time>2017-11-14T13:58:15Z</time>
      </trkpt>
      <trkpt lat="49.41256" lon="1.15496">
        <ele>142</ele>
        <time>2017-11-14T13:58:31Z</time>
      </trkpt>
      <trkpt lat="49.41258" lon="1.15502">
        <ele>142</ele>
        <time>2017-11-14T13:58:31Z</time>
      </trkpt>
      <trkpt lat="49.41262" lon="1.15508">
        <ele>142</ele>
        <time>2017-11-14T13:58:31Z</time>
      </trkpt>
      <trkpt lat="49.41265" lon="1.15515">
        <ele>142</ele>
        <time>2017-11-14T13:58:31Z</time>
      </trkpt>
      <trkpt lat="49.41268" lon="1.15521">
        <ele>142</ele>
        <time>2017-11-14T13:58:47Z</time>
      </trkpt>
      <trkpt lat="49.4127" lon="1.15528">
        <ele>142</ele>
        <time>2017-11-14T13:58:47Z</time>
      </trkpt>
      <trkpt lat="49.41274" lon="1.15534">
        <ele>142</ele>
        <time>2017-11-14T13:58:47Z</time>
      </trkpt>
      <trkpt lat="49.41277" lon="1.1554">
        <ele>142</ele>
        <time>2017-11-14T13:58:47Z</time>
      </trkpt>
      <trkpt lat="49.4128" lon="1.15546">
        <ele>142</ele>
        <time>2017-11-14T13:59:03Z</time>
      </trkpt>
      <trkpt lat="49.41283" lon="1.15551">
        <ele>142</ele>
        <time>2017-11-14T13:59:03Z</time>
      </trkpt>
      <trkpt lat="49.41287" lon="1.15557">
        <ele>142</ele>
        <time>2017-11-14T13:59:03Z</time>
      </trkpt>
      <trkpt lat="49.41289" lon="1.15563">
        <ele>142</ele>
        <time>2017-11-14T13:59:03Z</time>
      </trkpt>
      <trkpt lat="49.41292" lon="1.1557">
        <ele>142</ele>
        <time>2017-11-14T13:59:19Z</time>
      </trkpt>
      <trkpt lat="49.41295" lon="1.15576">
        <ele>142</ele>
        <time>2017-11-14T13:59:19Z</time>
      </trkpt>
      <trkpt lat="49.41297" lon="1.15582">
        <ele>142</ele>
        <time>2017-11-14T13:59:19Z</time>
      </trkpt>
      <trkpt lat="49.413" lon="1.15588">
        <ele>142</ele>
        <time>2017-11-14T13:59:19Z</time>
      </trkpt>
      <trkpt lat="49.41303" lon="1.15593">
        <ele>142</ele>
        <time>2017-11-14T13:59:35Z</time>
      </trkpt>
      <trkpt lat="49.41306" lon="1.15598">
        <ele>142</ele>
        <time>2017-11-14T13:59:35Z</time>
      </trkpt>
      <trkpt lat="49.41308" lon="1.15604">
        <ele>142</ele>
        <time>2017-11-14T13:59:35Z</time>
      </trkpt>
      <trkpt lat="49.4131" lon="1.1561">
        <ele>142</ele>
        <time>2017-11-14T13:59:35Z</time>
      </trkpt>
      <trkpt lat="49.41313" lon="1.15617">
        <ele>142</ele>
        <time>2017-11-14T13:59:51Z</time>
      </trkpt>
      <trkpt lat="49.41316" lon="1.15622">
        <ele>142</ele>
        <time>2017-11-14T13:59:51Z</time>
      </trkpt>
      <trkpt lat="49.41319" lon="1.15629">
        <ele>144</ele>
        <time>2017-11-14T13:59:51Z</time>
      </trkpt>
      <trkpt lat="49.41322" lon="1.15636">
        <ele>144</ele>
        <time>2017-11-14T13:59:51Z</time>
      </trkpt>
      <trkpt lat="49.41325" lon="1.15643">
        <ele>144</ele>
        <time>2017-11-14T14:00:07Z</time>
      </trkpt>
      <trkpt lat="49.41327" lon="1.15649">
        <ele>144</ele>
        <time>2017-11-14T14:00:07Z</time>
      </trkpt>
      <trkpt lat="49.4133" lon="1.15656">
        <ele>144</ele>
        <time>2017-11-14T14:00:07Z</time>
      </trkpt>
      <trkpt lat="49.41332" lon="1.15663">
        <ele>144</ele>
        <time>2017-11-14T14:00:07Z</time>
      </trkpt>
      <trkpt lat="49.41335" lon="1.1567">
        <ele>144</ele>
        <time>2017-11-14T14:00:23Z</time>
      </trkpt>
      <trkpt lat="49.41337" lon="1.15677">
        <ele>144</ele>
        <time>2017-11-14T14:00:23Z</time>
      </trkpt>
      <trkpt lat="49.41339" lon="1.15683">
        <ele>144</ele>
        <time>2017-11-14T14:00:23Z</time>
      </trkpt>
      <trkpt lat="49.41341" lon="1.1569">
        <ele>144</ele>
        <time>2017-11-14T14:00:23Z</time>
      </trkpt>
      <trkpt lat="49.41343" lon="1.15696">
        <ele>144</ele>
        <time>2017-11-14T14:00:39Z</time>
      </trkpt>
      <trkpt lat="49.41346" lon="1.15703">
        <ele>144</ele>
        <time>2017-11-14T14:00:39Z</time>
      </trkpt>
      <trkpt lat="49.41348" lon="1.1571">
        <ele>143</ele>
        <time>2017-11-14T14:00:39Z</time>
      </trkpt>
      <trkpt lat="49.4135" lon="1.15716">
        <ele>143</ele>
        <time>2017-11-14T14:00:39Z</time>
      </trkpt>
      <trkpt lat="49.41352" lon="1.15723">
        <ele>143</ele>
        <time>2017-11-14T14:00:55Z</time>
      </trkpt>
      <trkpt lat="49.41354" lon="1.1573">
        <ele>143</ele>
        <time>2017-11-14T14:00:55Z</time>
      </trkpt>
      <trkpt lat="49.41356" lon="1.15737">
        <ele>143</ele>
        <time>2017-11-14T14:00:55Z</time>
      </trkpt>
      <trkpt lat="49.41359" lon="1.15743">
        <ele>143</ele>
        <time>2017-11-14T14:00:55Z</time>
      </trkpt>
      <trkpt lat="49.41361" lon="1.1575">
        <ele>143</ele>
        <time>2017-11-14T14:01:11Z</time>
      </trkpt>
      <trkpt lat="49.41363" lon="1.15757">
        <ele>143</ele>
        <time>2017-11-14T14:01:11Z</time>
      </trkpt>
      <trkpt lat="49.41365" lon="1.15763">
        <ele>143</ele>
        <time>2017-11-14T14:01:11Z</time>
      </trkpt>
      <trkpt lat="49.41367" lon="1.1577">
        <ele>143</ele>
        <time>2017-11-14T14:01:11Z</time>
      </trkpt>
      <trkpt lat="49.4137" lon="1.15776">
        <ele>143</ele>
        <time>2017-11-14T14:01:27Z</time>
      </trkpt>
      <trkpt lat="49.41372" lon="1.15783">
        <ele>143</ele>
        <time>2017-11-14T14:01:27Z</time>
      </trkpt>
      <trkpt lat="49.41375" lon="1.1579">
        <ele>143</ele>
        <time>2017-11-14T14:01:27Z</time>
      </trkpt>
      <trkpt lat="49.41377" lon="1.15796">
        <ele>143</ele>
        <time>2017-11-14T14:01:27Z</time>
      </trkpt>
      <trkpt lat="49.41379" lon="1.15803">
        <ele>143</ele>
        <time>2017-11-14T14:01:43Z</time>
      </trkpt>
      <trkpt lat="49.41381" lon="1.1581">
        <ele>143</ele>
        <time>2017-11-14T14:01:43Z</time>
      </trkpt>
      <trkpt lat="49.41383" lon="1.15817">
        <ele>143</ele>
        <time>2017-11-14T14:01:43Z</time>
      </trkpt>
      <trkpt lat="49.41385" lon="1.15824">
        <ele>143</ele>
        <time>2017-11-14T14:01:43Z</time>
      </trkpt>
      <trkpt lat="49.41387" lon="1.15831">
        <ele>143</ele>
        <time>2017-11-14T14:01:59Z</time>
      </trkpt>
      <trkpt lat="49.41389" lon="1.15838">
        <ele>143</ele>
        <time>2017-11-14T14:01:59Z</time>
      </trkpt>
      <trkpt lat="49.41392" lon="1.15845">
        <ele>143</ele>
        <time>2017-11-14T14:01:59Z</time>
      </trkpt>
      <trkpt lat="49.41393" lon="1.15852">
        <ele>143</ele>
        <time>2017-11-14T14:01:59Z</time>
      </trkpt>
      <trkpt lat="49.41395" lon="1.15859">
        <ele>143</ele>
        <time>2017-11-14T14:02:15Z</time>
      </trkpt>
      <trkpt lat="49.41397" lon="1.15865">
        <ele>143</ele>
        <time>2017-11-14T14:02:15Z</time>
      </trkpt>
      <trkpt lat="49.41399" lon="1.15872">
        <ele>143</ele>
        <time>2017-11-14T14:02:15Z</time>
      </trkpt>
      <trkpt lat="49.41401" lon="1.15879">
        <ele>142</ele>
        <time>2017-11-14T14:02:15Z</time>
      </trkpt>
      <trkpt lat="49.41403" lon="1.15886">
        <ele>142</ele>
        <time>2017-11-14T14:02:31Z</time>
      </trkpt>
      <trkpt lat="49.41405" lon="1.15893">
        <ele>142</ele>
        <time>2017-11-14T14:02:31Z</time>
      </trkpt>
      <trkpt lat="49.41407" lon="1.159">
        <ele>142</ele>
        <time>2017-11-14T14:02:31Z</time>
      </trkpt>
      <trkpt lat="49.41409" lon="1.15907">
        <ele>142</ele>
        <time>2017-11-14T14:02:31Z</time>
      </trkpt>
      <trkpt lat="49.4141" lon="1.15915">
        <ele>142</ele>
        <time>2017-11-14T14:02:47Z</time>
      </trkpt>
      <trkpt lat="49.41411" lon="1.15923">
        <ele>142</ele>
        <time>2017-11-14T14:02:47Z</time>
      </trkpt>
      <trkpt lat="49.41412" lon="1.1593">
        <ele>142</ele>
        <time>2017-11-14T14:02:47Z</time>
      </trkpt>
      <trkpt lat="49.41414" lon="1.15938">
        <ele>142</ele>
        <time>2017-11-14T14:02:47Z</time>
      </trkpt>
      <trkpt lat="49.41415" lon="1.15945">
        <ele>142</ele>
        <time>2017-11-14T14:03:03Z</time>
      </trkpt>
      <trkpt lat="49.41417" lon="1.15952">
        <ele>142</ele>
        <time>2017-11-14T14:03:03Z</time>
      </trkpt>
      <trkpt lat="49.41418" lon="1.1596">
        <ele>141</ele>
        <time>2017-11-14T14:03:03Z</time>
      </trkpt>
      <trkpt lat="49.4142" lon="1.15967">
        <ele>141</ele>
        <time>2017-11-14T14:03:03Z</time>
      </trkpt>
      <trkpt lat="49.41421" lon="1.15975">
        <ele>141</ele>
        <time>2017-11-14T14:03:19Z</time>
      </trkpt>
      <trkpt lat="49.41422" lon="1.15983">
        <ele>141</ele>
        <time>2017-11-14T14:03:19Z</time>
      </trkpt>
      <trkpt lat="49.41424" lon="1.1599">
        <ele>141</ele>
        <time>2017-11-14T14:03:19Z</time>
      </trkpt>
      <trkpt lat="49.41425" lon="1.15998">
        <ele>141</ele>
        <time>2017-11-14T14:03:19Z</time>
      </trkpt>
      <trkpt lat="49.41426" lon="1.16006">
        <ele>141</ele>
        <time>2017-11-14T14:03:35Z</time>
      </trkpt>
      <trkpt lat="49.41426" lon="1.16014">
        <ele>141</ele>
        <time>2017-11-14T14:03:35Z</time>
      </trkpt>
      <trkpt lat="49.41427" lon="1.16022">
        <ele>141</ele>
        <time>2017-11-14T14:03:35Z</time>
      </trkpt>
      <trkpt lat="49.41428" lon="1.16029">
        <ele>141</ele>
        <time>2017-11-14T14:03:35Z</time>
      </trkpt>
      <trkpt lat="49.41428" lon="1.16037">
        <ele>141</ele>
        <time>2017-11-14T14:03:51Z</time>
      </trkpt>
      <trkpt lat="49.41428" lon="1.16044">
        <ele>141</ele>
        <time>2017-11-14T14:03:51Z</time>
      </trkpt>
      <trkpt lat="49.41428" lon="1.16051">
        <ele>141</ele>
        <time>2017-11-14T14:03:51Z</time>
      </trkpt>
      <trkpt lat="49.41429" lon="1.16058">
        <ele>141</ele>
        <time>2017-11-14T14:03:51Z</time>
      </trkpt>
      <trkpt lat="49.41431" lon="1.16065">
        <ele>141</ele>
        <time>2017-11-14T14:04:07Z</time>
      </trkpt>
      <trkpt lat="49.41432" lon="1.16072">
        <ele>141</ele>
        <time>2017-11-14T14:04:07Z</time>
      </trkpt>
      <trkpt lat="49.41433" lon="1.16079">
        <ele>141</ele>
        <time>2017-11-14T14:04:07Z</time>
      </trkpt>
      <trkpt lat="49.41434" lon="1.16086">
        <ele>141</ele>
        <time>2017-11-14T14:04:07Z</time>
      </trkpt>
      <trkpt lat="49.41435" lon="1.16092">
        <ele>141</ele>
        <time>2017-11-14T14:04:23Z</time>
      </trkpt>
      <trkpt lat="49.41436" lon="1.16099">
        <ele>141</ele>
        <time>2017-11-14T14:04:23Z</time>
      </trkpt>
      <trkpt lat="49.41437" lon="1.16107">
        <ele>141</ele>
        <time>2017-11-14T14:04:23Z</time>
      </trkpt>
      <trkpt lat="49.41438" lon="1.16114">
        <ele>141</ele>
        <time>2017-11-14T14:04:23Z</time>
      </trkpt>
      <trkpt lat="49.41439" lon="1.16121">
        <ele>141</ele>
        <time>2017-11-14T14:04:39Z</time>
      </trkpt>
      <trkpt lat="49.41439" lon="1.16129">
        <ele>142</ele>
        <time>2017-11-14T14:04:39Z</time>
      </trkpt>
      <trkpt lat="49.4144" lon="1.16136">
        <ele>142</ele>
        <time>2017-11-14T14:04:39Z</time>
      </trkpt>
      <trkpt lat="49.41441" lon="1.16144">
        <ele>142</ele>
        <time>2017-11-14T14:04:39Z</time>
      </trkpt>
      <trkpt lat="49.41442" lon="1.16151">
        <ele>142</ele>
        <time>2017-11-14T14:04:55Z</time>
      </trkpt>
      <trkpt lat="49.41442" lon="1.16158">
        <ele>142</ele>
        <time>2017-11-14T14:04:55Z</time>
      </trkpt>
      <trkpt lat="49.41443" lon="1.16166">
        <ele>142</ele>
        <time>2017-11-14T14:04:55Z</time>
      </trkpt>
      <trkpt lat="49.41444" lon="1.16173">
        <ele>142</ele>
        <time>2017-11-14T14:04:55Z</time>
      </trkpt>
      <trkpt lat="49.41445" lon="1.1618">
        <ele>142</ele>
        <time>2017-11-14T14:05:11Z</time>
      </trkpt>
      <trkpt lat="49.41446" lon="1.16188">
        <ele>142</ele>
        <time>2017-11-14T14:05:11Z</time>
      </trkpt>
      <trkpt lat="49.41446" lon="1.16195">
        <ele>142</ele>
        <time>2017-11-14T14:05:11Z</time>
      </trkpt>
      <trkpt lat="49.41447" lon="1.16202">
        <ele>142</ele>
        <time>2017-11-14T14:05:11Z</time>
      </trkpt>
      <trkpt lat="49.41447" lon="1.1621">
        <ele>143</ele>
        <time>2017-11-14T14:05:27Z</time>
      </trkpt>
      <trkpt lat="49.41448" lon="1.16217">
        <ele>143</ele>
        <time>2017-11-14T14:05:27Z</time>
      </trkpt>
      <trkpt lat="49.41449" lon="1.16225">
        <ele>143</ele>
        <time>2017-11-14T14:05:27Z</time>
      </trkpt>
      <trkpt lat="49.4145" lon="1.16232">
        <ele>143</ele>
        <time>2017-11-14T14:05:27Z</time>
      </trkpt>
      <trkpt lat="49.4145" lon="1.16238">
        <ele>143</ele>
        <time>2017-11-14T14:05:43Z</time>
      </trkpt>
      <trkpt lat="49.41451" lon="1.16245">
        <ele>143</ele>
        <time>2017-11-14T14:05:43Z</time>
      </trkpt>
      <trkpt lat="49.41453" lon="1.16252">
        <ele>143</ele>
        <time>2017-11-14T14:05:43Z</time>
      </trkpt>
      <trkpt lat="49.41454" lon="1.16259">
        <ele>143</ele>
        <time>2017-11-14T14:05:43Z</time>
      </trkpt>
      <trkpt lat="49.41455" lon="1.16267">
        <ele>143</ele>
        <time>2017-11-14T14:05:59Z</time>
      </trkpt>
      <trkpt lat="49.41456" lon="1.16274">
        <ele>143</ele>
        <time>2017-11-14T14:05:59Z</time>
      </trkpt>
      <trkpt lat="49.41458" lon="1.16281">
        <ele>143</ele>
        <time>2017-11-14T14:05:59Z</time>
      </trkpt>
      <trkpt lat="49.41459" lon="1.16288">
        <ele>141</ele>
        <time>2017-11-14T14:05:59Z</time>
      </trkpt>
      <trkpt lat="49.41461" lon="1.16295">
        <ele>143</ele>
        <time>2017-11-14T14:06:15Z</time>
      </trkpt>
      <trkpt lat="49.41464" lon="1.16302">
        <ele>143</ele>
        <time>2017-11-14T14:06:15Z</time>
      </trkpt>
      <trkpt lat="49.41466" lon="1.16309">
        <ele>143</ele>
        <time>2017-11-14T14:06:15Z</time>
      </trkpt>
      <trkpt lat="49.41468" lon="1.16315">
        <ele>143</ele>
        <time>2017-11-14T14:06:15Z</time>
      </trkpt>
      <trkpt lat="49.41472" lon="1.1632">
        <ele>143</ele>
        <time>2017-11-14T14:06:31Z</time>
      </trkpt>
      <trkpt lat="49.41476" lon="1.16326">
        <ele>143</ele>
        <time>2017-11-14T14:06:31Z</time>
      </trkpt>
      <trkpt lat="49.4148" lon="1.16331">
        <ele>143</ele>
        <time>2017-11-14T14:06:31Z</time>
      </trkpt>
      <trkpt lat="49.41485" lon="1.16335">
        <ele>143</ele>
        <time>2017-11-14T14:06:31Z</time>
      </trkpt>
      <trkpt lat="49.41489" lon="1.1634">
        <ele>143</ele>
        <time>2017-11-14T14:06:47Z</time>
      </trkpt>
      <trkpt lat="49.41494" lon="1.16343">
        <ele>143</ele>
        <time>2017-11-14T14:06:47Z</time>
      </trkpt>
      <trkpt lat="49.41499" lon="1.16347">
        <ele>143</ele>
        <time>2017-11-14T14:06:47Z</time>
      </trkpt>
      <trkpt lat="49.41504" lon="1.1635">
        <ele>143</ele>
        <time>2017-11-14T14:06:47Z</time>
      </trkpt>
      <trkpt lat="49.41508" lon="1.16353">
        <ele>143</ele>
        <time>2017-11-14T14:07:03Z</time>
      </trkpt>
      <trkpt lat="49.41513" lon="1.16357">
        <ele>143</ele>
        <time>2017-11-14T14:07:03Z</time>
      </trkpt>
      <trkpt lat="49.41517" lon="1.1636">
        <ele>143</ele>
        <time>2017-11-14T14:07:03Z</time>
      </trkpt>
      <trkpt lat="49.41522" lon="1.16364">
        <ele>143</ele>
        <time>2017-11-14T14:07:03Z</time>
      </trkpt>
      <trkpt lat="49.41527" lon="1.16366">
        <ele>143</ele>
        <time>2017-11-14T14:07:19Z</time>
      </trkpt>
      <trkpt lat="49.41532" lon="1.1637">
        <ele>143</ele>
        <time>2017-11-14T14:07:19Z</time>
      </trkpt>
      <trkpt lat="49.41536" lon="1.16372">
        <ele>143</ele>
        <time>2017-11-14T14:07:19Z</time>
      </trkpt>
      <trkpt lat="49.41541" lon="1.16375">
        <ele>143</ele>
        <time>2017-11-14T14:07:19Z</time>
      </trkpt>
      <trkpt lat="49.41546" lon="1.16377">
        <ele>144</ele>
        <time>2017-11-14T14:07:35Z</time>
      </trkpt>
      <trkpt lat="49.4155" lon="1.1638">
        <ele>144</ele>
        <time>2017-11-14T14:07:35Z</time>
      </trkpt>
      <trkpt lat="49.41555" lon="1.16383">
        <ele>144</ele>
        <time>2017-11-14T14:07:35Z</time>
      </trkpt>
      <trkpt lat="49.4156" lon="1.16386">
        <ele>144</ele>
        <time>2017-11-14T14:07:35Z</time>
      </trkpt>
      <trkpt lat="49.41564" lon="1.16389">
        <ele>144</ele>
        <time>2017-11-14T14:07:51Z</time>
      </trkpt>
      <trkpt lat="49.41569" lon="1.16391">
        <ele>144</ele>
        <time>2017-11-14T14:07:51Z</time>
      </trkpt>
      <trkpt lat="49.41573" lon="1.16393">
        <ele>144</ele>
        <time>2017-11-14T14:07:51Z</time>
      </trkpt>
      <trkpt lat="49.41577" lon="1.16396">
        <ele>144</ele>
        <time>2017-11-14T14:07:51Z</time>
      </trkpt>
      <trkpt lat="49.41582" lon="1.16399">
        <ele>144</ele>
        <time>2017-11-14T14:08:07Z</time>
      </trkpt>
      <trkpt lat="49.41586" lon="1.16401">
        <ele>144</ele>
        <time>2017-11-14T14:08:07Z</time>
      </trkpt>
      <trkpt lat="49.4159" lon="1.16405">
        <ele>144</ele>
        <time>2017-11-14T14:08:07Z</time>
      </trkpt>
      <trkpt lat="49.41595" lon="1.16409">
        <ele>144</ele>
        <time>2017-11-14T14:08:07Z</time>
      </trkpt>
      <trkpt lat="49.41599" lon="1.16414">
        <ele>144</ele>
        <time>2017-11-14T14:08:23Z</time>
      </trkpt>
      <trkpt lat="49.41603" lon="1.16418">
        <ele>144</ele>
        <time>2017-11-14T14:08:23Z</time>
      </trkpt>
      <trkpt lat="49.41606" lon="1.16424">
        <ele>144</ele>
        <time>2017-11-14T14:08:23Z</time>
      </trkpt>
      <trkpt lat="49.4161" lon="1.1643">
        <ele>144</ele>
        <time>2017-11-14T14:08:23Z</time>
      </trkpt>
      <trkpt lat="49.41614" lon="1.16435">
        <ele>144</ele>
        <time>2017-11-14T14:08:39Z</time>
      </trkpt>
      <trkpt lat="49.41617" lon="1.16441">
        <ele>144</ele>
        <time>2017-11-14T14:08:39Z</time>
      </trkpt>
      <trkpt lat="49.41621" lon="1.16447">
        <ele>144</ele>
        <time>2017-11-14T14:08:39Z</time>
      </trkpt>
      <trkpt lat="49.41625" lon="1.16452">
        <ele>144</ele>
        <time>2017-11-14T14:08:39Z</time>
      </trkpt>
      <trkpt lat="49.41629" lon="1.16457">
        <ele>143</ele>
        <time>2017-11-14T14:08:55Z</time>
      </trkpt>
      <trkpt lat="49.41633" lon="1.16462">
        <ele>142</ele>
        <time>2017-11-14T14:08:55Z</time>
      </trkpt>
      <trkpt lat="49.41637" lon="1.16467">
        <ele>142</ele>
        <time>2017-11-14T14:08:55Z</time>
      </trkpt>
      <trkpt lat="49.41642" lon="1.1647">
        <ele>142</ele>
        <time>2017-11-14T14:08:55Z</time>
      </trkpt>
      <trkpt lat="49.41646" lon="1.16474">
        <ele>142</ele>
        <time>2017-11-14T14:09:11Z</time>
      </trkpt>
      <trkpt lat="49.41651" lon="1.16477">
        <ele>142</ele>
        <time>2017-11-14T14:09:11Z</time>
      </trkpt>
      <trkpt lat="49.41656" lon="1.1648">
        <ele>142</ele>
        <time>2017-11-14T14:09:11Z</time>
      </trkpt>
      <trkpt lat="49.41661" lon="1.16482">
        <ele>142</ele>
        <time>2017-11-14T14:09:11Z</time>
      </trkpt>
      <trkpt lat="49.41666" lon="1.16484">
        <ele>142</ele>
        <time>2017-11-14T14:09:27Z</time>
      </trkpt>
      <trkpt lat="49.41671" lon="1.16486">
        <ele>142</ele>
        <time>2017-11-14T14:09:27Z</time>
      </trkpt>
      <trkpt lat="49.41676" lon="1.16487">
        <ele>142</ele>
        <time>2017-11-14T14:09:27Z</time>
      </trkpt>
      <trkpt lat="49.41681" lon="1.16488">
        <ele>142</ele>
        <time>2017-11-14T14:09:27Z</time>
      </trkpt>
      <trkpt lat="49.41686" lon="1.1649">
        <ele>142</ele>
        <time>2017-11-14T14:09:43Z</time>
      </trkpt>
      <trkpt lat="49.41691" lon="1.16491">
        <ele>142</ele>
        <time>2017-11-14T14:09:43Z</time>
      </trkpt>
      <trkpt lat="49.41696" lon="1.16492">
        <ele>142</ele>
        <time>2017-11-14T14:09:43Z</time>
      </trkpt>
      <trkpt lat="49.41701" lon="1.16494">
        <ele>142</ele>
        <time>2017-11-14T14:09:43Z</time>
      </trkpt>
      <trkpt lat="49.41706" lon="1.16495">
        <ele>142</ele>
        <time>2017-11-14T14:09:59Z</time>
      </trkpt>
      <trkpt lat="49.41711" lon="1.16497">
        <ele>140</ele>
        <time>2017-11-14T14:09:59Z</time>
      </trkpt>
      <trkpt lat="49.41716" lon="1.16498">
        <ele>140</ele>
        <time>2017-11-14T14:09:59Z</time>
      </trkpt>
      <trkpt lat="49.41721" lon="1.16499">
        <ele>140</ele>
        <time>2017-11-14T14:09:59Z</time>
      </trkpt>
      <trkpt lat="49.41727" lon="1.16501">
        <ele>140</ele>
        <time>2017-11-14T14:10:15Z</time>
      </trkpt>
      <trkpt lat="49.41732" lon="1.16502">
        <ele>140</ele>
        <time>2017-11-14T14:10:15Z</time>
      </trkpt>
      <trkpt lat="49.41737" lon="1.16504">
        <ele>140</ele>
        <time>2017-11-14T14:10:15Z</time>
      </trkpt>
      <trkpt lat="49.41742" lon="1.16507">
        <ele>140</ele>
        <time>2017-11-14T14:10:15Z</time>
      </trkpt>
      <trkpt lat="49.41748" lon="1.1651">
        <ele>140</ele>
        <time>2017-11-14T14:10:31Z</time>
      </trkpt>
      <trkpt lat="49.41753" lon="1.16513">
        <ele>140</ele>
        <time>2017-11-14T14:10:31Z</time>
      </trkpt>
      <trkpt lat="49.41758" lon="1.16515">
        <ele>140</ele>
        <time>2017-11-14T14:10:31Z</time>
      </trkpt>
      <trkpt lat="49.41763" lon="1.16518">
        <ele>140</ele>
        <time>2017-11-14T14:10:31Z</time>
      </trkpt>
      <trkpt lat="49.41767" lon="1.16521">
        <ele>140</ele>
        <time>2017-11-14T14:10:47Z</time>
      </trkpt>
      <trkpt lat="49.41772" lon="1.16524">
        <ele>140</ele>
        <time>2017-11-14T14:10:47Z</time>
      </trkpt>
      <trkpt lat="49.41777" lon="1.16527">
        <ele>140</ele>
        <time>2017-11-14T14:10:47Z</time>
      </trkpt>
      <trkpt lat="49.41781" lon="1.16531">
        <ele>140</ele>
        <time>2017-11-14T14:10:47Z</time>
      </trkpt>
      <trkpt lat="49.41786" lon="1.16535">
        <ele>140</ele>
        <time>2017-11-14T14:11:03Z</time>
      </trkpt>
      <trkpt lat="49.4179" lon="1.16539">
        <ele>140</ele>
        <time>2017-11-14T14:11:03Z</time>
      </trkpt>
      <trkpt lat="49.41794" lon="1.16543">
        <ele>144</ele>
        <time>2017-11-14T14:11:03Z</time>
      </trkpt>
      <trkpt lat="49.41797" lon="1.16548">
        <ele>144</ele>
        <time>2017-11-14T14:11:03Z</time>
      </trkpt>
      <trkpt lat="49.41801" lon="1.16552">
        <ele>144</ele>
        <time>2017-11-14T14:11:19Z</time>
      </trkpt>
      <trkpt lat="49.41806" lon="1.16555">
        <ele>144</ele>
        <time>2017-11-14T14:11:19Z</time>
      </trkpt>
      <trkpt lat="49.41809" lon="1.16561">
        <ele>144</ele>
        <time>2017-11-14T14:11:19Z</time>
      </trkpt>
      <trkpt lat="49.41812" lon="1.16566">
        <ele>144</ele>
        <time>2017-11-14T14:11:19Z</time>
      </trkpt>
      <trkpt lat="49.41817" lon="1.16571">
        <ele>144</ele>
        <time>2017-11-14T14:11:35Z</time>
      </trkpt>
      <trkpt lat="49.41819" lon="1.16577">
        <ele>144</ele>
        <time>2017-11-14T14:11:35Z</time>
      </trkpt>
      <trkpt lat="49.41824" lon="1.1658">
        <ele>144</ele>
        <time>2017-11-14T14:11:35Z</time>
      </trkpt>
      <trkpt lat="49.41827" lon="1.16583">
        <ele>144</ele>
        <time>2017-11-14T14:11:35Z</time>
      </trkpt>
      <trkpt lat="49.41829" lon="1.16586">
        <ele>144</ele>
        <time>2017-11-14T14:11:51Z</time>
      </trkpt>
      <trkpt lat="49.41832" lon="1.1659">
        <ele>144</ele>
        <time>2017-11-14T14:11:51Z</time>
      </trkpt>
      <trkpt lat="49.41835" lon="1.16593">
        <ele>144</ele>
        <time>2017-11-14T14:11:51Z</time>
      </trkpt>
      <trkpt lat="49.41839" lon="1.16596">
        <ele>144</ele>
        <time>2017-11-14T14:11:51Z</time>
      </trkpt>
      <trkpt lat="49.41842" lon="1.16602">
        <ele>144</ele>
        <time>2017-11-14T14:13:15Z</time>
      </trkpt>
      <trkpt lat="49.41842" lon="1.16603">
        <ele>144</ele>
        <time>2017-11-14T14:13:15Z</time>
      </trkpt>
      <trkpt lat="49.41842" lon="1.16604">
        <ele>144</ele>
        <time>2017-11-14T14:13:15Z</time>
      </trkpt>
      <trkpt lat="49.41844" lon="1.16607">
        <ele>144</ele>
        <time>2017-11-14T14:13:15Z</time>
      </trkpt>
      <trkpt lat="49.41847" lon="1.16611">
        <ele>144</ele>
        <time>2017-11-14T14:13:15Z</time>
      </trkpt>
      <trkpt lat="49.4185" lon="1.16615">
        <ele>144</ele>
        <time>2017-11-14T14:13:31Z</time>
      </trkpt>
      <trkpt lat="49.41852" lon="1.1662">
        <ele>144</ele>
        <time>2017-11-14T14:13:31Z</time>
      </trkpt>
      <trkpt lat="49.41856" lon="1.16624">
        <ele>144</ele>
        <time>2017-11-14T14:13:31Z</time>
      </trkpt>
      <trkpt lat="49.4186" lon="1.16627">
        <ele>141</ele>
        <time>2017-11-14T14:13:31Z</time>
      </trkpt>
      <trkpt lat="49.41864" lon="1.16632">
        <ele>141</ele>
        <time>2017-11-14T14:13:47Z</time>
      </trkpt>
      <trkpt lat="49.41868" lon="1.16637">
        <ele>141</ele>
        <time>2017-11-14T14:13:47Z</time>
      </trkpt>
      <trkpt lat="49.41872" lon="1.16642">
        <ele>141</ele>
        <time>2017-11-14T14:13:47Z</time>
      </trkpt>
      <trkpt lat="49.41875" lon="1.16645">
        <ele>145</ele>
        <time>2017-11-14T14:13:47Z</time>
      </trkpt>
      <trkpt lat="49.41879" lon="1.16647">
        <ele>145</ele>
        <time>2017-11-14T14:14:03Z</time>
      </trkpt>
      <trkpt lat="49.41882" lon="1.1665">
        <ele>145</ele>
        <time>2017-11-14T14:14:03Z</time>
      </trkpt>
      <trkpt lat="49.41887" lon="1.16653">
        <ele>145</ele>
        <time>2017-11-14T14:14:03Z</time>
      </trkpt>
      <trkpt lat="49.41891" lon="1.16654">
        <ele>145</ele>
        <time>2017-11-14T14:14:03Z</time>
      </trkpt>
      <trkpt lat="49.41894" lon="1.16655">
        <ele>145</ele>
        <time>2017-11-14T14:14:19Z</time>
      </trkpt>
      <trkpt lat="49.41898" lon="1.16656">
        <ele>145</ele>
        <time>2017-11-14T14:14:19Z</time>
      </trkpt>
      <trkpt lat="49.41902" lon="1.16656">
        <ele>145</ele>
        <time>2017-11-14T14:14:19Z</time>
      </trkpt>
      <trkpt lat="49.41906" lon="1.16656">
        <ele>145</ele>
        <time>2017-11-14T14:14:19Z</time>
      </trkpt>
      <trkpt lat="49.4191" lon="1.16656">
        <ele>145</ele>
        <time>2017-11-14T14:14:35Z</time>
      </trkpt>
      <trkpt lat="49.41915" lon="1.16658">
        <ele>145</ele>
        <time>2017-11-14T14:14:35Z</time>
      </trkpt>
      <trkpt lat="49.41919" lon="1.16659">
        <ele>145</ele>
        <time>2017-11-14T14:14:35Z</time>
      </trkpt>
      <trkpt lat="49.41921" lon="1.16659">
        <ele>145</ele>
        <time>2017-11-14T14:14:35Z</time>
      </trkpt>
      <trkpt lat="49.41923" lon="1.16659">
        <ele>145</ele>
        <time>2017-11-14T14:14:51Z</time>
      </trkpt>
      <trkpt lat="49.41925" lon="1.16658">
        <ele>145</ele>
        <time>2017-11-14T14:14:51Z</time>
      </trkpt>
      <trkpt lat="49.41929" lon="1.16659">
        <ele>145</ele>
        <time>2017-11-14T14:14:51Z</time>
      </trkpt>
      <trkpt lat="49.41934" lon="1.1666">
        <ele>145</ele>
        <time>2017-11-14T14:14:51Z</time>
      </trkpt>
      <trkpt lat="49.41937" lon="1.1666">
        <ele>145</ele>
        <time>2017-11-14T14:15:07Z</time>
      </trkpt>
      <trkpt lat="49.41942" lon="1.16659">
        <ele>145</ele>
        <time>2017-11-14T14:15:07Z</time>
      </trkpt>
      <trkpt lat="49.41947" lon="1.16658">
        <ele>145</ele>
        <time>2017-11-14T14:15:07Z</time>
      </trkpt>
      <trkpt lat="49.41952" lon="1.16657">
        <ele>145</ele>
        <time>2017-11-14T14:15:07Z</time>
      </trkpt>
      <trkpt lat="49.41957" lon="1.16657">
        <ele>145</ele>
        <time>2017-11-14T14:15:23Z</time>
      </trkpt>
      <trkpt lat="49.41962" lon="1.16656">
        <ele>142</ele>
        <time>2017-11-14T14:15:23Z</time>
      </trkpt>
      <trkpt lat="49.41967" lon="1.16656">
        <ele>142</ele>
        <time>2017-11-14T14:15:23Z</time>
      </trkpt>
      <trkpt lat="49.4197" lon="1.16656">
        <ele>142</ele>
        <time>2017-11-14T14:15:23Z</time>
      </trkpt>
      <trkpt lat="49.41975" lon="1.16656">
        <ele>142</ele>
        <time>2017-11-14T14:15:39Z</time>
      </trkpt>
      <trkpt lat="49.41981" lon="1.16657">
        <ele>142</ele>
        <time>2017-11-14T14:15:39Z</time>
      </trkpt>
      <trkpt lat="49.41986" lon="1.16654">
        <ele>142</ele>
        <time>2017-11-14T14:15:39Z</time>
      </trkpt>
      <trkpt lat="49.41991" lon="1.16653">
        <ele>142</ele>
        <time>2017-11-14T14:15:39Z</time>
      </trkpt>
      <trkpt lat="49.41996" lon="1.16651">
        <ele>142</ele>
        <time>2017-11-14T14:15:55Z</time>
      </trkpt>
      <trkpt lat="49.42" lon="1.16649">
        <ele>142</ele>
        <time>2017-11-14T14:15:55Z</time>
      </trkpt>
      <trkpt lat="49.42005" lon="1.16645">
        <ele>142</ele>
        <time>2017-11-14T14:15:55Z</time>
      </trkpt>
      <trkpt lat="49.42009" lon="1.16644">
        <ele>142</ele>
        <time>2017-11-14T14:15:55Z</time>
      </trkpt>
      <trkpt lat="49.42013" lon="1.16642">
        <ele>142</ele>
        <time>2017-11-14T14:16:11Z</time>
      </trkpt>
      <trkpt lat="49.42018" lon="1.16641">
        <ele>142</ele>
        <time>2017-11-14T14:16:11Z</time>
      </trkpt>
      <trkpt lat="49.42022" lon="1.1664">
        <ele>142</ele>
        <time>2017-11-14T14:16:11Z</time>
      </trkpt>
      <trkpt lat="49.42026" lon="1.16639">
        <ele>142</ele>
        <time>2017-11-14T14:16:11Z</time>
      </trkpt>
      <trkpt lat="49.42028" lon="1.16637">
        <ele>142</ele>
        <time>2017-11-14T14:16:27Z</time>
      </trkpt>
      <trkpt lat="49.4203" lon="1.16637">
        <ele>142</ele>
        <time>2017-11-14T14:16:27Z</time>
      </trkpt>
      <trkpt lat="49.42034" lon="1.16637">
        <ele>142</ele>
        <time>2017-11-14T14:16:27Z</time>
      </trkpt>
      <trkpt lat="49.42039" lon="1.16636">
        <ele>142</ele>
        <time>2017-11-14T14:16:27Z</time>
      </trkpt>
      <trkpt lat="49.42044" lon="1.16633">
        <ele>139</ele>
        <time>2017-11-14T14:16:43Z</time>
      </trkpt>
      <trkpt lat="49.42048" lon="1.1663">
        <ele>139</ele>
        <time>2017-11-14T14:16:43Z</time>
      </trkpt>
      <trkpt lat="49.42053" lon="1.16628">
        <ele>139</ele>
        <time>2017-11-14T14:16:43Z</time>
      </trkpt>
      <trkpt lat="49.42057" lon="1.16623">
        <ele>136</ele>
        <time>2017-11-14T14:16:43Z</time>
      </trkpt>
      <trkpt lat="49.42061" lon="1.1662">
        <ele>136</ele>
        <time>2017-11-14T14:16:59Z</time>
      </trkpt>
      <trkpt lat="49.42065" lon="1.16616">
        <ele>136</ele>
        <time>2017-11-14T14:16:59Z</time>
      </trkpt>
      <trkpt lat="49.42069" lon="1.16614">
        <ele>136</ele>
        <time>2017-11-14T14:16:59Z</time>
      </trkpt>
      <trkpt lat="49.42075" lon="1.16613">
        <ele>136</ele>
        <time>2017-11-14T14:16:59Z</time>
      </trkpt>
      <trkpt lat="49.42079" lon="1.16612">
        <ele>136</ele>
        <time>2017-11-14T14:17:15Z</time>
      </trkpt>
      <trkpt lat="49.42084" lon="1.16611">
        <ele>136</ele>
        <time>2017-11-14T14:17:15Z</time>
      </trkpt>
      <trkpt lat="49.42088" lon="1.16606">
        <ele>136</ele>
        <time>2017-11-14T14:17:15Z</time>
      </trkpt>
      <trkpt lat="49.42093" lon="1.16603">
        <ele>136</ele>
        <time>2017-11-14T14:17:15Z</time>
      </trkpt>
      <trkpt lat="49.42098" lon="1.166">
        <ele>136</ele>
        <time>2017-11-14T14:17:31Z</time>
      </trkpt>
      <trkpt lat="49.42102" lon="1.16599">
        <ele>136</ele>
        <time>2017-11-14T14:17:31Z</time>
      </trkpt>
      <trkpt lat="49.42105" lon="1.16598">
        <ele>136</ele>
        <time>2017-11-14T14:17:31Z</time>
      </trkpt>
      <trkpt lat="49.42108" lon="1.16596">
        <ele>136</ele>
        <time>2017-11-14T14:17:31Z</time>
      </trkpt>
      <trkpt lat="49.42111" lon="1.16597">
        <ele>136</ele>
        <time>2017-11-14T14:17:47Z</time>
      </trkpt>
      <trkpt lat="49.42113" lon="1.16597">
        <ele>136</ele>
        <time>2017-11-14T14:17:47Z</time>
      </trkpt>
      <trkpt lat="49.42117" lon="1.16597">
        <ele>136</ele>
        <time>2017-11-14T14:17:47Z</time>
      </trkpt>
      <trkpt lat="49.42121" lon="1.16597">
        <ele>136</ele>
        <time>2017-11-14T14:17:47Z</time>
      </trkpt>
      <trkpt lat="49.42125" lon="1.166">
        <ele>136</ele>
        <time>2017-11-14T14:18:03Z</time>
      </trkpt>
      <trkpt lat="49.42131" lon="1.16603">
        <ele>130</ele>
        <time>2017-11-14T14:18:03Z</time>
      </trkpt>
      <trkpt lat="49.42135" lon="1.16606">
        <ele>130</ele>
        <time>2017-11-14T14:18:03Z</time>
      </trkpt>
      <trkpt lat="49.4214" lon="1.16607">
        <ele>130</ele>
        <time>2017-11-14T14:18:03Z</time>
      </trkpt>
      <trkpt lat="49.42145" lon="1.16608">
        <ele>130</ele>
        <time>2017-11-14T14:18:19Z</time>
      </trkpt>
      <trkpt lat="49.4215" lon="1.16611">
        <ele>130</ele>
        <time>2017-11-14T14:18:19Z</time>
      </trkpt>
      <trkpt lat="49.42156" lon="1.16616">
        <ele>130</ele>
        <time>2017-11-14T14:18:19Z</time>
      </trkpt>
      <trkpt lat="49.42161" lon="1.16619">
        <ele>130</ele>
        <time>2017-11-14T14:18:19Z</time>
      </trkpt>
      <trkpt lat="49.42166" lon="1.16624">
        <ele>130</ele>
        <time>2017-11-14T14:18:35Z</time>
      </trkpt>
      <trkpt lat="49.4217" lon="1.16629">
        <ele>135</ele>
        <time>2017-11-14T14:18:35Z</time>
      </trkpt>
      <trkpt lat="49.42174" lon="1.16635">
        <ele>135</ele>
        <time>2017-11-14T14:18:35Z</time>
      </trkpt>
      <trkpt lat="49.42178" lon="1.16639">
        <ele>135</ele>
        <time>2017-11-14T14:18:35Z</time>
      </trkpt>
      <trkpt lat="49.42183" lon="1.16641">
        <ele>135</ele>
        <time>2017-11-14T14:18:51Z</time>
      </trkpt>
      <trkpt lat="49.42186" lon="1.16642">
        <ele>135</ele>
        <time>2017-11-14T14:18:51Z</time>
      </trkpt>
      <trkpt lat="49.4219" lon="1.16645">
        <ele>135</ele>
        <time>2017-11-14T14:18:51Z</time>
      </trkpt>
      <trkpt lat="49.42194" lon="1.16647">
        <ele>135</ele>
        <time>2017-11-14T14:18:51Z</time>
      </trkpt>
      <trkpt lat="49.42199" lon="1.16647">
        <ele>135</ele>
        <time>2017-11-14T14:19:07Z</time>
      </trkpt>
      <trkpt lat="49.42203" lon="1.16647">
        <ele>135</ele>
        <time>2017-11-14T14:19:07Z</time>
      </trkpt>
      <trkpt lat="49.42208" lon="1.16648">
        <ele>135</ele>
        <time>2017-11-14T14:19:07Z</time>
      </trkpt>
      <trkpt lat="49.42213" lon="1.16651">
        <ele>131</ele>
        <time>2017-11-14T14:19:07Z</time>
      </trkpt>
      <trkpt lat="49.42218" lon="1.16654">
        <ele>131</ele>
        <time>2017-11-14T14:19:23Z</time>
      </trkpt>
      <trkpt lat="49.42221" lon="1.16657">
        <ele>131</ele>
        <time>2017-11-14T14:19:23Z</time>
      </trkpt>
      <trkpt lat="49.42225" lon="1.1666">
        <ele>131</ele>
        <time>2017-11-14T14:19:23Z</time>
      </trkpt>
      <trkpt lat="49.42229" lon="1.16665">
        <ele>131</ele>
        <time>2017-11-14T14:19:23Z</time>
      </trkpt>
      <trkpt lat="49.42233" lon="1.16669">
        <ele>131</ele>
        <time>2017-11-14T14:19:39Z</time>
      </trkpt>
      <trkpt lat="49.42237" lon="1.16674">
        <ele>131</ele>
        <time>2017-11-14T14:19:39Z</time>
      </trkpt>
      <trkpt lat="49.42239" lon="1.16679">
        <ele>131</ele>
        <time>2017-11-14T14:19:39Z</time>
      </trkpt>
      <trkpt lat="49.42243" lon="1.16684">
        <ele>131</ele>
        <time>2017-11-14T14:19:39Z</time>
      </trkpt>
      <trkpt lat="49.42247" lon="1.16689">
        <ele>131</ele>
        <time>2017-11-14T14:19:55Z</time>
      </trkpt>
      <trkpt lat="49.42249" lon="1.16694">
        <ele>131</ele>
        <time>2017-11-14T14:19:55Z</time>
      </trkpt>
      <trkpt lat="49.42253" lon="1.16698">
        <ele>131</ele>
        <time>2017-11-14T14:19:55Z</time>
      </trkpt>
      <trkpt lat="49.42256" lon="1.16702">
        <ele>131</ele>
        <time>2017-11-14T14:19:55Z</time>
      </trkpt>
      <trkpt lat="49.42258" lon="1.16707">
        <ele>131</ele>
        <time>2017-11-14T14:20:11Z</time>
      </trkpt>
      <trkpt lat="49.42261" lon="1.16711">
        <ele>133</ele>
        <time>2017-11-14T14:20:11Z</time>
      </trkpt>
      <trkpt lat="49.42265" lon="1.16714">
        <ele>133</ele>
        <time>2017-11-14T14:20:11Z</time>
      </trkpt>
      <trkpt lat="49.42268" lon="1.16718">
        <ele>133</ele>
        <time>2017-11-14T14:20:11Z</time>
      </trkpt>
      <trkpt lat="49.42271" lon="1.1672">
        <ele>133</ele>
        <time>2017-11-14T14:20:27Z</time>
      </trkpt>
      <trkpt lat="49.42276" lon="1.16723">
        <ele>133</ele>
        <time>2017-11-14T14:20:27Z</time>
      </trkpt>
      <trkpt lat="49.42281" lon="1.16726">
        <ele>133</ele>
        <time>2017-11-14T14:20:27Z</time>
      </trkpt>
      <trkpt lat="49.42286" lon="1.16728">
        <ele>133</ele>
        <time>2017-11-14T14:20:27Z</time>
      </trkpt>
      <trkpt lat="49.4229" lon="1.16733">
        <ele>133</ele>
        <time>2017-11-14T14:20:43Z</time>
      </trkpt>
      <trkpt lat="49.42294" lon="1.16738">
        <ele>127</ele>
        <time>2017-11-14T14:20:43Z</time>
      </trkpt>
      <trkpt lat="49.42299" lon="1.16741">
        <ele>127</ele>
        <time>2017-11-14T14:20:43Z</time>
      </trkpt>
      <trkpt lat="49.42303" lon="1.16744">
        <ele>127</ele>
        <time>2017-11-14T14:20:43Z</time>
      </trkpt>
      <trkpt lat="49.42307" lon="1.16747">
        <ele>127</ele>
        <time>2017-11-14T14:20:59Z</time>
      </trkpt>
      <trkpt lat="49.42311" lon="1.16749">
        <ele>127</ele>
        <time>2017-11-14T14:20:59Z</time>
      </trkpt>
      <trkpt lat="49.42316" lon="1.1675">
        <ele>127</ele>
        <time>2017-11-14T14:20:59Z</time>
      </trkpt>
      <trkpt lat="49.4232" lon="1.16752">
        <ele>127</ele>
        <time>2017-11-14T14:20:59Z</time>
      </trkpt>
      <trkpt lat="49.42323" lon="1.16753">
        <ele>127</ele>
        <time>2017-11-14T14:21:15Z</time>
      </trkpt>
      <trkpt lat="49.42327" lon="1.16753">
        <ele>127</ele>
        <time>2017-11-14T14:21:15Z</time>
      </trkpt>
      <trkpt lat="49.4233" lon="1.16752">
        <ele>127</ele>
        <time>2017-11-14T14:21:15Z</time>
      </trkpt>
      <trkpt lat="49.42334" lon="1.16754">
        <ele>127</ele>
        <time>2017-11-14T14:21:15Z</time>
      </trkpt>
      <trkpt lat="49.42339" lon="1.16754">
        <ele>127</ele>
        <time>2017-11-14T14:21:31Z</time>
      </trkpt>
      <trkpt lat="49.42343" lon="1.16755">
        <ele>127</ele>
        <time>2017-11-14T14:21:31Z</time>
      </trkpt>
      <trkpt lat="49.42348" lon="1.16757">
        <ele>127</ele>
        <time>2017-11-14T14:21:31Z</time>
      </trkpt>
      <trkpt lat="49.42352" lon="1.16757">
        <ele>127</ele>
        <time>2017-11-14T14:21:31Z</time>
      </trkpt>
      <trkpt lat="49.42356" lon="1.16759">
        <ele>127</ele>
        <time>2017-11-14T14:21:47Z</time>
      </trkpt>
      <trkpt lat="49.4236" lon="1.16761">
        <ele>127</ele>
        <time>2017-11-14T14:21:47Z</time>
      </trkpt>
      <trkpt lat="49.42365" lon="1.16762">
        <ele>127</ele>
        <time>2017-11-14T14:21:47Z</time>
      </trkpt>
      <trkpt lat="49.42368" lon="1.16764">
        <ele>127</ele>
        <time>2017-11-14T14:21:47Z</time>
      </trkpt>
      <trkpt lat="49.42371" lon="1.16766">
        <ele>127</ele>
        <time>2017-11-14T14:22:03Z</time>
      </trkpt>
      <trkpt lat="49.42375" lon="1.16767">
        <ele>127</ele>
        <time>2017-11-14T14:22:03Z</time>
      </trkpt>
      <trkpt lat="49.42378" lon="1.16769">
        <ele>116</ele>
        <time>2017-11-14T14:22:03Z</time>
      </trkpt>
      <trkpt lat="49.42382" lon="1.16771">
        <ele>116</ele>
        <time>2017-11-14T14:22:03Z</time>
      </trkpt>
      <trkpt lat="49.42384" lon="1.16773">
        <ele>116</ele>
        <time>2017-11-14T14:22:19Z</time>
      </trkpt>
      <trkpt lat="49.42388" lon="1.16776">
        <ele>116</ele>
        <time>2017-11-14T14:22:19Z</time>
      </trkpt>
      <trkpt lat="49.42392" lon="1.16778">
        <ele>116</ele>
        <time>2017-11-14T14:22:19Z</time>
      </trkpt>
      <trkpt lat="49.42396" lon="1.1678">
        <ele>116</ele>
        <time>2017-11-14T14:22:19Z</time>
      </trkpt>
      <trkpt lat="49.42399" lon="1.1678">
        <ele>116</ele>
        <time>2017-11-14T14:22:35Z</time>
      </trkpt>
      <trkpt lat="49.42403" lon="1.16781">
        <ele>116</ele>
        <time>2017-11-14T14:22:35Z</time>
      </trkpt>
      <trkpt lat="49.42406" lon="1.16782">
        <ele>116</ele>
        <time>2017-11-14T14:22:35Z</time>
      </trkpt>
      <trkpt lat="49.42411" lon="1.16783">
        <ele>116</ele>
        <time>2017-11-14T14:22:35Z</time>
      </trkpt>
      <trkpt lat="49.42415" lon="1.16784">
        <ele>116</ele>
        <time>2017-11-14T14:22:51Z</time>
      </trkpt>
      <trkpt lat="49.42419" lon="1.16782">
        <ele>116</ele>
        <time>2017-11-14T14:22:51Z</time>
      </trkpt>
      <trkpt lat="49.42422" lon="1.16781">
        <ele>116</ele>
        <time>2017-11-14T14:22:51Z</time>
      </trkpt>
      <trkpt lat="49.42424" lon="1.1678">
        <ele>116</ele>
        <time>2017-11-14T14:22:51Z</time>
      </trkpt>
      <trkpt lat="49.42426" lon="1.1678">
        <ele>116</ele>
        <time>2017-11-14T14:23:07Z</time>
      </trkpt>
      <trkpt lat="49.42429" lon="1.16779">
        <ele>116</ele>
        <time>2017-11-14T14:23:07Z</time>
      </trkpt>
      <trkpt lat="49.42432" lon="1.16777">
        <ele>116</ele>
        <time>2017-11-14T14:23:07Z</time>
      </trkpt>
      <trkpt lat="49.42435" lon="1.16777">
        <ele>116</ele>
        <time>2017-11-14T14:23:07Z</time>
      </trkpt>
      <trkpt lat="49.42438" lon="1.16778">
        <ele>116</ele>
        <time>2017-11-14T14:23:23Z</time>
      </trkpt>
      <trkpt lat="49.42441" lon="1.16779">
        <ele>116</ele>
        <time>2017-11-14T14:23:23Z</time>
      </trkpt>
      <trkpt lat="49.42445" lon="1.1678">
        <ele>116</ele>
        <time>2017-11-14T14:23:23Z</time>
      </trkpt>
      <trkpt lat="49.42449" lon="1.16781">
        <ele>116</ele>
        <time>2017-11-14T14:23:23Z</time>
      </trkpt>
      <trkpt lat="49.42454" lon="1.16782">
        <ele>116</ele>
        <time>2017-11-14T14:23:39Z</time>
      </trkpt>
      <trkpt lat="49.42459" lon="1.16782">
        <ele>100</ele>
        <time>2017-11-14T14:23:39Z</time>
      </trkpt>
      <trkpt lat="49.42462" lon="1.16782">
        <ele>100</ele>
        <time>2017-11-14T14:23:39Z</time>
      </trkpt>
      <trkpt lat="49.42465" lon="1.16785">
        <ele>100</ele>
        <time>2017-11-14T14:23:39Z</time>
      </trkpt>
      <trkpt lat="49.42468" lon="1.16786">
        <ele>100</ele>
        <time>2017-11-14T14:23:55Z</time>
      </trkpt>
      <trkpt lat="49.42473" lon="1.16788">
        <ele>100</ele>
        <time>2017-11-14T14:23:55Z</time>
      </trkpt>
      <trkpt lat="49.42477" lon="1.16791">
        <ele>100</ele>
        <time>2017-11-14T14:23:55Z</time>
      </trkpt>
      <trkpt lat="49.42481" lon="1.16795">
        <ele>103</ele>
        <time>2017-11-14T14:23:55Z</time>
      </trkpt>
      <trkpt lat="49.42486" lon="1.16796">
        <ele>103</ele>
        <time>2017-11-14T14:24:11Z</time>
      </trkpt>
      <trkpt lat="49.4249" lon="1.16799">
        <ele>103</ele>
        <time>2017-11-14T14:24:11Z</time>
      </trkpt>
      <trkpt lat="49.42494" lon="1.16801">
        <ele>103</ele>
        <time>2017-11-14T14:24:11Z</time>
      </trkpt>
      <trkpt lat="49.425" lon="1.16799">
        <ele>103</ele>
        <time>2017-11-14T14:24:11Z</time>
      </trkpt>
      <trkpt lat="49.42504" lon="1.16798">
        <ele>103</ele>
        <time>2017-11-14T14:24:31Z</time>
      </trkpt>
      <trkpt lat="49.42507" lon="1.16796">
        <ele>103</ele>
        <time>2017-11-14T14:24:31Z</time>
      </trkpt>
      <trkpt lat="49.42509" lon="1.16793">
        <ele>103</ele>
        <time>2017-11-14T14:24:31Z</time>
      </trkpt>
      <trkpt lat="49.42511" lon="1.16793">
        <ele>103</ele>
        <time>2017-11-14T14:24:31Z</time>
      </trkpt>
      <trkpt lat="49.42514" lon="1.16791">
        <ele>100</ele>
        <time>2017-11-14T14:24:31Z</time>
      </trkpt>
      <trkpt lat="49.42517" lon="1.16788">
        <ele>100</ele>
        <time>2017-11-14T14:24:47Z</time>
      </trkpt>
      <trkpt lat="49.4252" lon="1.16786">
        <ele>100</ele>
        <time>2017-11-14T14:24:47Z</time>
      </trkpt>
      <trkpt lat="49.42523" lon="1.16782">
        <ele>100</ele>
        <time>2017-11-14T14:24:47Z</time>
      </trkpt>
      <trkpt lat="49.42526" lon="1.1678">
        <ele>100</ele>
        <time>2017-11-14T14:24:47Z</time>
      </trkpt>
      <trkpt lat="49.4253" lon="1.16783">
        <ele>100</ele>
        <time>2017-11-14T14:25:03Z</time>
      </trkpt>
      <trkpt lat="49.42534" lon="1.16786">
        <ele>100</ele>
        <time>2017-11-14T14:25:03Z</time>
      </trkpt>
      <trkpt lat="49.42537" lon="1.16788">
        <ele>100</ele>
        <time>2017-11-14T14:25:03Z</time>
      </trkpt>
      <trkpt lat="49.42542" lon="1.1679">
        <ele>100</ele>
        <time>2017-11-14T14:25:03Z</time>
      </trkpt>
      <trkpt lat="49.42545" lon="1.16793">
        <ele>85</ele>
        <time>2017-11-14T14:25:19Z</time>
      </trkpt>
      <trkpt lat="49.42548" lon="1.16799">
        <ele>85</ele>
        <time>2017-11-14T14:25:19Z</time>
      </trkpt>
      <trkpt lat="49.42549" lon="1.16804">
        <ele>85</ele>
        <time>2017-11-14T14:25:19Z</time>
      </trkpt>
      <trkpt lat="49.42548" lon="1.16809">
        <ele>85</ele>
        <time>2017-11-14T14:25:19Z</time>
      </trkpt>
      <trkpt lat="49.42552" lon="1.16813">
        <ele>85</ele>
        <time>2017-11-14T14:25:35Z</time>
      </trkpt>
      <trkpt lat="49.42555" lon="1.16817">
        <ele>85</ele>
        <time>2017-11-14T14:25:35Z</time>
      </trkpt>
      <trkpt lat="49.42559" lon="1.16821">
        <ele>85</ele>
        <time>2017-11-14T14:25:35Z</time>
      </trkpt>
      <trkpt lat="49.42564" lon="1.16824">
        <ele>85</ele>
        <time>2017-11-14T14:25:35Z</time>
      </trkpt>
      <trkpt lat="49.42567" lon="1.16824">
        <ele>85</ele>
        <time>2017-11-14T14:25:55Z</time>
      </trkpt>
      <trkpt lat="49.4257" lon="1.16822">
        <ele>85</ele>
        <time>2017-11-14T14:25:55Z</time>
      </trkpt>
      <trkpt lat="49.42573" lon="1.16823">
        <ele>85</ele>
        <time>2017-11-14T14:25:55Z</time>
      </trkpt>
      <trkpt lat="49.42576" lon="1.16825">
        <ele>85</ele>
        <time>2017-11-14T14:25:55Z</time>
      </trkpt>
      <trkpt lat="49.42579" lon="1.16828">
        <ele>85</ele>
        <time>2017-11-14T14:25:55Z</time>
      </trkpt>
      <trkpt lat="49.42583" lon="1.1683">
        <ele>85</ele>
        <time>2017-11-14T14:26:11Z</time>
      </trkpt>
      <trkpt lat="49.42586" lon="1.16832">
        <ele>85</ele>
        <time>2017-11-14T14:26:11Z</time>
      </trkpt>
      <trkpt lat="49.42588" lon="1.16834">
        <ele>85</ele>
        <time>2017-11-14T14:26:11Z</time>
      </trkpt>
      <trkpt lat="49.42592" lon="1.16837">
        <ele>85</ele>
        <time>2017-11-14T14:26:11Z</time>
      </trkpt>
      <trkpt lat="49.42594" lon="1.1684">
        <ele>85</ele>
        <time>2017-11-14T14:26:27Z</time>
      </trkpt>
      <trkpt lat="49.42598" lon="1.16845">
        <ele>85</ele>
        <time>2017-11-14T14:26:27Z</time>
      </trkpt>
      <trkpt lat="49.42601" lon="1.16849">
        <ele>85</ele>
        <time>2017-11-14T14:26:27Z</time>
      </trkpt>
      <trkpt lat="49.42605" lon="1.16848">
        <ele>85</ele>
        <time>2017-11-14T14:26:27Z</time>
      </trkpt>
      <trkpt lat="49.42608" lon="1.16847">
        <ele>85</ele>
        <time>2017-11-14T14:26:47Z</time>
      </trkpt>
      <trkpt lat="49.4261" lon="1.16848">
        <ele>85</ele>
        <time>2017-11-14T14:26:47Z</time>
      </trkpt>
      <trkpt lat="49.42613" lon="1.16849">
        <ele>85</ele>
        <time>2017-11-14T14:26:47Z</time>
      </trkpt>
      <trkpt lat="49.42616" lon="1.16851">
        <ele>85</ele>
        <time>2017-11-14T14:26:47Z</time>
      </trkpt>
      <trkpt lat="49.42619" lon="1.16853">
        <ele>85</ele>
        <time>2017-11-14T14:26:47Z</time>
      </trkpt>
      <trkpt lat="49.42622" lon="1.16852">
        <ele>85</ele>
        <time>2017-11-14T14:27:03Z</time>
      </trkpt>
      <trkpt lat="49.42625" lon="1.16852">
        <ele>85</ele>
        <time>2017-11-14T14:27:03Z</time>
      </trkpt>
      <trkpt lat="49.42629" lon="1.16853">
        <ele>67</ele>
        <time>2017-11-14T14:27:03Z</time>
      </trkpt>
      <trkpt lat="49.42632" lon="1.16854">
        <ele>67</ele>
        <time>2017-11-14T14:27:03Z</time>
      </trkpt>
      <trkpt lat="49.42635" lon="1.16856">
        <ele>67</ele>
        <time>2017-11-14T14:27:19Z</time>
      </trkpt>
      <trkpt lat="49.42638" lon="1.16856">
        <ele>67</ele>
        <time>2017-11-14T14:27:19Z</time>
      </trkpt>
      <trkpt lat="49.42641" lon="1.16857">
        <ele>67</ele>
        <time>2017-11-14T14:27:19Z</time>
      </trkpt>
      <trkpt lat="49.42644" lon="1.16857">
        <ele>67</ele>
        <time>2017-11-14T14:27:19Z</time>
      </trkpt>
      <trkpt lat="49.42647" lon="1.16857">
        <ele>67</ele>
        <time>2017-11-14T14:27:39Z</time>
      </trkpt>
      <trkpt lat="49.42651" lon="1.16859">
        <ele>67</ele>
        <time>2017-11-14T14:27:39Z</time>
      </trkpt>
      <trkpt lat="49.42652" lon="1.16861">
        <ele>67</ele>
        <time>2017-11-14T14:27:39Z</time>
      </trkpt>
      <trkpt lat="49.42654" lon="1.16862">
        <ele>67</ele>
        <time>2017-11-14T14:27:39Z</time>
      </trkpt>
      <trkpt lat="49.42657" lon="1.16864">
        <ele>67</ele>
        <time>2017-11-14T14:27:39Z</time>
      </trkpt>
      <trkpt lat="49.4266" lon="1.16867">
        <ele>67</ele>
        <time>2017-11-14T14:27:55Z</time>
      </trkpt>
      <trkpt lat="49.42663" lon="1.16868">
        <ele>67</ele>
        <time>2017-11-14T14:27:55Z</time>
      </trkpt>
      <trkpt lat="49.42666" lon="1.16868">
        <ele>67</ele>
        <time>2017-11-14T14:27:55Z</time>
      </trkpt>
      <trkpt lat="49.4267" lon="1.16867">
        <ele>67</ele>
        <time>2017-11-14T14:27:55Z</time>
      </trkpt>
      <trkpt lat="49.42671" lon="1.16866">
        <ele>67</ele>
        <time>2017-11-14T14:28:11Z</time>
      </trkpt>
      <trkpt lat="49.42673" lon="1.16864">
        <ele>67</ele>
        <time>2017-11-14T14:28:11Z</time>
      </trkpt>
      <trkpt lat="49.42676" lon="1.16863">
        <ele>67</ele>
        <time>2017-11-14T14:28:11Z</time>
      </trkpt>
      <trkpt lat="49.4268" lon="1.1686">
        <ele>67</ele>
        <time>2017-11-14T14:28:11Z</time>
      </trkpt>
      <trkpt lat="49.42685" lon="1.16858">
        <ele>67</ele>
        <time>2017-11-14T14:28:27Z</time>
      </trkpt>
      <trkpt lat="49.42689" lon="1.16858">
        <ele>67</ele>
        <time>2017-11-14T14:28:27Z</time>
      </trkpt>
      <trkpt lat="49.42694" lon="1.16856">
        <ele>67</ele>
        <time>2017-11-14T14:28:27Z</time>
      </trkpt>
      <trkpt lat="49.42698" lon="1.16854">
        <ele>67</ele>
        <time>2017-11-14T14:28:27Z</time>
      </trkpt>
      <trkpt lat="49.427" lon="1.16851">
        <ele>67</ele>
        <time>2017-11-14T14:28:43Z</time>
      </trkpt>
      <trkpt lat="49.42703" lon="1.16848">
        <ele>67</ele>
        <time>2017-11-14T14:28:43Z</time>
      </trkpt>
      <trkpt lat="49.42706" lon="1.16845">
        <ele>67</ele>
        <time>2017-11-14T14:28:43Z</time>
      </trkpt>
      <trkpt lat="49.4271" lon="1.16843">
        <ele>54</ele>
        <time>2017-11-14T14:28:43Z</time>
      </trkpt>
      <trkpt lat="49.42714" lon="1.16842">
        <ele>54</ele>
        <time>2017-11-14T14:28:59Z</time>
      </trkpt>
      <trkpt lat="49.42718" lon="1.16842">
        <ele>54</ele>
        <time>2017-11-14T14:28:59Z</time>
      </trkpt>
      <trkpt lat="49.42721" lon="1.16842">
        <ele>54</ele>
        <time>2017-11-14T14:28:59Z</time>
      </trkpt>
      <trkpt lat="49.42724" lon="1.16843">
        <ele>54</ele>
        <time>2017-11-14T14:28:59Z</time>
      </trkpt>
      <trkpt lat="49.42728" lon="1.16845">
        <ele>54</ele>
        <time>2017-11-14T14:29:15Z</time>
      </trkpt>
      <trkpt lat="49.42732" lon="1.16847">
        <ele>54</ele>
        <time>2017-11-14T14:29:15Z</time>
      </trkpt>
      <trkpt lat="49.42736" lon="1.1685">
        <ele>54</ele>
        <time>2017-11-14T14:29:15Z</time>
      </trkpt>
      <trkpt lat="49.42738" lon="1.16853">
        <ele>54</ele>
        <time>2017-11-14T14:29:15Z</time>
      </trkpt>
      <trkpt lat="49.42741" lon="1.16853">
        <ele>54</ele>
        <time>2017-11-14T14:29:31Z</time>
      </trkpt>
      <trkpt lat="49.42745" lon="1.16854">
        <ele>54</ele>
        <time>2017-11-14T14:29:31Z</time>
      </trkpt>
      <trkpt lat="49.42749" lon="1.16856">
        <ele>54</ele>
        <time>2017-11-14T14:29:31Z</time>
      </trkpt>
      <trkpt lat="49.42752" lon="1.16859">
        <ele>54</ele>
        <time>2017-11-14T14:29:31Z</time>
      </trkpt>
      <trkpt lat="49.42757" lon="1.16861">
        <ele>54</ele>
        <time>2017-11-14T14:29:47Z</time>
      </trkpt>
      <trkpt lat="49.4276" lon="1.16862">
        <ele>54</ele>
        <time>2017-11-14T14:29:47Z</time>
      </trkpt>
      <trkpt lat="49.42763" lon="1.16864">
        <ele>54</ele>
        <time>2017-11-14T14:29:47Z</time>
      </trkpt>
      <trkpt lat="49.42767" lon="1.16867">
        <ele>54</ele>
        <time>2017-11-14T14:29:47Z</time>
      </trkpt>
      <trkpt lat="49.42772" lon="1.16869">
        <ele>54</ele>
        <time>2017-11-14T14:30:07Z</time>
      </trkpt>
      <trkpt lat="49.42775" lon="1.16874">
        <ele>54</ele>
        <time>2017-11-14T14:30:07Z</time>
      </trkpt>
      <trkpt lat="49.42777" lon="1.16875">
        <ele>54</ele>
        <time>2017-11-14T14:30:07Z</time>
      </trkpt>
      <trkpt lat="49.42779" lon="1.16878">
        <ele>54</ele>
        <time>2017-11-14T14:30:07Z</time>
      </trkpt>
      <trkpt lat="49.42781" lon="1.16879">
        <ele>54</ele>
        <time>2017-11-14T14:30:07Z</time>
      </trkpt>
      <trkpt lat="49.42783" lon="1.16882">
        <ele>54</ele>
        <time>2017-11-14T14:32:43Z</time>
      </trkpt>
      <trkpt lat="49.42784" lon="1.16882">
        <ele>54</ele>
        <time>2017-11-14T14:32:43Z</time>
      </trkpt>
      <trkpt lat="49.42786" lon="1.16883">
        <ele>54</ele>
        <time>2017-11-14T14:32:43Z</time>
      </trkpt>
      <trkpt lat="49.42786" lon="1.16887">
        <ele>54</ele>
        <time>2017-11-14T14:32:43Z</time>
      </trkpt>
      <trkpt lat="49.4279" lon="1.16891">
        <ele>54</ele>
        <time>2017-11-14T14:32:43Z</time>
      </trkpt>
      <trkpt lat="49.42795" lon="1.16894">
        <ele>46</ele>
        <time>2017-11-14T14:32:59Z</time>
      </trkpt>
      <trkpt lat="49.42798" lon="1.16898">
        <ele>46</ele>
        <time>2017-11-14T14:32:59Z</time>
      </trkpt>
      <trkpt lat="49.42802" lon="1.169">
        <ele>46</ele>
        <time>2017-11-14T14:32:59Z</time>
      </trkpt>
      <trkpt lat="49.42805" lon="1.16902">
        <ele>46</ele>
        <time>2017-11-14T14:32:59Z</time>
      </trkpt>
      <trkpt lat="49.42808" lon="1.16904">
        <ele>46</ele>
        <time>2017-11-14T14:33:15Z</time>
      </trkpt>
      <trkpt lat="49.42812" lon="1.16906">
        <ele>46</ele>
        <time>2017-11-14T14:33:15Z</time>
      </trkpt>
      <trkpt lat="49.42816" lon="1.16909">
        <ele>46</ele>
        <time>2017-11-14T14:33:15Z</time>
      </trkpt>
      <trkpt lat="49.42819" lon="1.16913">
        <ele>46</ele>
        <time>2017-11-14T14:33:15Z</time>
      </trkpt>
      <trkpt lat="49.42821" lon="1.16915">
        <ele>46</ele>
        <time>2017-11-14T14:38:43Z</time>
      </trkpt>
      <trkpt lat="49.42824" lon="1.16914">
        <ele>46</ele>
        <time>2017-11-14T14:38:43Z</time>
      </trkpt>
      <trkpt lat="49.42829" lon="1.16909">
        <ele>46</ele>
        <time>2017-11-14T14:38:43Z</time>
      </trkpt>
      <trkpt lat="49.42832" lon="1.16903">
        <ele>46</ele>
        <time>2017-11-14T14:38:43Z</time>
      </trkpt>
      <trkpt lat="49.42833" lon="1.16897">
        <ele>46</ele>
        <time>2017-11-14T14:38:43Z</time>
      </trkpt>
      <trkpt lat="49.42835" lon="1.1689">
        <ele>46</ele>
        <time>2017-11-14T14:38:59Z</time>
      </trkpt>
      <trkpt lat="49.42838" lon="1.16884">
        <ele>46</ele>
        <time>2017-11-14T14:38:59Z</time>
      </trkpt>
      <trkpt lat="49.42841" lon="1.16878">
        <ele>46</ele>
        <time>2017-11-14T14:38:59Z</time>
      </trkpt>
      <trkpt lat="49.42844" lon="1.16872">
        <ele>47</ele>
        <time>2017-11-14T14:38:59Z</time>
      </trkpt>
      <trkpt lat="49.42846" lon="1.16865">
        <ele>47</ele>
        <time>2017-11-14T14:39:15Z</time>
      </trkpt>
      <trkpt lat="49.42849" lon="1.16858">
        <ele>47</ele>
        <time>2017-11-14T14:39:15Z</time>
      </trkpt>
      <trkpt lat="49.42852" lon="1.16853">
        <ele>47</ele>
        <time>2017-11-14T14:39:15Z</time>
      </trkpt>
      <trkpt lat="49.42854" lon="1.16847">
        <ele>47</ele>
        <time>2017-11-14T14:39:15Z</time>
      </trkpt>
      <trkpt lat="49.42858" lon="1.16843">
        <ele>47</ele>
        <time>2017-11-14T14:39:31Z</time>
      </trkpt>
      <trkpt lat="49.42861" lon="1.16838">
        <ele>47</ele>
        <time>2017-11-14T14:39:31Z</time>
      </trkpt>
      <trkpt lat="49.42865" lon="1.16837">
        <ele>47</ele>
        <time>2017-11-14T14:39:31Z</time>
      </trkpt>
      <trkpt lat="49.42871" lon="1.16842">
        <ele>47</ele>
        <time>2017-11-14T14:39:31Z</time>
      </trkpt>
      <trkpt lat="49.42876" lon="1.16849">
        <ele>46</ele>
        <time>2017-11-14T14:39:47Z</time>
      </trkpt>
      <trkpt lat="49.4288" lon="1.16855">
        <ele>46</ele>
        <time>2017-11-14T14:39:47Z</time>
      </trkpt>
      <trkpt lat="49.42885" lon="1.1686">
        <ele>46</ele>
        <time>2017-11-14T14:39:47Z</time>
      </trkpt>
      <trkpt lat="49.4289" lon="1.16865">
        <ele>46</ele>
        <time>2017-11-14T14:39:47Z</time>
      </trkpt>
      <trkpt lat="49.42894" lon="1.1687">
        <ele>46</ele>
        <time>2017-11-14T14:40:03Z</time>
      </trkpt>
      <trkpt lat="49.42897" lon="1.16876">
        <ele>43</ele>
        <time>2017-11-14T14:40:03Z</time>
      </trkpt>
      <trkpt lat="49.42901" lon="1.16881">
        <ele>43</ele>
        <time>2017-11-14T14:40:03Z</time>
      </trkpt>
      <trkpt lat="49.42905" lon="1.16886">
        <ele>43</ele>
        <time>2017-11-14T14:40:03Z</time>
      </trkpt>
      <trkpt lat="49.42909" lon="1.16891">
        <ele>43</ele>
        <time>2017-11-14T14:40:19Z</time>
      </trkpt>
      <trkpt lat="49.42911" lon="1.16895">
        <ele>43</ele>
        <time>2017-11-14T14:40:19Z</time>
      </trkpt>
      <trkpt lat="49.42914" lon="1.16899">
        <ele>43</ele>
        <time>2017-11-14T14:40:19Z</time>
      </trkpt>
      <trkpt lat="49.42918" lon="1.16903">
        <ele>43</ele>
        <time>2017-11-14T14:40:19Z</time>
      </trkpt>
      <trkpt lat="49.42921" lon="1.16909">
        <ele>43</ele>
        <time>2017-11-14T14:40:35Z</time>
      </trkpt>
      <trkpt lat="49.42923" lon="1.16916">
        <ele>43</ele>
        <time>2017-11-14T14:40:35Z</time>
      </trkpt>
      <trkpt lat="49.42925" lon="1.16922">
        <ele>43</ele>
        <time>2017-11-14T14:40:35Z</time>
      </trkpt>
      <trkpt lat="49.42924" lon="1.16925">
        <ele>43</ele>
        <time>2017-11-14T14:40:35Z</time>
      </trkpt>
      <trkpt lat="49.42925" lon="1.16931">
        <ele>43</ele>
        <time>2017-11-14T14:41:03Z</time>
      </trkpt>
      <trkpt lat="49.42927" lon="1.1693">
        <ele>43</ele>
        <time>2017-11-14T14:41:03Z</time>
      </trkpt>
      <trkpt lat="49.4293" lon="1.1693">
        <ele>43</ele>
        <time>2017-11-14T14:41:03Z</time>
      </trkpt>
      <trkpt lat="49.42932" lon="1.1693">
        <ele>43</ele>
        <time>2017-11-14T14:41:03Z</time>
      </trkpt>
      <trkpt lat="49.42934" lon="1.16931">
        <ele>43</ele>
        <time>2017-11-14T14:41:03Z</time>
      </trkpt>
      <trkpt lat="49.42938" lon="1.16932">
        <ele>43</ele>
        <time>2017-11-14T14:41:31Z</time>
      </trkpt>
      <trkpt lat="49.42939" lon="1.16933">
        <ele>43</ele>
        <time>2017-11-14T14:41:31Z</time>
      </trkpt>
      <trkpt lat="49.4294" lon="1.16934">
        <ele>43</ele>
        <time>2017-11-14T14:41:31Z</time>
      </trkpt>
      <trkpt lat="49.42942" lon="1.16935">
        <ele>43</ele>
        <time>2017-11-14T14:41:31Z</time>
      </trkpt>
      <trkpt lat="49.42944" lon="1.16934">
        <ele>43</ele>
        <time>2017-11-14T14:41:31Z</time>
      </trkpt>
      <trkpt lat="49.42944" lon="1.16931">
        <ele>43</ele>
        <time>2017-11-14T14:41:47Z</time>
      </trkpt>
      <trkpt lat="49.42947" lon="1.16925">
        <ele>43</ele>
        <time>2017-11-14T14:41:47Z</time>
      </trkpt>
      <trkpt lat="49.42949" lon="1.16919">
        <ele>43</ele>
        <time>2017-11-14T14:41:47Z</time>
      </trkpt>
      <trkpt lat="49.4295" lon="1.16912">
        <ele>43</ele>
        <time>2017-11-14T14:41:47Z</time>
      </trkpt>
      <trkpt lat="49.42952" lon="1.16907">
        <ele>43</ele>
        <time>2017-11-14T14:42:03Z</time>
      </trkpt>
      <trkpt lat="49.42954" lon="1.16902">
        <ele>43</ele>
        <time>2017-11-14T14:42:03Z</time>
      </trkpt>
      <trkpt lat="49.42957" lon="1.16896">
        <ele>43</ele>
        <time>2017-11-14T14:42:03Z</time>
      </trkpt>
      <trkpt lat="49.42959" lon="1.16891">
        <ele>41</ele>
        <time>2017-11-14T14:42:03Z</time>
      </trkpt>
      <trkpt lat="49.42961" lon="1.16885">
        <ele>41</ele>
        <time>2017-11-14T14:42:19Z</time>
      </trkpt>
      <trkpt lat="49.42963" lon="1.16879">
        <ele>41</ele>
        <time>2017-11-14T14:42:19Z</time>
      </trkpt>
      <trkpt lat="49.42965" lon="1.16873">
        <ele>41</ele>
        <time>2017-11-14T14:42:19Z</time>
      </trkpt>
      <trkpt lat="49.42966" lon="1.16866">
        <ele>41</ele>
        <time>2017-11-14T14:42:19Z</time>
      </trkpt>
      <trkpt lat="49.42968" lon="1.1686">
        <ele>41</ele>
        <time>2017-11-14T14:42:35Z</time>
      </trkpt>
      <trkpt lat="49.42971" lon="1.16855">
        <ele>41</ele>
        <time>2017-11-14T14:42:35Z</time>
      </trkpt>
      <trkpt lat="49.42973" lon="1.16849">
        <ele>41</ele>
        <time>2017-11-14T14:42:35Z</time>
      </trkpt>
      <trkpt lat="49.42975" lon="1.16843">
        <ele>41</ele>
        <time>2017-11-14T14:42:35Z</time>
      </trkpt>
      <trkpt lat="49.42978" lon="1.16837">
        <ele>41</ele>
        <time>2017-11-14T14:42:51Z</time>
      </trkpt>
      <trkpt lat="49.42982" lon="1.16831">
        <ele>41</ele>
        <time>2017-11-14T14:42:51Z</time>
      </trkpt>
      <trkpt lat="49.42982" lon="1.16823">
        <ele>41</ele>
        <time>2017-11-14T14:42:51Z</time>
      </trkpt>
      <trkpt lat="49.42984" lon="1.16815">
        <ele>41</ele>
        <time>2017-11-14T14:42:51Z</time>
      </trkpt>
      <trkpt lat="49.42986" lon="1.16808">
        <ele>41</ele>
        <time>2017-11-14T14:43:07Z</time>
      </trkpt>
      <trkpt lat="49.42987" lon="1.16801">
        <ele>41</ele>
        <time>2017-11-14T14:43:07Z</time>
      </trkpt>
      <trkpt lat="49.4299" lon="1.16795">
        <ele>41</ele>
        <time>2017-11-14T14:43:07Z</time>
      </trkpt>
      <trkpt lat="49.42992" lon="1.16788">
        <ele>40</ele>
        <time>2017-11-14T14:43:07Z</time>
      </trkpt>
      <trkpt lat="49.42994" lon="1.16781">
        <ele>40</ele>
        <time>2017-11-14T14:43:23Z</time>
      </trkpt>
      <trkpt lat="49.42996" lon="1.16774">
        <ele>40</ele>
        <time>2017-11-14T14:43:23Z</time>
      </trkpt>
      <trkpt lat="49.42998" lon="1.16768">
        <ele>40</ele>
        <time>2017-11-14T14:43:23Z</time>
      </trkpt>
      <trkpt lat="49.42998" lon="1.16761">
        <ele>40</ele>
        <time>2017-11-14T14:43:23Z</time>
      </trkpt>
      <trkpt lat="49.43" lon="1.16754">
        <ele>40</ele>
        <time>2017-11-14T14:43:39Z</time>
      </trkpt>
      <trkpt lat="49.43001" lon="1.16747">
        <ele>40</ele>
        <time>2017-11-14T14:43:39Z</time>
      </trkpt>
      <trkpt lat="49.43002" lon="1.1674">
        <ele>40</ele>
        <time>2017-11-14T14:43:39Z</time>
      </trkpt>
      <trkpt lat="49.43007" lon="1.16741">
        <ele>40</ele>
        <time>2017-11-14T14:43:39Z</time>
      </trkpt>
      <trkpt lat="49.43012" lon="1.16742">
        <ele>40</ele>
        <time>2017-11-14T14:43:55Z</time>
      </trkpt>
      <trkpt lat="49.43018" lon="1.16742">
        <ele>40</ele>
        <time>2017-11-14T14:43:55Z</time>
      </trkpt>
      <trkpt lat="49.43023" lon="1.16743">
        <ele>40</ele>
        <time>2017-11-14T14:43:55Z</time>
      </trkpt>
      <trkpt lat="49.43028" lon="1.16746">
        <ele>40</ele>
        <time>2017-11-14T14:43:55Z</time>
      </trkpt>
      <trkpt lat="49.43031" lon="1.16752">
        <ele>40</ele>
        <time>2017-11-14T14:44:11Z</time>
      </trkpt>
      <trkpt lat="49.43034" lon="1.16758">
        <ele>40</ele>
        <time>2017-11-14T14:44:11Z</time>
      </trkpt>
      <trkpt lat="49.43036" lon="1.16765">
        <ele>40</ele>
        <time>2017-11-14T14:44:11Z</time>
      </trkpt>
      <trkpt lat="49.43037" lon="1.16772">
        <ele>40</ele>
        <time>2017-11-14T14:44:11Z</time>
      </trkpt>
      <trkpt lat="49.43039" lon="1.16778">
        <ele>40</ele>
        <time>2017-11-14T14:44:27Z</time>
      </trkpt>
      <trkpt lat="49.43041" lon="1.16785">
        <ele>40</ele>
        <time>2017-11-14T14:44:27Z</time>
      </trkpt>
      <trkpt lat="49.43042" lon="1.16792">
        <ele>32</ele>
        <time>2017-11-14T14:44:27Z</time>
      </trkpt>
      <trkpt lat="49.43044" lon="1.16798">
        <ele>35</ele>
        <time>2017-11-14T14:44:27Z</time>
      </trkpt>
      <trkpt lat="49.43045" lon="1.16804">
        <ele>35</ele>
        <time>2017-11-14T14:44:43Z</time>
      </trkpt>
      <trkpt lat="49.43046" lon="1.16811">
        <ele>35</ele>
        <time>2017-11-14T14:44:43Z</time>
      </trkpt>
      <trkpt lat="49.43048" lon="1.16818">
        <ele>35</ele>
        <time>2017-11-14T14:44:43Z</time>
      </trkpt>
      <trkpt lat="49.43049" lon="1.16825">
        <ele>35</ele>
        <time>2017-11-14T14:44:43Z</time>
      </trkpt>
      <trkpt lat="49.4305" lon="1.16832">
        <ele>35</ele>
        <time>2017-11-14T14:44:59Z</time>
      </trkpt>
      <trkpt lat="49.43052" lon="1.16839">
        <ele>35</ele>
        <time>2017-11-14T14:44:59Z</time>
      </trkpt>
      <trkpt lat="49.43053" lon="1.16846">
        <ele>35</ele>
        <time>2017-11-14T14:44:59Z</time>
      </trkpt>
      <trkpt lat="49.43054" lon="1.16853">
        <ele>35</ele>
        <time>2017-11-14T14:44:59Z</time>
      </trkpt>
      <trkpt lat="49.43054" lon="1.1686">
        <ele>35</ele>
        <time>2017-11-14T14:45:15Z</time>
      </trkpt>
      <trkpt lat="49.43055" lon="1.16867">
        <ele>35</ele>
        <time>2017-11-14T14:45:15Z</time>
      </trkpt>
      <trkpt lat="49.43057" lon="1.16873">
        <ele>35</ele>
        <time>2017-11-14T14:45:15Z</time>
      </trkpt>
      <trkpt lat="49.4306" lon="1.1688">
        <ele>37</ele>
        <time>2017-11-14T14:45:15Z</time>
      </trkpt>
      <trkpt lat="49.43065" lon="1.16885">
        <ele>37</ele>
        <time>2017-11-14T14:45:31Z</time>
      </trkpt>
      <trkpt lat="49.43069" lon="1.1689">
        <ele>37</ele>
        <time>2017-11-14T14:45:31Z</time>
      </trkpt>
      <trkpt lat="49.43074" lon="1.16892">
        <ele>37</ele>
        <time>2017-11-14T14:45:31Z</time>
      </trkpt>
      <trkpt lat="49.43078" lon="1.16892">
        <ele>37</ele>
        <time>2017-11-14T14:45:31Z</time>
      </trkpt>
      <trkpt lat="49.43083" lon="1.16891">
        <ele>37</ele>
        <time>2017-11-14T14:45:47Z</time>
      </trkpt>
      <trkpt lat="49.43087" lon="1.1689">
        <ele>37</ele>
        <time>2017-11-14T14:45:47Z</time>
      </trkpt>
      <trkpt lat="49.43092" lon="1.16889">
        <ele>37</ele>
        <time>2017-11-14T14:45:47Z</time>
      </trkpt>
      <trkpt lat="49.43097" lon="1.16888">
        <ele>37</ele>
        <time>2017-11-14T14:45:47Z</time>
      </trkpt>
      <trkpt lat="49.43102" lon="1.16888">
        <ele>37</ele>
        <time>2017-11-14T14:46:03Z</time>
      </trkpt>
      <trkpt lat="49.43106" lon="1.16887">
        <ele>37</ele>
        <time>2017-11-14T14:46:03Z</time>
      </trkpt>
      <trkpt lat="49.43111" lon="1.16886">
        <ele>37</ele>
        <time>2017-11-14T14:46:03Z</time>
      </trkpt>
      <trkpt lat="49.43115" lon="1.16885">
        <ele>37</ele>
        <time>2017-11-14T14:46:03Z</time>
      </trkpt>
      <trkpt lat="49.43119" lon="1.16887">
        <ele>37</ele>
        <time>2017-11-14T14:46:19Z</time>
      </trkpt>
      <trkpt lat="49.43124" lon="1.16887">
        <ele>37</ele>
        <time>2017-11-14T14:46:19Z</time>
      </trkpt>
      <trkpt lat="49.43129" lon="1.16885">
        <ele>32</ele>
        <time>2017-11-14T14:46:19Z</time>
      </trkpt>
      <trkpt lat="49.43133" lon="1.16885">
        <ele>32</ele>
        <time>2017-11-14T14:46:19Z</time>
      </trkpt>
      <trkpt lat="49.43139" lon="1.16884">
        <ele>32</ele>
        <time>2017-11-14T14:46:35Z</time>
      </trkpt>
      <trkpt lat="49.43144" lon="1.16884">
        <ele>32</ele>
        <time>2017-11-14T14:46:35Z</time>
      </trkpt>
      <trkpt lat="49.43149" lon="1.16884">
        <ele>32</ele>
        <time>2017-11-14T14:46:35Z</time>
      </trkpt>
      <trkpt lat="49.43155" lon="1.16884">
        <ele>32</ele>
        <time>2017-11-14T14:46:35Z</time>
      </trkpt>
      <trkpt lat="49.4316" lon="1.16885">
        <ele>32</ele>
        <time>2017-11-14T14:46:51Z</time>
      </trkpt>
      <trkpt lat="49.43165" lon="1.16885">
        <ele>32</ele>
        <time>2017-11-14T14:46:51Z</time>
      </trkpt>
      <trkpt lat="49.4317" lon="1.16885">
        <ele>32</ele>
        <time>2017-11-14T14:46:51Z</time>
      </trkpt>
      <trkpt lat="49.43175" lon="1.16885">
        <ele>32</ele>
        <time>2017-11-14T14:46:51Z</time>
      </trkpt>
      <trkpt lat="49.43179" lon="1.16885">
        <ele>32</ele>
        <time>2017-11-14T14:47:07Z</time>
      </trkpt>
      <trkpt lat="49.43184" lon="1.16884">
        <ele>32</ele>
        <time>2017-11-14T14:47:07Z</time>
      </trkpt>
      <trkpt lat="49.43189" lon="1.16883">
        <ele>32</ele>
        <time>2017-11-14T14:47:07Z</time>
      </trkpt>
      <trkpt lat="49.43194" lon="1.16885">
        <ele>32</ele>
        <time>2017-11-14T14:47:07Z</time>
      </trkpt>
      <trkpt lat="49.43199" lon="1.16884">
        <ele>32</ele>
        <time>2017-11-14T14:47:23Z</time>
      </trkpt>
      <trkpt lat="49.43204" lon="1.16884">
        <ele>32</ele>
        <time>2017-11-14T14:47:23Z</time>
      </trkpt>
      <trkpt lat="49.43209" lon="1.16884">
        <ele>35</ele>
        <time>2017-11-14T14:47:23Z</time>
      </trkpt>
      <trkpt lat="49.43214" lon="1.16884">
        <ele>35</ele>
        <time>2017-11-14T14:47:23Z</time>
      </trkpt>
      <trkpt lat="49.43219" lon="1.16883">
        <ele>35</ele>
        <time>2017-11-14T14:47:39Z</time>
      </trkpt>
      <trkpt lat="49.43225" lon="1.16883">
        <ele>35</ele>
        <time>2017-11-14T14:47:39Z</time>
      </trkpt>
      <trkpt lat="49.4323" lon="1.16883">
        <ele>35</ele>
        <time>2017-11-14T14:47:39Z</time>
      </trkpt>
      <trkpt lat="49.43234" lon="1.16882">
        <ele>35</ele>
        <time>2017-11-14T14:47:39Z</time>
      </trkpt>
      <trkpt lat="49.43239" lon="1.16882">
        <ele>35</ele>
        <time>2017-11-14T14:47:55Z</time>
      </trkpt>
      <trkpt lat="49.43243" lon="1.16881">
        <ele>35</ele>
        <time>2017-11-14T14:47:55Z</time>
      </trkpt>
      <trkpt lat="49.43248" lon="1.1688">
        <ele>35</ele>
        <time>2017-11-14T14:47:55Z</time>
      </trkpt>
      <trkpt lat="49.43253" lon="1.16879">
        <ele>35</ele>
        <time>2017-11-14T14:47:55Z</time>
      </trkpt>
      <trkpt lat="49.43258" lon="1.16879">
        <ele>35</ele>
        <time>2017-11-14T14:48:11Z</time>
      </trkpt>
      <trkpt lat="49.43263" lon="1.16878">
        <ele>35</ele>
        <time>2017-11-14T14:48:11Z</time>
      </trkpt>
      <trkpt lat="49.43267" lon="1.16877">
        <ele>35</ele>
        <time>2017-11-14T14:48:11Z</time>
      </trkpt>
      <trkpt lat="49.43272" lon="1.16876">
        <ele>35</ele>
        <time>2017-11-14T14:48:11Z</time>
      </trkpt>
      <trkpt lat="49.43276" lon="1.16875">
        <ele>34</ele>
        <time>2017-11-14T14:48:27Z</time>
      </trkpt>
      <trkpt lat="49.43281" lon="1.16874">
        <ele>34</ele>
        <time>2017-11-14T14:48:27Z</time>
      </trkpt>
      <trkpt lat="49.43285" lon="1.16874">
        <ele>34</ele>
        <time>2017-11-14T14:48:27Z</time>
      </trkpt>
      <trkpt lat="49.4329" lon="1.16873">
        <ele>34</ele>
        <time>2017-11-14T14:48:27Z</time>
      </trkpt>
      <trkpt lat="49.43293" lon="1.16871">
        <ele>48</ele>
        <time>2017-11-14T14:48:43Z</time>
      </trkpt>
      <trkpt lat="49.43297" lon="1.1687">
        <ele>48</ele>
        <time>2017-11-14T14:48:43Z</time>
      </trkpt>
      <trkpt lat="49.433" lon="1.16868">
        <ele>48</ele>
        <time>2017-11-14T14:48:43Z</time>
      </trkpt>
      <trkpt lat="49.43304" lon="1.16867">
        <ele>48</ele>
        <time>2017-11-14T14:48:43Z</time>
      </trkpt>
      <trkpt lat="49.43309" lon="1.16865">
        <ele>48</ele>
        <time>2017-11-14T14:48:59Z</time>
      </trkpt>
      <trkpt lat="49.43313" lon="1.16864">
        <ele>48</ele>
        <time>2017-11-14T14:48:59Z</time>
      </trkpt>
      <trkpt lat="49.43317" lon="1.1686">
        <ele>48</ele>
        <time>2017-11-14T14:48:59Z</time>
      </trkpt>
      <trkpt lat="49.43321" lon="1.16857">
        <ele>48</ele>
        <time>2017-11-14T14:48:59Z</time>
      </trkpt>
      <trkpt lat="49.43323" lon="1.16852">
        <ele>48</ele>
        <time>2017-11-14T14:49:15Z</time>
      </trkpt>
      <trkpt lat="49.43325" lon="1.16848">
        <ele>48</ele>
        <time>2017-11-14T14:49:15Z</time>
      </trkpt>
      <trkpt lat="49.43326" lon="1.16843">
        <ele>48</ele>
        <time>2017-11-14T14:49:15Z</time>
      </trkpt>
      <trkpt lat="49.43326" lon="1.16838">
        <ele>48</ele>
        <time>2017-11-14T14:49:15Z</time>
      </trkpt>
      <trkpt lat="49.43325" lon="1.16833">
        <ele>48</ele>
        <time>2017-11-14T14:49:31Z</time>
      </trkpt>
      <trkpt lat="49.43325" lon="1.16829">
        <ele>48</ele>
        <time>2017-11-14T14:49:31Z</time>
      </trkpt>
      <trkpt lat="49.43324" lon="1.16823">
        <ele>48</ele>
        <time>2017-11-14T14:49:31Z</time>
      </trkpt>
      <trkpt lat="49.43323" lon="1.16818">
        <ele>48</ele>
        <time>2017-11-14T14:49:31Z</time>
      </trkpt>
      <trkpt lat="49.43321" lon="1.16803">
        <ele>48</ele>
        <time>2017-11-14T14:50:03Z</time>
      </trkpt>
      <trkpt lat="49.43321" lon="1.16799">
        <ele>48</ele>
        <time>2017-11-14T14:50:03Z</time>
      </trkpt>
      <trkpt lat="49.4332" lon="1.16792">
        <ele>48</ele>
        <time>2017-11-14T14:50:03Z</time>
      </trkpt>
      <trkpt lat="49.4332" lon="1.16785">
        <ele>50</ele>
        <time>2017-11-14T14:50:03Z</time>
      </trkpt>
      <trkpt lat="49.43319" lon="1.16778">
        <ele>50</ele>
        <time>2017-11-14T14:50:03Z</time>
      </trkpt>
      <trkpt lat="49.43318" lon="1.16772">
        <ele>50</ele>
        <time>2017-11-14T14:50:19Z</time>
      </trkpt>
      <trkpt lat="49.43317" lon="1.16765">
        <ele>50</ele>
        <time>2017-11-14T14:50:19Z</time>
      </trkpt>
      <trkpt lat="49.43316" lon="1.16759">
        <ele>50</ele>
        <time>2017-11-14T14:50:19Z</time>
      </trkpt>
      <trkpt lat="49.43316" lon="1.16752">
        <ele>50</ele>
        <time>2017-11-14T14:50:19Z</time>
      </trkpt>
      <trkpt lat="49.43315" lon="1.16745">
        <ele>50</ele>
        <time>2017-11-14T14:50:35Z</time>
      </trkpt>
      <trkpt lat="49.43314" lon="1.16738">
        <ele>50</ele>
        <time>2017-11-14T14:50:35Z</time>
      </trkpt>
      <trkpt lat="49.43313" lon="1.16732">
        <ele>50</ele>
        <time>2017-11-14T14:50:35Z</time>
      </trkpt>
      <trkpt lat="49.43312" lon="1.16725">
        <ele>50</ele>
        <time>2017-11-14T14:50:35Z</time>
      </trkpt>
      <trkpt lat="49.4331" lon="1.16719">
        <ele>50</ele>
        <time>2017-11-14T14:50:51Z</time>
      </trkpt>
      <trkpt lat="49.43309" lon="1.16712">
        <ele>50</ele>
        <time>2017-11-14T14:50:51Z</time>
      </trkpt>
      <trkpt lat="49.43308" lon="1.16705">
        <ele>56</ele>
        <time>2017-11-14T14:50:51Z</time>
      </trkpt>
      <trkpt lat="49.43306" lon="1.16699">
        <ele>56</ele>
        <time>2017-11-14T14:50:51Z</time>
      </trkpt>
      <trkpt lat="49.43305" lon="1.16692">
        <ele>56</ele>
        <time>2017-11-14T14:51:07Z</time>
      </trkpt>
      <trkpt lat="49.43303" lon="1.16685">
        <ele>56</ele>
        <time>2017-11-14T14:51:07Z</time>
      </trkpt>
      <trkpt lat="49.43301" lon="1.16679">
        <ele>56</ele>
        <time>2017-11-14T14:51:07Z</time>
      </trkpt>
      <trkpt lat="49.43299" lon="1.16672">
        <ele>56</ele>
        <time>2017-11-14T14:51:07Z</time>
      </trkpt>
      <trkpt lat="49.43297" lon="1.16665">
        <ele>56</ele>
        <time>2017-11-14T14:51:23Z</time>
      </trkpt>
      <trkpt lat="49.43294" lon="1.16659">
        <ele>56</ele>
        <time>2017-11-14T14:51:23Z</time>
      </trkpt>
      <trkpt lat="49.43293" lon="1.16652">
        <ele>56</ele>
        <time>2017-11-14T14:51:23Z</time>
      </trkpt>
      <trkpt lat="49.43291" lon="1.16646">
        <ele>32</ele>
        <time>2017-11-14T14:51:23Z</time>
      </trkpt>
      <trkpt lat="49.43289" lon="1.1664">
        <ele>32</ele>
        <time>2017-11-14T14:51:39Z</time>
      </trkpt>
      <trkpt lat="49.43287" lon="1.16634">
        <ele>32</ele>
        <time>2017-11-14T14:51:39Z</time>
      </trkpt>
      <trkpt lat="49.43285" lon="1.16628">
        <ele>32</ele>
        <time>2017-11-14T14:51:39Z</time>
      </trkpt>
      <trkpt lat="49.43284" lon="1.16622">
        <ele>33</ele>
        <time>2017-11-14T14:51:39Z</time>
      </trkpt>
      <trkpt lat="49.43283" lon="1.16615">
        <ele>33</ele>
        <time>2017-11-14T14:51:55Z</time>
      </trkpt>
      <trkpt lat="49.43282" lon="1.16608">
        <ele>33</ele>
        <time>2017-11-14T14:51:55Z</time>
      </trkpt>
      <trkpt lat="49.43281" lon="1.16601">
        <ele>33</ele>
        <time>2017-11-14T14:51:55Z</time>
      </trkpt>
      <trkpt lat="49.43281" lon="1.16593">
        <ele>33</ele>
        <time>2017-11-14T14:51:55Z</time>
      </trkpt>
      <trkpt lat="49.43281" lon="1.16586">
        <ele>33</ele>
        <time>2017-11-14T14:52:11Z</time>
      </trkpt>
      <trkpt lat="49.4328" lon="1.16579">
        <ele>33</ele>
        <time>2017-11-14T14:52:11Z</time>
      </trkpt>
      <trkpt lat="49.4328" lon="1.16572">
        <ele>33</ele>
        <time>2017-11-14T14:52:11Z</time>
      </trkpt>
      <trkpt lat="49.4328" lon="1.16564">
        <ele>33</ele>
        <time>2017-11-14T14:52:11Z</time>
      </trkpt>
      <trkpt lat="49.43281" lon="1.16557">
        <ele>33</ele>
        <time>2017-11-14T14:52:27Z</time>
      </trkpt>
      <trkpt lat="49.43282" lon="1.1655">
        <ele>33</ele>
        <time>2017-11-14T14:52:27Z</time>
      </trkpt>
      <trkpt lat="49.43283" lon="1.16543">
        <ele>33</ele>
        <time>2017-11-14T14:52:27Z</time>
      </trkpt>
      <trkpt lat="49.43285" lon="1.16536">
        <ele>33</ele>
        <time>2017-11-14T14:52:27Z</time>
      </trkpt>
      <trkpt lat="49.43286" lon="1.16528">
        <ele>33</ele>
        <time>2017-11-14T14:52:43Z</time>
      </trkpt>
      <trkpt lat="49.43289" lon="1.16522">
        <ele>33</ele>
        <time>2017-11-14T14:52:43Z</time>
      </trkpt>
      <trkpt lat="49.43291" lon="1.16516">
        <ele>33</ele>
        <time>2017-11-14T14:52:43Z</time>
      </trkpt>
      <trkpt lat="49.43294" lon="1.1651">
        <ele>50</ele>
        <time>2017-11-14T14:52:43Z</time>
      </trkpt>
      <trkpt lat="49.43296" lon="1.16504">
        <ele>50</ele>
        <time>2017-11-14T14:52:59Z</time>
      </trkpt>
      <trkpt lat="49.433" lon="1.165">
        <ele>50</ele>
        <time>2017-11-14T14:52:59Z</time>
      </trkpt>
      <trkpt lat="49.43303" lon="1.16495">
        <ele>50</ele>
        <time>2017-11-14T14:52:59Z</time>
      </trkpt>
      <trkpt lat="49.43306" lon="1.1649">
        <ele>50</ele>
        <time>2017-11-14T14:52:59Z</time>
      </trkpt>
      <trkpt lat="49.43308" lon="1.16483">
        <ele>50</ele>
        <time>2017-11-14T14:53:15Z</time>
      </trkpt>
      <trkpt lat="49.4331" lon="1.16477">
        <ele>50</ele>
        <time>2017-11-14T14:53:15Z</time>
      </trkpt>
      <trkpt lat="49.43312" lon="1.16471">
        <ele>50</ele>
        <time>2017-11-14T14:53:15Z</time>
      </trkpt>
      <trkpt lat="49.43314" lon="1.16464">
        <ele>50</ele>
        <time>2017-11-14T14:53:15Z</time>
      </trkpt>
      <trkpt lat="49.43316" lon="1.16458">
        <ele>47</ele>
        <time>2017-11-14T14:53:31Z</time>
      </trkpt>
      <trkpt lat="49.43318" lon="1.16452">
        <ele>47</ele>
        <time>2017-11-14T14:53:31Z</time>
      </trkpt>
      <trkpt lat="49.4332" lon="1.16446">
        <ele>47</ele>
        <time>2017-11-14T14:53:31Z</time>
      </trkpt>
      <trkpt lat="49.43322" lon="1.1644">
        <ele>47</ele>
        <time>2017-11-14T14:53:31Z</time>
      </trkpt>
      <trkpt lat="49.43323" lon="1.16433">
        <ele>47</ele>
        <time>2017-11-14T14:53:47Z</time>
      </trkpt>
      <trkpt lat="49.43324" lon="1.16426">
        <ele>47</ele>
        <time>2017-11-14T14:53:47Z</time>
      </trkpt>
      <trkpt lat="49.43326" lon="1.16419">
        <ele>47</ele>
        <time>2017-11-14T14:53:47Z</time>
      </trkpt>
      <trkpt lat="49.43326" lon="1.16411">
        <ele>47</ele>
        <time>2017-11-14T14:53:47Z</time>
      </trkpt>
      <trkpt lat="49.43327" lon="1.16404">
        <ele>47</ele>
        <time>2017-11-14T14:54:03Z</time>
      </trkpt>
      <trkpt lat="49.43327" lon="1.16396">
        <ele>47</ele>
        <time>2017-11-14T14:54:03Z</time>
      </trkpt>
      <trkpt lat="49.43327" lon="1.16389">
        <ele>47</ele>
        <time>2017-11-14T14:54:03Z</time>
      </trkpt>
      <trkpt lat="49.43327" lon="1.16382">
        <ele>47</ele>
        <time>2017-11-14T14:54:03Z</time>
      </trkpt>
      <trkpt lat="49.43328" lon="1.16375">
        <ele>45</ele>
        <time>2017-11-14T14:54:19Z</time>
      </trkpt>
      <trkpt lat="49.43329" lon="1.16368">
        <ele>45</ele>
        <time>2017-11-14T14:54:19Z</time>
      </trkpt>
      <trkpt lat="49.4333" lon="1.16361">
        <ele>45</ele>
        <time>2017-11-14T14:54:19Z</time>
      </trkpt>
      <trkpt lat="49.43331" lon="1.16353">
        <ele>45</ele>
        <time>2017-11-14T14:54:19Z</time>
      </trkpt>
      <trkpt lat="49.43331" lon="1.16345">
        <ele>45</ele>
        <time>2017-11-14T14:54:35Z</time>
      </trkpt>
      <trkpt lat="49.43332" lon="1.16338">
        <ele>45</ele>
        <time>2017-11-14T14:54:35Z</time>
      </trkpt>
      <trkpt lat="49.43332" lon="1.1633">
        <ele>45</ele>
        <time>2017-11-14T14:54:35Z</time>
      </trkpt>
      <trkpt lat="49.43332" lon="1.16323">
        <ele>45</ele>
        <time>2017-11-14T14:54:35Z</time>
      </trkpt>
      <trkpt lat="49.43332" lon="1.16316">
        <ele>45</ele>
        <time>2017-11-14T14:54:51Z</time>
      </trkpt>
      <trkpt lat="49.43332" lon="1.1631">
        <ele>45</ele>
        <time>2017-11-14T14:54:51Z</time>
      </trkpt>
      <trkpt lat="49.43331" lon="1.16304">
        <ele>45</ele>
        <time>2017-11-14T14:54:51Z</time>
      </trkpt>
      <trkpt lat="49.43329" lon="1.16298">
        <ele>45</ele>
        <time>2017-11-14T14:54:51Z</time>
      </trkpt>
      <trkpt lat="49.43328" lon="1.16292">
        <ele>45</ele>
        <time>2017-11-14T14:55:07Z</time>
      </trkpt>
      <trkpt lat="49.43327" lon="1.16285">
        <ele>47</ele>
        <time>2017-11-14T14:55:07Z</time>
      </trkpt>
      <trkpt lat="49.43327" lon="1.16278">
        <ele>47</ele>
        <time>2017-11-14T14:55:07Z</time>
      </trkpt>
      <trkpt lat="49.43327" lon="1.1627">
        <ele>47</ele>
        <time>2017-11-14T14:55:07Z</time>
      </trkpt>
      <trkpt lat="49.43327" lon="1.16263">
        <ele>47</ele>
        <time>2017-11-14T14:55:23Z</time>
      </trkpt>
      <trkpt lat="49.43326" lon="1.16256">
        <ele>47</ele>
        <time>2017-11-14T14:55:23Z</time>
      </trkpt>
      <trkpt lat="49.43327" lon="1.16249">
        <ele>47</ele>
        <time>2017-11-14T14:55:23Z</time>
      </trkpt>
      <trkpt lat="49.43327" lon="1.16242">
        <ele>47</ele>
        <time>2017-11-14T14:55:23Z</time>
      </trkpt>
      <trkpt lat="49.43327" lon="1.16235">
        <ele>47</ele>
        <time>2017-11-14T14:55:39Z</time>
      </trkpt>
      <trkpt lat="49.43326" lon="1.16227">
        <ele>47</ele>
        <time>2017-11-14T14:55:39Z</time>
      </trkpt>
      <trkpt lat="49.43326" lon="1.1622">
        <ele>47</ele>
        <time>2017-11-14T14:55:39Z</time>
      </trkpt>
      <trkpt lat="49.43325" lon="1.16212">
        <ele>47</ele>
        <time>2017-11-14T14:55:39Z</time>
      </trkpt>
      <trkpt lat="49.43325" lon="1.16205">
        <ele>47</ele>
        <time>2017-11-14T14:55:55Z</time>
      </trkpt>
      <trkpt lat="49.43324" lon="1.16197">
        <ele>47</ele>
        <time>2017-11-14T14:55:55Z</time>
      </trkpt>
      <trkpt lat="49.43324" lon="1.1619">
        <ele>47</ele>
        <time>2017-11-14T14:55:55Z</time>
      </trkpt>
      <trkpt lat="49.43323" lon="1.16183">
        <ele>47</ele>
        <time>2017-11-14T14:55:55Z</time>
      </trkpt>
      <trkpt lat="49.43322" lon="1.16175">
        <ele>47</ele>
        <time>2017-11-14T14:56:11Z</time>
      </trkpt>
      <trkpt lat="49.43321" lon="1.16168">
        <ele>47</ele>
        <time>2017-11-14T14:56:11Z</time>
      </trkpt>
      <trkpt lat="49.4332" lon="1.1616">
        <ele>47</ele>
        <time>2017-11-14T14:56:11Z</time>
      </trkpt>
      <trkpt lat="49.4332" lon="1.16153">
        <ele>47</ele>
        <time>2017-11-14T14:56:11Z</time>
      </trkpt>
      <trkpt lat="49.43318" lon="1.16146">
        <ele>47</ele>
        <time>2017-11-14T14:56:27Z</time>
      </trkpt>
      <trkpt lat="49.43316" lon="1.16139">
        <ele>47</ele>
        <time>2017-11-14T14:56:27Z</time>
      </trkpt>
      <trkpt lat="49.43314" lon="1.16132">
        <ele>47</ele>
        <time>2017-11-14T14:56:27Z</time>
      </trkpt>
      <trkpt lat="49.43313" lon="1.16125">
        <ele>50</ele>
        <time>2017-11-14T14:56:27Z</time>
      </trkpt>
      <trkpt lat="49.43311" lon="1.16119">
        <ele>50</ele>
        <time>2017-11-14T14:56:43Z</time>
      </trkpt>
      <trkpt lat="49.43309" lon="1.16112">
        <ele>50</ele>
        <time>2017-11-14T14:56:43Z</time>
      </trkpt>
      <trkpt lat="49.43307" lon="1.16105">
        <ele>50</ele>
        <time>2017-11-14T14:56:43Z</time>
      </trkpt>
      <trkpt lat="49.43305" lon="1.16099">
        <ele>50</ele>
        <time>2017-11-14T14:56:43Z</time>
      </trkpt>
      <trkpt lat="49.43303" lon="1.16092">
        <ele>50</ele>
        <time>2017-11-14T14:56:59Z</time>
      </trkpt>
      <trkpt lat="49.43301" lon="1.16085">
        <ele>50</ele>
        <time>2017-11-14T14:56:59Z</time>
      </trkpt>
      <trkpt lat="49.433" lon="1.16078">
        <ele>50</ele>
        <time>2017-11-14T14:56:59Z</time>
      </trkpt>
      <trkpt lat="49.43298" lon="1.1607">
        <ele>50</ele>
        <time>2017-11-14T14:56:59Z</time>
      </trkpt>
      <trkpt lat="49.43297" lon="1.16063">
        <ele>50</ele>
        <time>2017-11-14T14:57:15Z</time>
      </trkpt>
      <trkpt lat="49.43295" lon="1.16056">
        <ele>50</ele>
        <time>2017-11-14T14:57:15Z</time>
      </trkpt>
      <trkpt lat="49.43294" lon="1.16049">
        <ele>50</ele>
        <time>2017-11-14T14:57:15Z</time>
      </trkpt>
      <trkpt lat="49.43294" lon="1.16042">
        <ele>50</ele>
        <time>2017-11-14T14:57:15Z</time>
      </trkpt>
      <trkpt lat="49.43294" lon="1.16034">
        <ele>45</ele>
        <time>2017-11-14T14:57:31Z</time>
      </trkpt>
      <trkpt lat="49.43293" lon="1.16027">
        <ele>45</ele>
        <time>2017-11-14T14:57:31Z</time>
      </trkpt>
      <trkpt lat="49.43293" lon="1.16019">
        <ele>45</ele>
        <time>2017-11-14T14:57:31Z</time>
      </trkpt>
      <trkpt lat="49.43293" lon="1.16012">
        <ele>45</ele>
        <time>2017-11-14T14:57:31Z</time>
      </trkpt>
      <trkpt lat="49.43293" lon="1.16005">
        <ele>45</ele>
        <time>2017-11-14T14:57:47Z</time>
      </trkpt>
      <trkpt lat="49.43294" lon="1.15997">
        <ele>45</ele>
        <time>2017-11-14T14:57:47Z</time>
      </trkpt>
      <trkpt lat="49.43296" lon="1.15989">
        <ele>45</ele>
        <time>2017-11-14T14:57:47Z</time>
      </trkpt>
      <trkpt lat="49.43297" lon="1.15982">
        <ele>45</ele>
        <time>2017-11-14T14:57:47Z</time>
      </trkpt>
      <trkpt lat="49.43299" lon="1.15975">
        <ele>45</ele>
        <time>2017-11-14T14:58:03Z</time>
      </trkpt>
      <trkpt lat="49.43301" lon="1.15968">
        <ele>45</ele>
        <time>2017-11-14T14:58:03Z</time>
      </trkpt>
      <trkpt lat="49.43304" lon="1.15961">
        <ele>45</ele>
        <time>2017-11-14T14:58:03Z</time>
      </trkpt>
      <trkpt lat="49.43306" lon="1.15955">
        <ele>36</ele>
        <time>2017-11-14T14:58:03Z</time>
      </trkpt>
      <trkpt lat="49.43309" lon="1.15948">
        <ele>36</ele>
        <time>2017-11-14T14:58:19Z</time>
      </trkpt>
      <trkpt lat="49.43312" lon="1.15942">
        <ele>36</ele>
        <time>2017-11-14T14:58:19Z</time>
      </trkpt>
      <trkpt lat="49.43315" lon="1.15938">
        <ele>36</ele>
        <time>2017-11-14T14:58:19Z</time>
      </trkpt>
      <trkpt lat="49.43319" lon="1.15933">
        <ele>36</ele>
        <time>2017-11-14T14:58:19Z</time>
      </trkpt>
      <trkpt lat="49.43323" lon="1.15929">
        <ele>36</ele>
        <time>2017-11-14T14:58:35Z</time>
      </trkpt>
      <trkpt lat="49.43327" lon="1.15923">
        <ele>36</ele>
        <time>2017-11-14T14:58:35Z</time>
      </trkpt>
      <trkpt lat="49.4333" lon="1.15918">
        <ele>36</ele>
        <time>2017-11-14T14:58:35Z</time>
      </trkpt>
      <trkpt lat="49.43334" lon="1.15913">
        <ele>36</ele>
        <time>2017-11-14T14:58:35Z</time>
      </trkpt>
      <trkpt lat="49.43338" lon="1.15909">
        <ele>36</ele>
        <time>2017-11-14T14:58:51Z</time>
      </trkpt>
      <trkpt lat="49.43342" lon="1.15904">
        <ele>36</ele>
        <time>2017-11-14T14:58:51Z</time>
      </trkpt>
      <trkpt lat="49.43346" lon="1.159">
        <ele>36</ele>
        <time>2017-11-14T14:58:51Z</time>
      </trkpt>
      <trkpt lat="49.4335" lon="1.15896">
        <ele>36</ele>
        <time>2017-11-14T14:58:51Z</time>
      </trkpt>
      <trkpt lat="49.43353" lon="1.1589">
        <ele>36</ele>
        <time>2017-11-14T14:59:07Z</time>
      </trkpt>
      <trkpt lat="49.43356" lon="1.15884">
        <ele>36</ele>
        <time>2017-11-14T14:59:07Z</time>
      </trkpt>
      <trkpt lat="49.43358" lon="1.15878">
        <ele>36</ele>
        <time>2017-11-14T14:59:07Z</time>
      </trkpt>
      <trkpt lat="49.4336" lon="1.15872">
        <ele>30</ele>
        <time>2017-11-14T14:59:07Z</time>
      </trkpt>
      <trkpt lat="49.43363" lon="1.15866">
        <ele>30</ele>
        <time>2017-11-14T14:59:23Z</time>
      </trkpt>
      <trkpt lat="49.43365" lon="1.15859">
        <ele>30</ele>
        <time>2017-11-14T14:59:23Z</time>
      </trkpt>
      <trkpt lat="49.43368" lon="1.15853">
        <ele>30</ele>
        <time>2017-11-14T14:59:23Z</time>
      </trkpt>
      <trkpt lat="49.43371" lon="1.15847">
        <ele>30</ele>
        <time>2017-11-14T14:59:23Z</time>
      </trkpt>
      <trkpt lat="49.43373" lon="1.1584">
        <ele>30</ele>
        <time>2017-11-14T14:59:39Z</time>
      </trkpt>
      <trkpt lat="49.43375" lon="1.15832">
        <ele>30</ele>
        <time>2017-11-14T14:59:39Z</time>
      </trkpt>
      <trkpt lat="49.43376" lon="1.15826">
        <ele>60</ele>
        <time>2017-11-14T14:59:39Z</time>
      </trkpt>
      <trkpt lat="49.43375" lon="1.15819">
        <ele>60</ele>
        <time>2017-11-14T14:59:39Z</time>
      </trkpt>
      <trkpt lat="49.43374" lon="1.15813">
        <ele>30</ele>
        <time>2017-11-14T14:59:55Z</time>
      </trkpt>
      <trkpt lat="49.43374" lon="1.15807">
        <ele>30</ele>
        <time>2017-11-14T14:59:55Z</time>
      </trkpt>
      <trkpt lat="49.43378" lon="1.15802">
        <ele>60</ele>
        <time>2017-11-14T14:59:55Z</time>
      </trkpt>
      <trkpt lat="49.43382" lon="1.15797">
        <ele>60</ele>
        <time>2017-11-14T14:59:55Z</time>
      </trkpt>
      <trkpt lat="49.43386" lon="1.15793">
        <ele>60</ele>
        <time>2017-11-14T15:00:11Z</time>
      </trkpt>
      <trkpt lat="49.43391" lon="1.15789">
        <ele>45</ele>
        <time>2017-11-14T15:00:11Z</time>
      </trkpt>
      <trkpt lat="49.43392" lon="1.15781">
        <ele>45</ele>
        <time>2017-11-14T15:00:11Z</time>
      </trkpt>
      <trkpt lat="49.43392" lon="1.15774">
        <ele>45</ele>
        <time>2017-11-14T15:00:11Z</time>
      </trkpt>
      <trkpt lat="49.43393" lon="1.15766">
        <ele>45</ele>
        <time>2017-11-14T15:00:27Z</time>
      </trkpt>
      <trkpt lat="49.43394" lon="1.15758">
        <ele>45</ele>
        <time>2017-11-14T15:00:27Z</time>
      </trkpt>
      <trkpt lat="49.43395" lon="1.15751">
        <ele>45</ele>
        <time>2017-11-14T15:00:27Z</time>
      </trkpt>
      <trkpt lat="49.43395" lon="1.15743">
        <ele>45</ele>
        <time>2017-11-14T15:00:27Z</time>
      </trkpt>
      <trkpt lat="49.43396" lon="1.15736">
        <ele>45</ele>
        <time>2017-11-14T15:00:43Z</time>
      </trkpt>
      <trkpt lat="49.43398" lon="1.15729">
        <ele>45</ele>
        <time>2017-11-14T15:00:43Z</time>
      </trkpt>
      <trkpt lat="49.43399" lon="1.15721">
        <ele>45</ele>
        <time>2017-11-14T15:00:43Z</time>
      </trkpt>
      <trkpt lat="49.434" lon="1.15714">
        <ele>45</ele>
        <time>2017-11-14T15:00:43Z</time>
      </trkpt>
      <trkpt lat="49.43401" lon="1.15706">
        <ele>37</ele>
        <time>2017-11-14T15:00:59Z</time>
      </trkpt>
      <trkpt lat="49.43402" lon="1.15699">
        <ele>37</ele>
        <time>2017-11-14T15:00:59Z</time>
      </trkpt>
      <trkpt lat="49.43402" lon="1.15692">
        <ele>37</ele>
        <time>2017-11-14T15:00:59Z</time>
      </trkpt>
      <trkpt lat="49.43403" lon="1.15685">
        <ele>37</ele>
        <time>2017-11-14T15:00:59Z</time>
      </trkpt>
      <trkpt lat="49.43404" lon="1.15678">
        <ele>37</ele>
        <time>2017-11-14T15:01:15Z</time>
      </trkpt>
      <trkpt lat="49.43405" lon="1.15671">
        <ele>37</ele>
        <time>2017-11-14T15:01:15Z</time>
      </trkpt>
      <trkpt lat="49.43405" lon="1.15663">
        <ele>37</ele>
        <time>2017-11-14T15:01:15Z</time>
      </trkpt>
      <trkpt lat="49.43405" lon="1.15656">
        <ele>37</ele>
        <time>2017-11-14T15:01:15Z</time>
      </trkpt>
      <trkpt lat="49.43406" lon="1.15649">
        <ele>37</ele>
        <time>2017-11-14T15:01:31Z</time>
      </trkpt>
      <trkpt lat="49.43407" lon="1.15642">
        <ele>37</ele>
        <time>2017-11-14T15:01:31Z</time>
      </trkpt>
      <trkpt lat="49.43408" lon="1.15635">
        <ele>37</ele>
        <time>2017-11-14T15:01:31Z</time>
      </trkpt>
      <trkpt lat="49.43409" lon="1.15628">
        <ele>37</ele>
        <time>2017-11-14T15:01:31Z</time>
      </trkpt>
      <trkpt lat="49.4341" lon="1.1562">
        <ele>32</ele>
        <time>2017-11-14T15:01:47Z</time>
      </trkpt>
      <trkpt lat="49.43411" lon="1.15613">
        <ele>32</ele>
        <time>2017-11-14T15:01:47Z</time>
      </trkpt>
      <trkpt lat="49.43411" lon="1.15605">
        <ele>32</ele>
        <time>2017-11-14T15:01:47Z</time>
      </trkpt>
      <trkpt lat="49.43411" lon="1.15598">
        <ele>32</ele>
        <time>2017-11-14T15:01:47Z</time>
      </trkpt>
      <trkpt lat="49.43412" lon="1.15591">
        <ele>32</ele>
        <time>2017-11-14T15:02:03Z</time>
      </trkpt>
      <trkpt lat="49.43412" lon="1.15584">
        <ele>32</ele>
        <time>2017-11-14T15:02:03Z</time>
      </trkpt>
      <trkpt lat="49.43414" lon="1.15577">
        <ele>32</ele>
        <time>2017-11-14T15:02:03Z</time>
      </trkpt>
      <trkpt lat="49.43414" lon="1.1557">
        <ele>32</ele>
        <time>2017-11-14T15:02:03Z</time>
      </trkpt>
      <trkpt lat="49.43416" lon="1.15563">
        <ele>32</ele>
        <time>2017-11-14T15:02:19Z</time>
      </trkpt>
      <trkpt lat="49.43418" lon="1.15557">
        <ele>32</ele>
        <time>2017-11-14T15:02:19Z</time>
      </trkpt>
      <trkpt lat="49.4342" lon="1.15551">
        <ele>32</ele>
        <time>2017-11-14T15:02:19Z</time>
      </trkpt>
      <trkpt lat="49.43422" lon="1.15546">
        <ele>32</ele>
        <time>2017-11-14T15:02:19Z</time>
      </trkpt>
      <trkpt lat="49.43425" lon="1.15543">
        <ele>32</ele>
        <time>2017-11-14T15:02:35Z</time>
      </trkpt>
      <trkpt lat="49.43427" lon="1.15539">
        <ele>28</ele>
        <time>2017-11-14T15:02:35Z</time>
      </trkpt>
      <trkpt lat="49.43429" lon="1.15534">
        <ele>28</ele>
        <time>2017-11-14T15:02:35Z</time>
      </trkpt>
      <trkpt lat="49.43433" lon="1.1553">
        <ele>28</ele>
        <time>2017-11-14T15:02:35Z</time>
      </trkpt>
      <trkpt lat="49.43437" lon="1.15525">
        <ele>28</ele>
        <time>2017-11-14T15:03:03Z</time>
      </trkpt>
      <trkpt lat="49.43437" lon="1.15525">
        <ele>28</ele>
        <time>2017-11-14T15:03:03Z</time>
      </trkpt>
      <trkpt lat="49.43437" lon="1.15522">
        <ele>28</ele>
        <time>2017-11-14T15:03:03Z</time>
      </trkpt>
      <trkpt lat="49.4344" lon="1.15518">
        <ele>28</ele>
        <time>2017-11-14T15:03:03Z</time>
      </trkpt>
      <trkpt lat="49.43444" lon="1.15513">
        <ele>28</ele>
        <time>2017-11-14T15:03:03Z</time>
      </trkpt>
      <trkpt lat="49.43447" lon="1.1551">
        <ele>28</ele>
        <time>2017-11-14T15:03:19Z</time>
      </trkpt>
      <trkpt lat="49.4345" lon="1.15507">
        <ele>28</ele>
        <time>2017-11-14T15:03:19Z</time>
      </trkpt>
      <trkpt lat="49.43454" lon="1.15503">
        <ele>28</ele>
        <time>2017-11-14T15:03:19Z</time>
      </trkpt>
      <trkpt lat="49.43457" lon="1.15499">
        <ele>28</ele>
        <time>2017-11-14T15:03:19Z</time>
      </trkpt>
      <trkpt lat="49.43461" lon="1.15495">
        <ele>39</ele>
        <time>2017-11-14T15:03:35Z</time>
      </trkpt>
      <trkpt lat="49.43464" lon="1.1549">
        <ele>39</ele>
        <time>2017-11-14T15:03:35Z</time>
      </trkpt>
      <trkpt lat="49.43467" lon="1.15486">
        <ele>39</ele>
        <time>2017-11-14T15:03:35Z</time>
      </trkpt>
      <trkpt lat="49.43471" lon="1.15481">
        <ele>39</ele>
        <time>2017-11-14T15:03:35Z</time>
      </trkpt>
      <trkpt lat="49.43475" lon="1.15477">
        <ele>39</ele>
        <time>2017-11-14T15:03:51Z</time>
      </trkpt>
      <trkpt lat="49.43478" lon="1.15473">
        <ele>39</ele>
        <time>2017-11-14T15:03:51Z</time>
      </trkpt>
      <trkpt lat="49.43482" lon="1.15468">
        <ele>39</ele>
        <time>2017-11-14T15:03:51Z</time>
      </trkpt>
      <trkpt lat="49.43485" lon="1.15463">
        <ele>39</ele>
        <time>2017-11-14T15:03:51Z</time>
      </trkpt>
      <trkpt lat="49.43488" lon="1.15457">
        <ele>29</ele>
        <time>2017-11-14T15:04:07Z</time>
      </trkpt>
      <trkpt lat="49.43491" lon="1.15452">
        <ele>29</ele>
        <time>2017-11-14T15:04:07Z</time>
      </trkpt>
      <trkpt lat="49.43494" lon="1.15446">
        <ele>29</ele>
        <time>2017-11-14T15:04:07Z</time>
      </trkpt>
      <trkpt lat="49.43497" lon="1.15442">
        <ele>29</ele>
        <time>2017-11-14T15:04:07Z</time>
      </trkpt>
      <trkpt lat="49.43499" lon="1.15437">
        <ele>29</ele>
        <time>2017-11-14T15:04:23Z</time>
      </trkpt>
      <trkpt lat="49.43502" lon="1.15433">
        <ele>29</ele>
        <time>2017-11-14T15:04:23Z</time>
      </trkpt>
      <trkpt lat="49.43504" lon="1.15428">
        <ele>29</ele>
        <time>2017-11-14T15:04:23Z</time>
      </trkpt>
      <trkpt lat="49.43507" lon="1.15423">
        <ele>29</ele>
        <time>2017-11-14T15:04:23Z</time>
      </trkpt>
      <trkpt lat="49.43511" lon="1.15416">
        <ele>29</ele>
        <time>2017-11-14T15:04:39Z</time>
      </trkpt>
      <trkpt lat="49.43515" lon="1.15409">
        <ele>29</ele>
        <time>2017-11-14T15:04:39Z</time>
      </trkpt>
      <trkpt lat="49.43518" lon="1.15403">
        <ele>29</ele>
        <time>2017-11-14T15:04:39Z</time>
      </trkpt>
      <trkpt lat="49.43522" lon="1.15397">
        <ele>29</ele>
        <time>2017-11-14T15:04:39Z</time>
      </trkpt>
      <trkpt lat="49.43526" lon="1.15391">
        <ele>29</ele>
        <time>2017-11-14T15:04:55Z</time>
      </trkpt>
      <trkpt lat="49.43529" lon="1.15385">
        <ele>29</ele>
        <time>2017-11-14T15:04:55Z</time>
      </trkpt>
      <trkpt lat="49.43532" lon="1.1538">
        <ele>29</ele>
        <time>2017-11-14T15:04:55Z</time>
      </trkpt>
      <trkpt lat="49.43532" lon="1.15372">
        <ele>26</ele>
        <time>2017-11-14T15:04:55Z</time>
      </trkpt>
      <trkpt lat="49.43533" lon="1.15364">
        <ele>26</ele>
        <time>2017-11-14T15:05:11Z</time>
      </trkpt>
      <trkpt lat="49.43539" lon="1.1536">
        <ele>26</ele>
        <time>2017-11-14T15:05:11Z</time>
      </trkpt>
      <trkpt lat="49.43545" lon="1.15359">
        <ele>33</ele>
        <time>2017-11-14T15:05:11Z</time>
      </trkpt>
      <trkpt lat="49.4355" lon="1.15357">
        <ele>33</ele>
        <time>2017-11-14T15:05:11Z</time>
      </trkpt>
      <trkpt lat="49.43555" lon="1.15355">
        <ele>33</ele>
        <time>2017-11-14T15:05:27Z</time>
      </trkpt>
      <trkpt lat="49.43559" lon="1.1535">
        <ele>33</ele>
        <time>2017-11-14T15:05:27Z</time>
      </trkpt>
      <trkpt lat="49.43563" lon="1.15346">
        <ele>33</ele>
        <time>2017-11-14T15:05:27Z</time>
      </trkpt>
      <trkpt lat="49.43567" lon="1.15343">
        <ele>33</ele>
        <time>2017-11-14T15:05:27Z</time>
      </trkpt>
      <trkpt lat="49.43571" lon="1.15339">
        <ele>33</ele>
        <time>2017-11-14T15:05:43Z</time>
      </trkpt>
      <trkpt lat="49.43575" lon="1.15335">
        <ele>33</ele>
        <time>2017-11-14T15:05:43Z</time>
      </trkpt>
      <trkpt lat="49.43579" lon="1.15332">
        <ele>33</ele>
        <time>2017-11-14T15:05:43Z</time>
      </trkpt>
      <trkpt lat="49.43583" lon="1.15329">
        <ele>33</ele>
        <time>2017-11-14T15:05:43Z</time>
      </trkpt>
      <trkpt lat="49.43588" lon="1.15326">
        <ele>33</ele>
        <time>2017-11-14T15:05:59Z</time>
      </trkpt>
      <trkpt lat="49.43592" lon="1.15323">
        <ele>33</ele>
        <time>2017-11-14T15:05:59Z</time>
      </trkpt>
      <trkpt lat="49.43596" lon="1.15319">
        <ele>33</ele>
        <time>2017-11-14T15:05:59Z</time>
      </trkpt>
      <trkpt lat="49.43599" lon="1.15316">
        <ele>33</ele>
        <time>2017-11-14T15:05:59Z</time>
      </trkpt>
      <trkpt lat="49.43603" lon="1.15312">
        <ele>33</ele>
        <time>2017-11-14T15:06:15Z</time>
      </trkpt>
      <trkpt lat="49.43607" lon="1.15309">
        <ele>33</ele>
        <time>2017-11-14T15:06:15Z</time>
      </trkpt>
      <trkpt lat="49.4361" lon="1.15305">
        <ele>33</ele>
        <time>2017-11-14T15:06:15Z</time>
      </trkpt>
      <trkpt lat="49.43611" lon="1.153">
        <ele>33</ele>
        <time>2017-11-14T15:06:15Z</time>
      </trkpt>
      <trkpt lat="49.4361" lon="1.15295">
        <ele>33</ele>
        <time>2017-11-14T15:06:51Z</time>
      </trkpt>
      <trkpt lat="49.43612" lon="1.15296">
        <ele>33</ele>
        <time>2017-11-14T15:06:51Z</time>
      </trkpt>
      <trkpt lat="49.43613" lon="1.15297">
        <ele>33</ele>
        <time>2017-11-14T15:06:51Z</time>
      </trkpt>
      <trkpt lat="49.43617" lon="1.15294">
        <ele>33</ele>
        <time>2017-11-14T15:06:51Z</time>
      </trkpt>
      <trkpt lat="49.43619" lon="1.1529">
        <ele>27</ele>
        <time>2017-11-14T15:06:51Z</time>
      </trkpt>
      <trkpt lat="49.43623" lon="1.15285">
        <ele>27</ele>
        <time>2017-11-14T15:07:07Z</time>
      </trkpt>
      <trkpt lat="49.43626" lon="1.15279">
        <ele>31</ele>
        <time>2017-11-14T15:07:07Z</time>
      </trkpt>
      <trkpt lat="49.43629" lon="1.15275">
        <ele>31</ele>
        <time>2017-11-14T15:07:07Z</time>
      </trkpt>
      <trkpt lat="49.43632" lon="1.15269">
        <ele>31</ele>
        <time>2017-11-14T15:07:07Z</time>
      </trkpt>
      <trkpt lat="49.43635" lon="1.15264">
        <ele>31</ele>
        <time>2017-11-14T15:07:23Z</time>
      </trkpt>
      <trkpt lat="49.43638" lon="1.15259">
        <ele>31</ele>
        <time>2017-11-14T15:07:23Z</time>
      </trkpt>
      <trkpt lat="49.43641" lon="1.15254">
        <ele>31</ele>
        <time>2017-11-14T15:07:23Z</time>
      </trkpt>
      <trkpt lat="49.43644" lon="1.15248">
        <ele>31</ele>
        <time>2017-11-14T15:07:23Z</time>
      </trkpt>
      <trkpt lat="49.43645" lon="1.15242">
        <ele>31</ele>
        <time>2017-11-14T15:07:39Z</time>
      </trkpt>
      <trkpt lat="49.43648" lon="1.15237">
        <ele>31</ele>
        <time>2017-11-14T15:07:39Z</time>
      </trkpt>
      <trkpt lat="49.43651" lon="1.15231">
        <ele>31</ele>
        <time>2017-11-14T15:07:39Z</time>
      </trkpt>
      <trkpt lat="49.43654" lon="1.15226">
        <ele>31</ele>
        <time>2017-11-14T15:07:39Z</time>
      </trkpt>
      <trkpt lat="49.43656" lon="1.15219">
        <ele>31</ele>
        <time>2017-11-14T15:07:55Z</time>
      </trkpt>
      <trkpt lat="49.4366" lon="1.15215">
        <ele>31</ele>
        <time>2017-11-14T15:07:55Z</time>
      </trkpt>
      <trkpt lat="49.43663" lon="1.15209">
        <ele>31</ele>
        <time>2017-11-14T15:07:55Z</time>
      </trkpt>
      <trkpt lat="49.43666" lon="1.15205">
        <ele>24</ele>
        <time>2017-11-14T15:07:55Z</time>
      </trkpt>
      <trkpt lat="49.43669" lon="1.152">
        <ele>24</ele>
        <time>2017-11-14T15:08:11Z</time>
      </trkpt>
      <trkpt lat="49.43672" lon="1.15194">
        <ele>24</ele>
        <time>2017-11-14T15:08:11Z</time>
      </trkpt>
      <trkpt lat="49.43675" lon="1.15188">
        <ele>24</ele>
        <time>2017-11-14T15:08:11Z</time>
      </trkpt>
      <trkpt lat="49.43678" lon="1.15183">
        <ele>24</ele>
        <time>2017-11-14T15:08:11Z</time>
      </trkpt>
      <trkpt lat="49.4368" lon="1.15178">
        <ele>24</ele>
        <time>2017-11-14T15:08:27Z</time>
      </trkpt>
      <trkpt lat="49.43682" lon="1.15173">
        <ele>24</ele>
        <time>2017-11-14T15:08:27Z</time>
      </trkpt>
      <trkpt lat="49.43684" lon="1.15167">
        <ele>24</ele>
        <time>2017-11-14T15:08:27Z</time>
      </trkpt>
      <trkpt lat="49.43687" lon="1.15161">
        <ele>24</ele>
        <time>2017-11-14T15:08:27Z</time>
      </trkpt>
      <trkpt lat="49.4369" lon="1.15156">
        <ele>24</ele>
        <time>2017-11-14T15:08:43Z</time>
      </trkpt>
      <trkpt lat="49.43693" lon="1.15151">
        <ele>24</ele>
        <time>2017-11-14T15:08:43Z</time>
      </trkpt>
      <trkpt lat="49.43697" lon="1.15145">
        <ele>24</ele>
        <time>2017-11-14T15:08:43Z</time>
      </trkpt>
      <trkpt lat="49.43701" lon="1.15139">
        <ele>24</ele>
        <time>2017-11-14T15:08:43Z</time>
      </trkpt>
      <trkpt lat="49.43704" lon="1.15133">
        <ele>24</ele>
        <time>2017-11-14T15:08:59Z</time>
      </trkpt>
      <trkpt lat="49.43708" lon="1.15127">
        <ele>24</ele>
        <time>2017-11-14T15:08:59Z</time>
      </trkpt>
      <trkpt lat="49.43711" lon="1.15121">
        <ele>25</ele>
        <time>2017-11-14T15:08:59Z</time>
      </trkpt>
      <trkpt lat="49.43714" lon="1.15115">
        <ele>25</ele>
        <time>2017-11-14T15:08:59Z</time>
      </trkpt>
      <trkpt lat="49.43717" lon="1.1511">
        <ele>25</ele>
        <time>2017-11-14T15:09:15Z</time>
      </trkpt>
      <trkpt lat="49.43721" lon="1.15106">
        <ele>25</ele>
        <time>2017-11-14T15:09:15Z</time>
      </trkpt>
      <trkpt lat="49.43725" lon="1.15101">
        <ele>25</ele>
        <time>2017-11-14T15:09:15Z</time>
      </trkpt>
      <trkpt lat="49.43729" lon="1.15097">
        <ele>25</ele>
        <time>2017-11-14T15:09:15Z</time>
      </trkpt>
      <trkpt lat="49.43733" lon="1.15092">
        <ele>25</ele>
        <time>2017-11-14T15:09:31Z</time>
      </trkpt>
      <trkpt lat="49.43737" lon="1.15088">
        <ele>25</ele>
        <time>2017-11-14T15:09:31Z</time>
      </trkpt>
      <trkpt lat="49.43741" lon="1.15083">
        <ele>25</ele>
        <time>2017-11-14T15:09:31Z</time>
      </trkpt>
      <trkpt lat="49.43745" lon="1.1508">
        <ele>25</ele>
        <time>2017-11-14T15:09:31Z</time>
      </trkpt>
      <trkpt lat="49.4375" lon="1.15078">
        <ele>25</ele>
        <time>2017-11-14T15:09:47Z</time>
      </trkpt>
      <trkpt lat="49.43754" lon="1.15075">
        <ele>25</ele>
        <time>2017-11-14T15:09:47Z</time>
      </trkpt>
      <trkpt lat="49.43758" lon="1.15072">
        <ele>25</ele>
        <time>2017-11-14T15:09:47Z</time>
      </trkpt>
      <trkpt lat="49.43763" lon="1.1507">
        <ele>25</ele>
        <time>2017-11-14T15:09:47Z</time>
      </trkpt>
      <trkpt lat="49.43767" lon="1.15067">
        <ele>25</ele>
        <time>2017-11-14T15:10:03Z</time>
      </trkpt>
      <trkpt lat="49.43771" lon="1.15063">
        <ele>25</ele>
        <time>2017-11-14T15:10:03Z</time>
      </trkpt>
      <trkpt lat="49.43775" lon="1.15059">
        <ele>25</ele>
        <time>2017-11-14T15:10:03Z</time>
      </trkpt>
      <trkpt lat="49.43779" lon="1.15055">
        <ele>25</ele>
        <time>2017-11-14T15:10:03Z</time>
      </trkpt>
      <trkpt lat="49.43787" lon="1.15043">
        <ele>25</ele>
        <time>2017-11-14T15:10:35Z</time>
      </trkpt>
      <trkpt lat="49.43783" lon="1.15041">
        <ele>22</ele>
        <time>2017-11-14T15:10:35Z</time>
      </trkpt>
      <trkpt lat="49.43779" lon="1.15037">
        <ele>22</ele>
        <time>2017-11-14T15:10:35Z</time>
      </trkpt>
      <trkpt lat="49.43775" lon="1.15032">
        <ele>22</ele>
        <time>2017-11-14T15:10:35Z</time>
      </trkpt>
      <trkpt lat="49.43772" lon="1.15028">
        <ele>22</ele>
        <time>2017-11-14T15:10:35Z</time>
      </trkpt>
      <trkpt lat="49.4377" lon="1.15021">
        <ele>22</ele>
        <time>2017-11-14T15:10:51Z</time>
      </trkpt>
      <trkpt lat="49.43766" lon="1.15018">
        <ele>22</ele>
        <time>2017-11-14T15:10:51Z</time>
      </trkpt>
      <trkpt lat="49.43761" lon="1.15014">
        <ele>22</ele>
        <time>2017-11-14T15:10:51Z</time>
      </trkpt>
      <trkpt lat="49.43757" lon="1.1501">
        <ele>22</ele>
        <time>2017-11-14T15:10:51Z</time>
      </trkpt>
      <trkpt lat="49.43752" lon="1.15008">
        <ele>22</ele>
        <time>2017-11-14T15:11:07Z</time>
      </trkpt>
      <trkpt lat="49.43747" lon="1.15005">
        <ele>22</ele>
        <time>2017-11-14T15:11:07Z</time>
      </trkpt>
      <trkpt lat="49.43742" lon="1.15001">
        <ele>22</ele>
        <time>2017-11-14T15:11:07Z</time>
      </trkpt>
      <trkpt lat="49.43738" lon="1.14999">
        <ele>22</ele>
        <time>2017-11-14T15:11:07Z</time>
      </trkpt>
      <trkpt lat="49.43734" lon="1.14995">
        <ele>22</ele>
        <time>2017-11-14T15:11:23Z</time>
      </trkpt>
      <trkpt lat="49.4373" lon="1.14992">
        <ele>22</ele>
        <time>2017-11-14T15:11:23Z</time>
      </trkpt>
      <trkpt lat="49.43726" lon="1.14989">
        <ele>22</ele>
        <time>2017-11-14T15:11:23Z</time>
      </trkpt>
      <trkpt lat="49.43722" lon="1.14985">
        <ele>22</ele>
        <time>2017-11-14T15:11:23Z</time>
      </trkpt>
      <trkpt lat="49.43718" lon="1.14981">
        <ele>22</ele>
        <time>2017-11-14T15:11:39Z</time>
      </trkpt>
      <trkpt lat="49.43714" lon="1.14977">
        <ele>22</ele>
        <time>2017-11-14T15:11:39Z</time>
      </trkpt>
      <trkpt lat="49.4371" lon="1.14974">
        <ele>22</ele>
        <time>2017-11-14T15:11:39Z</time>
      </trkpt>
      <trkpt lat="49.43706" lon="1.1497">
        <ele>21</ele>
        <time>2017-11-14T15:11:39Z</time>
      </trkpt>
      <trkpt lat="49.43702" lon="1.14967">
        <ele>21</ele>
        <time>2017-11-14T15:11:55Z</time>
      </trkpt>
      <trkpt lat="49.43697" lon="1.14963">
        <ele>21</ele>
        <time>2017-11-14T15:11:55Z</time>
      </trkpt>
      <trkpt lat="49.43692" lon="1.1496">
        <ele>21</ele>
        <time>2017-11-14T15:11:55Z</time>
      </trkpt>
      <trkpt lat="49.43689" lon="1.14954">
        <ele>21</ele>
        <time>2017-11-14T15:11:55Z</time>
      </trkpt>
      <trkpt lat="49.43688" lon="1.14947">
        <ele>21</ele>
        <time>2017-11-14T15:12:11Z</time>
      </trkpt>
      <trkpt lat="49.43687" lon="1.14939">
        <ele>21</ele>
        <time>2017-11-14T15:12:11Z</time>
      </trkpt>
      <trkpt lat="49.43688" lon="1.14932">
        <ele>21</ele>
        <time>2017-11-14T15:12:11Z</time>
      </trkpt>
      <trkpt lat="49.43689" lon="1.14925">
        <ele>21</ele>
        <time>2017-11-14T15:12:11Z</time>
      </trkpt>
      <trkpt lat="49.43691" lon="1.14918">
        <ele>21</ele>
        <time>2017-11-14T15:12:27Z</time>
      </trkpt>
      <trkpt lat="49.4369" lon="1.14911">
        <ele>21</ele>
        <time>2017-11-14T15:12:27Z</time>
      </trkpt>
      <trkpt lat="49.43687" lon="1.14904">
        <ele>21</ele>
        <time>2017-11-14T15:12:27Z</time>
      </trkpt>
      <trkpt lat="49.43683" lon="1.14901">
        <ele>21</ele>
        <time>2017-11-14T15:12:27Z</time>
      </trkpt>
      <trkpt lat="49.43679" lon="1.14899">
        <ele>21</ele>
        <time>2017-11-14T15:12:43Z</time>
      </trkpt>
      <trkpt lat="49.43674" lon="1.14899">
        <ele>21</ele>
        <time>2017-11-14T15:12:43Z</time>
      </trkpt>
      <trkpt lat="49.4367" lon="1.14899">
        <ele>21</ele>
        <time>2017-11-14T15:12:43Z</time>
      </trkpt>
      <trkpt lat="49.43667" lon="1.149">
        <ele>21</ele>
        <time>2017-11-14T15:12:43Z</time>
      </trkpt>
      <trkpt lat="49.43663" lon="1.14901">
        <ele>21</ele>
        <time>2017-11-14T15:12:59Z</time>
      </trkpt>
      <trkpt lat="49.43659" lon="1.14902">
        <ele>21</ele>
        <time>2017-11-14T15:12:59Z</time>
      </trkpt>
      <trkpt lat="49.43657" lon="1.149">
        <ele>21</ele>
        <time>2017-11-14T15:12:59Z</time>
      </trkpt>
      <trkpt lat="49.43653" lon="1.14896">
        <ele>21</ele>
        <time>2017-11-14T15:12:59Z</time>
      </trkpt>
      <trkpt lat="49.4365" lon="1.14891">
        <ele>21</ele>
        <time>2017-11-14T15:13:15Z</time>
      </trkpt>
      <trkpt lat="49.43646" lon="1.14887">
        <ele>21</ele>
        <time>2017-11-14T15:13:15Z</time>
      </trkpt>
      <trkpt lat="49.43642" lon="1.14883">
        <ele>21</ele>
        <time>2017-11-14T15:13:15Z</time>
      </trkpt>
      <trkpt lat="49.43638" lon="1.14878">
        <ele>21</ele>
        <time>2017-11-14T15:13:15Z</time>
      </trkpt>
      <trkpt lat="49.43634" lon="1.14873">
        <ele>21</ele>
        <time>2017-11-14T15:13:31Z</time>
      </trkpt>
      <trkpt lat="49.4363" lon="1.14869">
        <ele>21</ele>
        <time>2017-11-14T15:13:31Z</time>
      </trkpt>
      <trkpt lat="49.43626" lon="1.14864">
        <ele>21</ele>
        <time>2017-11-14T15:13:31Z</time>
      </trkpt>
      <trkpt lat="49.43622" lon="1.14859">
        <ele>22</ele>
        <time>2017-11-14T15:13:31Z</time>
      </trkpt>
      <trkpt lat="49.43619" lon="1.14854">
        <ele>22</ele>
        <time>2017-11-14T15:13:47Z</time>
      </trkpt>
      <trkpt lat="49.43615" lon="1.14848">
        <ele>22</ele>
        <time>2017-11-14T15:13:47Z</time>
      </trkpt>
      <trkpt lat="49.43612" lon="1.14844">
        <ele>22</ele>
        <time>2017-11-14T15:13:47Z</time>
      </trkpt>
      <trkpt lat="49.43609" lon="1.1484">
        <ele>22</ele>
        <time>2017-11-14T15:13:47Z</time>
      </trkpt>
      <trkpt lat="49.43605" lon="1.14835">
        <ele>22</ele>
        <time>2017-11-14T15:14:03Z</time>
      </trkpt>
      <trkpt lat="49.43601" lon="1.14831">
        <ele>22</ele>
        <time>2017-11-14T15:14:03Z</time>
      </trkpt>
      <trkpt lat="49.43597" lon="1.14827">
        <ele>22</ele>
        <time>2017-11-14T15:14:03Z</time>
      </trkpt>
      <trkpt lat="49.43593" lon="1.14823">
        <ele>22</ele>
        <time>2017-11-14T15:14:03Z</time>
      </trkpt>
      <trkpt lat="49.43589" lon="1.1482">
        <ele>22</ele>
        <time>2017-11-14T15:14:19Z</time>
      </trkpt>
      <trkpt lat="49.43585" lon="1.14816">
        <ele>22</ele>
        <time>2017-11-14T15:14:19Z</time>
      </trkpt>
      <trkpt lat="49.43581" lon="1.14812">
        <ele>22</ele>
        <time>2017-11-14T15:14:19Z</time>
      </trkpt>
      <trkpt lat="49.43577" lon="1.14808">
        <ele>22</ele>
        <time>2017-11-14T15:14:19Z</time>
      </trkpt>
      <trkpt lat="49.43573" lon="1.14806">
        <ele>22</ele>
        <time>2017-11-14T15:14:35Z</time>
      </trkpt>
      <trkpt lat="49.4357" lon="1.14802">
        <ele>22</ele>
        <time>2017-11-14T15:14:35Z</time>
      </trkpt>
      <trkpt lat="49.43566" lon="1.14796">
        <ele>22</ele>
        <time>2017-11-14T15:14:35Z</time>
      </trkpt>
      <trkpt lat="49.43563" lon="1.14791">
        <ele>21</ele>
        <time>2017-11-14T15:14:35Z</time>
      </trkpt>
      <trkpt lat="49.4356" lon="1.14786">
        <ele>21</ele>
        <time>2017-11-14T15:14:51Z</time>
      </trkpt>
      <trkpt lat="49.43557" lon="1.1478">
        <ele>21</ele>
        <time>2017-11-14T15:14:51Z</time>
      </trkpt>
      <trkpt lat="49.43555" lon="1.14775">
        <ele>21</ele>
        <time>2017-11-14T15:14:51Z</time>
      </trkpt>
      <trkpt lat="49.43554" lon="1.14769">
        <ele>21</ele>
        <time>2017-11-14T15:14:51Z</time>
      </trkpt>
      <trkpt lat="49.43551" lon="1.14764">
        <ele>21</ele>
        <time>2017-11-14T15:15:07Z</time>
      </trkpt>
      <trkpt lat="49.43548" lon="1.14759">
        <ele>21</ele>
        <time>2017-11-14T15:15:07Z</time>
      </trkpt>
      <trkpt lat="49.43546" lon="1.14754">
        <ele>21</ele>
        <time>2017-11-14T15:15:07Z</time>
      </trkpt>
      <trkpt lat="49.43543" lon="1.14748">
        <ele>21</ele>
        <time>2017-11-14T15:15:07Z</time>
      </trkpt>
      <trkpt lat="49.4354" lon="1.14743">
        <ele>29</ele>
        <time>2017-11-14T15:15:23Z</time>
      </trkpt>
      <trkpt lat="49.43537" lon="1.14737">
        <ele>29</ele>
        <time>2017-11-14T15:15:23Z</time>
      </trkpt>
      <trkpt lat="49.43534" lon="1.14732">
        <ele>29</ele>
        <time>2017-11-14T15:15:23Z</time>
      </trkpt>
      <trkpt lat="49.43532" lon="1.14727">
        <ele>29</ele>
        <time>2017-11-14T15:15:23Z</time>
      </trkpt>
      <trkpt lat="49.43526" lon="1.14721">
        <ele>29</ele>
        <time>2017-11-14T15:15:51Z</time>
      </trkpt>
      <trkpt lat="49.43527" lon="1.14717">
        <ele>29</ele>
        <time>2017-11-14T15:15:51Z</time>
      </trkpt>
      <trkpt lat="49.43527" lon="1.14708">
        <ele>32</ele>
        <time>2017-11-14T15:15:51Z</time>
      </trkpt>
      <trkpt lat="49.43527" lon="1.147">
        <ele>32</ele>
        <time>2017-11-14T15:15:51Z</time>
      </trkpt>
      <trkpt lat="49.43524" lon="1.14693">
        <ele>32</ele>
        <time>2017-11-14T15:15:51Z</time>
      </trkpt>
      <trkpt lat="49.43522" lon="1.14687">
        <ele>32</ele>
        <time>2017-11-14T15:16:07Z</time>
      </trkpt>
      <trkpt lat="49.4352" lon="1.14681">
        <ele>32</ele>
        <time>2017-11-14T15:16:07Z</time>
      </trkpt>
      <trkpt lat="49.43516" lon="1.14677">
        <ele>32</ele>
        <time>2017-11-14T15:16:07Z</time>
      </trkpt>
      <trkpt lat="49.43511" lon="1.14676">
        <ele>32</ele>
        <time>2017-11-14T15:16:07Z</time>
      </trkpt>
      <trkpt lat="49.43509" lon="1.1467">
        <ele>32</ele>
        <time>2017-11-14T15:16:23Z</time>
      </trkpt>
      <trkpt lat="49.43511" lon="1.14664">
        <ele>32</ele>
        <time>2017-11-14T15:16:23Z</time>
      </trkpt>
      <trkpt lat="49.43511" lon="1.14658">
        <ele>32</ele>
        <time>2017-11-14T15:16:23Z</time>
      </trkpt>
      <trkpt lat="49.43513" lon="1.14652">
        <ele>32</ele>
        <time>2017-11-14T15:16:23Z</time>
      </trkpt>
      <trkpt lat="49.43515" lon="1.14646">
        <ele>32</ele>
        <time>2017-11-14T15:16:39Z</time>
      </trkpt>
      <trkpt lat="49.43517" lon="1.1464">
        <ele>32</ele>
        <time>2017-11-14T15:16:39Z</time>
      </trkpt>
      <trkpt lat="49.43519" lon="1.14635">
        <ele>32</ele>
        <time>2017-11-14T15:16:39Z</time>
      </trkpt>
      <trkpt lat="49.43521" lon="1.14629">
        <ele>32</ele>
        <time>2017-11-14T15:16:39Z</time>
      </trkpt>
      <trkpt lat="49.43525" lon="1.14622">
        <ele>34</ele>
        <time>2017-11-14T15:17:55Z</time>
      </trkpt>
      <trkpt lat="49.43526" lon="1.14619">
        <ele>34</ele>
        <time>2017-11-14T15:17:55Z</time>
      </trkpt>
      <trkpt lat="49.43529" lon="1.14612">
        <ele>34</ele>
        <time>2017-11-14T15:17:55Z</time>
      </trkpt>
      <trkpt lat="49.43532" lon="1.14607">
        <ele>34</ele>
        <time>2017-11-14T15:17:55Z</time>
      </trkpt>
      <trkpt lat="49.43534" lon="1.14602">
        <ele>34</ele>
        <time>2017-11-14T15:17:55Z</time>
      </trkpt>
      <trkpt lat="49.43536" lon="1.14594">
        <ele>34</ele>
        <time>2017-11-14T15:18:11Z</time>
      </trkpt>
      <trkpt lat="49.43538" lon="1.14588">
        <ele>34</ele>
        <time>2017-11-14T15:18:11Z</time>
      </trkpt>
      <trkpt lat="49.43539" lon="1.14581">
        <ele>34</ele>
        <time>2017-11-14T15:18:11Z</time>
      </trkpt>
      <trkpt lat="49.43539" lon="1.14574">
        <ele>34</ele>
        <time>2017-11-14T15:18:11Z</time>
      </trkpt>
      <trkpt lat="49.43537" lon="1.14569">
        <ele>34</ele>
        <time>2017-11-14T15:18:27Z</time>
      </trkpt>
      <trkpt lat="49.43534" lon="1.14565">
        <ele>34</ele>
        <time>2017-11-14T15:18:27Z</time>
      </trkpt>
      <trkpt lat="49.43531" lon="1.14562">
        <ele>34</ele>
        <time>2017-11-14T15:18:27Z</time>
      </trkpt>
      <trkpt lat="49.43527" lon="1.14558">
        <ele>34</ele>
        <time>2017-11-14T15:18:27Z</time>
      </trkpt>
      <trkpt lat="49.43523" lon="1.14555">
        <ele>34</ele>
        <time>2017-11-14T15:18:43Z</time>
      </trkpt>
      <trkpt lat="49.43519" lon="1.14552">
        <ele>34</ele>
        <time>2017-11-14T15:18:43Z</time>
      </trkpt>
      <trkpt lat="49.43515" lon="1.14549">
        <ele>34</ele>
        <time>2017-11-14T15:18:43Z</time>
      </trkpt>
      <trkpt lat="49.43511" lon="1.14545">
        <ele>34</ele>
        <time>2017-11-14T15:18:43Z</time>
      </trkpt>
      <trkpt lat="49.43507" lon="1.14541">
        <ele>29</ele>
        <time>2017-11-14T15:18:59Z</time>
      </trkpt>
      <trkpt lat="49.43503" lon="1.14537">
        <ele>29</ele>
        <time>2017-11-14T15:18:59Z</time>
      </trkpt>
      <trkpt lat="49.435" lon="1.14533">
        <ele>29</ele>
        <time>2017-11-14T15:18:59Z</time>
      </trkpt>
      <trkpt lat="49.43497" lon="1.14529">
        <ele>29</ele>
        <time>2017-11-14T15:18:59Z</time>
      </trkpt>
      <trkpt lat="49.43494" lon="1.14526">
        <ele>29</ele>
        <time>2017-11-14T15:19:15Z</time>
      </trkpt>
      <trkpt lat="49.4349" lon="1.14523">
        <ele>29</ele>
        <time>2017-11-14T15:19:15Z</time>
      </trkpt>
      <trkpt lat="49.43486" lon="1.14519">
        <ele>29</ele>
        <time>2017-11-14T15:19:15Z</time>
      </trkpt>
      <trkpt lat="49.43482" lon="1.14517">
        <ele>29</ele>
        <time>2017-11-14T15:19:15Z</time>
      </trkpt>
      <trkpt lat="49.43479" lon="1.14512">
        <ele>29</ele>
        <time>2017-11-14T15:19:31Z</time>
      </trkpt>
      <trkpt lat="49.43475" lon="1.14507">
        <ele>29</ele>
        <time>2017-11-14T15:19:31Z</time>
      </trkpt>
      <trkpt lat="49.43472" lon="1.14502">
        <ele>29</ele>
        <time>2017-11-14T15:19:31Z</time>
      </trkpt>
      <trkpt lat="49.43468" lon="1.14496">
        <ele>29</ele>
        <time>2017-11-14T15:19:31Z</time>
      </trkpt>
      <trkpt lat="49.43465" lon="1.1449">
        <ele>29</ele>
        <time>2017-11-14T15:19:47Z</time>
      </trkpt>
      <trkpt lat="49.43462" lon="1.14483">
        <ele>29</ele>
        <time>2017-11-14T15:19:47Z</time>
      </trkpt>
      <trkpt lat="49.4346" lon="1.14477">
        <ele>29</ele>
        <time>2017-11-14T15:19:47Z</time>
      </trkpt>
      <trkpt lat="49.43458" lon="1.14471">
        <ele>51</ele>
        <time>2017-11-14T15:19:47Z</time>
      </trkpt>
      <trkpt lat="49.43455" lon="1.14466">
        <ele>51</ele>
        <time>2017-11-14T15:20:03Z</time>
      </trkpt>
      <trkpt lat="49.43453" lon="1.14461">
        <ele>51</ele>
        <time>2017-11-14T15:20:03Z</time>
      </trkpt>
      <trkpt lat="49.43451" lon="1.14456">
        <ele>40</ele>
        <time>2017-11-14T15:20:03Z</time>
      </trkpt>
      <trkpt lat="49.43448" lon="1.14453">
        <ele>40</ele>
        <time>2017-11-14T15:20:03Z</time>
      </trkpt>
      <trkpt lat="49.43446" lon="1.14449">
        <ele>40</ele>
        <time>2017-11-14T15:20:19Z</time>
      </trkpt>
      <trkpt lat="49.43446" lon="1.14444">
        <ele>40</ele>
        <time>2017-11-14T15:20:19Z</time>
      </trkpt>
      <trkpt lat="49.43447" lon="1.14438">
        <ele>40</ele>
        <time>2017-11-14T15:20:19Z</time>
      </trkpt>
      <trkpt lat="49.43446" lon="1.14432">
        <ele>40</ele>
        <time>2017-11-14T15:20:19Z</time>
      </trkpt>
      <trkpt lat="49.43447" lon="1.14426">
        <ele>40</ele>
        <time>2017-11-14T15:20:39Z</time>
      </trkpt>
      <trkpt lat="49.43447" lon="1.14422">
        <ele>40</ele>
        <time>2017-11-14T15:20:39Z</time>
      </trkpt>
      <trkpt lat="49.43444" lon="1.14419">
        <ele>40</ele>
        <time>2017-11-14T15:20:39Z</time>
      </trkpt>
      <trkpt lat="49.43441" lon="1.14418">
        <ele>40</ele>
        <time>2017-11-14T15:20:39Z</time>
      </trkpt>
      <trkpt lat="49.43438" lon="1.14416">
        <ele>40</ele>
        <time>2017-11-14T15:20:39Z</time>
      </trkpt>
      <trkpt lat="49.43435" lon="1.14414">
        <ele>40</ele>
        <time>2017-11-14T15:20:55Z</time>
      </trkpt>
      <trkpt lat="49.43432" lon="1.14413">
        <ele>40</ele>
        <time>2017-11-14T15:20:55Z</time>
      </trkpt>
      <trkpt lat="49.43429" lon="1.14412">
        <ele>40</ele>
        <time>2017-11-14T15:20:55Z</time>
      </trkpt>
      <trkpt lat="49.43425" lon="1.1441">
        <ele>40</ele>
        <time>2017-11-14T15:20:55Z</time>
      </trkpt>
      <trkpt lat="49.43422" lon="1.14409">
        <ele>40</ele>
        <time>2017-11-14T15:21:11Z</time>
      </trkpt>
      <trkpt lat="49.43419" lon="1.14407">
        <ele>40</ele>
        <time>2017-11-14T15:21:11Z</time>
      </trkpt>
      <trkpt lat="49.43415" lon="1.14405">
        <ele>40</ele>
        <time>2017-11-14T15:21:11Z</time>
      </trkpt>
      <trkpt lat="49.43412" lon="1.14403">
        <ele>40</ele>
        <time>2017-11-14T15:21:11Z</time>
      </trkpt>
      <trkpt lat="49.43411" lon="1.14399">
        <ele>40</ele>
        <time>2017-11-14T15:21:27Z</time>
      </trkpt>
      <trkpt lat="49.4341" lon="1.14395">
        <ele>40</ele>
        <time>2017-11-14T15:21:27Z</time>
      </trkpt>
      <trkpt lat="49.4341" lon="1.14389">
        <ele>40</ele>
        <time>2017-11-14T15:21:27Z</time>
      </trkpt>
      <trkpt lat="49.43411" lon="1.14383">
        <ele>40</ele>
        <time>2017-11-14T15:21:27Z</time>
      </trkpt>
      <trkpt lat="49.43412" lon="1.14377">
        <ele>40</ele>
        <time>2017-11-14T15:21:43Z</time>
      </trkpt>
      <trkpt lat="49.43412" lon="1.1437">
        <ele>38</ele>
        <time>2017-11-14T15:21:43Z</time>
      </trkpt>
      <trkpt lat="49.43413" lon="1.14364">
        <ele>38</ele>
        <time>2017-11-14T15:21:43Z</time>
      </trkpt>
      <trkpt lat="49.43412" lon="1.14357">
        <ele>38</ele>
        <time>2017-11-14T15:21:43Z</time>
      </trkpt>
      <trkpt lat="49.43412" lon="1.1435">
        <ele>38</ele>
        <time>2017-11-14T15:21:59Z</time>
      </trkpt>
      <trkpt lat="49.43411" lon="1.14343">
        <ele>38</ele>
        <time>2017-11-14T15:21:59Z</time>
      </trkpt>
      <trkpt lat="49.4341" lon="1.14337">
        <ele>38</ele>
        <time>2017-11-14T15:21:59Z</time>
      </trkpt>
      <trkpt lat="49.43409" lon="1.1433">
        <ele>38</ele>
        <time>2017-11-14T15:21:59Z</time>
      </trkpt>
      <trkpt lat="49.43408" lon="1.14323">
        <ele>38</ele>
        <time>2017-11-14T15:22:15Z</time>
      </trkpt>
      <trkpt lat="49.43407" lon="1.14317">
        <ele>38</ele>
        <time>2017-11-14T15:22:15Z</time>
      </trkpt>
      <trkpt lat="49.43405" lon="1.14312">
        <ele>38</ele>
        <time>2017-11-14T15:22:15Z</time>
      </trkpt>
      <trkpt lat="49.43401" lon="1.14311">
        <ele>38</ele>
        <time>2017-11-14T15:22:15Z</time>
      </trkpt>
      <trkpt lat="49.43398" lon="1.14314">
        <ele>38</ele>
        <time>2017-11-14T15:22:31Z</time>
      </trkpt>
      <trkpt lat="49.43396" lon="1.1432">
        <ele>38</ele>
        <time>2017-11-14T15:22:31Z</time>
      </trkpt>
      <trkpt lat="49.43394" lon="1.14326">
        <ele>38</ele>
        <time>2017-11-14T15:22:31Z</time>
      </trkpt>
      <trkpt lat="49.43393" lon="1.14332">
        <ele>38</ele>
        <time>2017-11-14T15:22:31Z</time>
      </trkpt>
      <trkpt lat="49.43391" lon="1.14337">
        <ele>38</ele>
        <time>2017-11-14T15:22:47Z</time>
      </trkpt>
      <trkpt lat="49.43389" lon="1.14342">
        <ele>38</ele>
        <time>2017-11-14T15:22:47Z</time>
      </trkpt>
      <trkpt lat="49.43386" lon="1.14348">
        <ele>38</ele>
        <time>2017-11-14T15:22:47Z</time>
      </trkpt>
      <trkpt lat="49.43384" lon="1.14353">
        <ele>38</ele>
        <time>2017-11-14T15:22:47Z</time>
      </trkpt>
      <trkpt lat="49.43381" lon="1.14358">
        <ele>38</ele>
        <time>2017-11-14T15:23:03Z</time>
      </trkpt>
      <trkpt lat="49.43378" lon="1.14362">
        <ele>38</ele>
        <time>2017-11-14T15:23:03Z</time>
      </trkpt>
      <trkpt lat="49.43375" lon="1.14366">
        <ele>54</ele>
        <time>2017-11-14T15:23:03Z</time>
      </trkpt>
      <trkpt lat="49.43371" lon="1.14369">
        <ele>54</ele>
        <time>2017-11-14T15:23:03Z</time>
      </trkpt>
      <trkpt lat="49.43368" lon="1.14372">
        <ele>54</ele>
        <time>2017-11-14T15:23:19Z</time>
      </trkpt>
      <trkpt lat="49.43364" lon="1.14375">
        <ele>54</ele>
        <time>2017-11-14T15:23:19Z</time>
      </trkpt>
      <trkpt lat="49.4336" lon="1.14378">
        <ele>54</ele>
        <time>2017-11-14T15:23:19Z</time>
      </trkpt>
      <trkpt lat="49.43357" lon="1.1438">
        <ele>54</ele>
        <time>2017-11-14T15:23:19Z</time>
      </trkpt>
      <trkpt lat="49.43353" lon="1.14382">
        <ele>54</ele>
        <time>2017-11-14T15:23:35Z</time>
      </trkpt>
      <trkpt lat="49.43349" lon="1.14384">
        <ele>54</ele>
        <time>2017-11-14T15:23:35Z</time>
      </trkpt>
      <trkpt lat="49.43345" lon="1.14386">
        <ele>54</ele>
        <time>2017-11-14T15:23:35Z</time>
      </trkpt>
      <trkpt lat="49.43342" lon="1.14387">
        <ele>54</ele>
        <time>2017-11-14T15:23:35Z</time>
      </trkpt>
      <trkpt lat="49.43338" lon="1.14388">
        <ele>54</ele>
        <time>2017-11-14T15:23:51Z</time>
      </trkpt>
      <trkpt lat="49.43334" lon="1.14391">
        <ele>54</ele>
        <time>2017-11-14T15:23:51Z</time>
      </trkpt>
      <trkpt lat="49.4333" lon="1.14393">
        <ele>54</ele>
        <time>2017-11-14T15:23:51Z</time>
      </trkpt>
      <trkpt lat="49.43327" lon="1.14395">
        <ele>54</ele>
        <time>2017-11-14T15:23:51Z</time>
      </trkpt>
      <trkpt lat="49.43323" lon="1.14398">
        <ele>54</ele>
        <time>2017-11-14T15:24:07Z</time>
      </trkpt>
      <trkpt lat="49.43319" lon="1.14399">
        <ele>54</ele>
        <time>2017-11-14T15:24:07Z</time>
      </trkpt>
      <trkpt lat="49.43315" lon="1.14401">
        <ele>54</ele>
        <time>2017-11-14T15:24:07Z</time>
      </trkpt>
      <trkpt lat="49.43312" lon="1.14404">
        <ele>54</ele>
        <time>2017-11-14T15:24:07Z</time>
      </trkpt>
      <trkpt lat="49.43309" lon="1.14407">
        <ele>54</ele>
        <time>2017-11-14T15:24:23Z</time>
      </trkpt>
      <trkpt lat="49.43307" lon="1.14412">
        <ele>54</ele>
        <time>2017-11-14T15:24:23Z</time>
      </trkpt>
      <trkpt lat="49.43305" lon="1.14418">
        <ele>54</ele>
        <time>2017-11-14T15:24:23Z</time>
      </trkpt>
      <trkpt lat="49.43304" lon="1.14426">
        <ele>54</ele>
        <time>2017-11-14T15:24:23Z</time>
      </trkpt>
      <trkpt lat="49.43305" lon="1.14433">
        <ele>54</ele>
        <time>2017-11-14T15:24:39Z</time>
      </trkpt>
      <trkpt lat="49.43305" lon="1.14441">
        <ele>54</ele>
        <time>2017-11-14T15:24:39Z</time>
      </trkpt>
      <trkpt lat="49.43306" lon="1.14448">
        <ele>54</ele>
        <time>2017-11-14T15:24:39Z</time>
      </trkpt>
      <trkpt lat="49.43307" lon="1.14454">
        <ele>54</ele>
        <time>2017-11-14T15:24:39Z</time>
      </trkpt>
      <trkpt lat="49.43309" lon="1.14459">
        <ele>60</ele>
        <time>2017-11-14T15:24:55Z</time>
      </trkpt>
      <trkpt lat="49.43311" lon="1.14465">
        <ele>60</ele>
        <time>2017-11-14T15:24:55Z</time>
      </trkpt>
      <trkpt lat="49.43313" lon="1.1447">
        <ele>60</ele>
        <time>2017-11-14T15:24:55Z</time>
      </trkpt>
      <trkpt lat="49.43315" lon="1.14475">
        <ele>60</ele>
        <time>2017-11-14T15:24:55Z</time>
      </trkpt>
      <trkpt lat="49.43315" lon="1.14481">
        <ele>60</ele>
        <time>2017-11-14T15:25:11Z</time>
      </trkpt>
      <trkpt lat="49.43314" lon="1.14488">
        <ele>60</ele>
        <time>2017-11-14T15:25:11Z</time>
      </trkpt>
      <trkpt lat="49.43312" lon="1.14494">
        <ele>60</ele>
        <time>2017-11-14T15:25:11Z</time>
      </trkpt>
      <trkpt lat="49.43309" lon="1.14499">
        <ele>60</ele>
        <time>2017-11-14T15:25:11Z</time>
      </trkpt>
      <trkpt lat="49.43305" lon="1.14503">
        <ele>60</ele>
        <time>2017-11-14T15:25:31Z</time>
      </trkpt>
      <trkpt lat="49.43301" lon="1.14504">
        <ele>60</ele>
        <time>2017-11-14T15:25:31Z</time>
      </trkpt>
      <trkpt lat="49.433" lon="1.14504">
        <ele>60</ele>
        <time>2017-11-14T15:25:31Z</time>
      </trkpt>
      <trkpt lat="49.43298" lon="1.14503">
        <ele>60</ele>
        <time>2017-11-14T15:25:31Z</time>
      </trkpt>
      <trkpt lat="49.43294" lon="1.145">
        <ele>60</ele>
        <time>2017-11-14T15:25:31Z</time>
      </trkpt>
      <trkpt lat="49.43291" lon="1.14495">
        <ele>64</ele>
        <time>2017-11-14T15:25:47Z</time>
      </trkpt>
      <trkpt lat="49.43287" lon="1.14491">
        <ele>64</ele>
        <time>2017-11-14T15:25:47Z</time>
      </trkpt>
      <trkpt lat="49.43284" lon="1.14487">
        <ele>64</ele>
        <time>2017-11-14T15:25:47Z</time>
      </trkpt>
      <trkpt lat="49.4328" lon="1.14483">
        <ele>64</ele>
        <time>2017-11-14T15:25:47Z</time>
      </trkpt>
      <trkpt lat="49.43277" lon="1.14479">
        <ele>64</ele>
        <time>2017-11-14T15:26:03Z</time>
      </trkpt>
      <trkpt lat="49.43273" lon="1.14476">
        <ele>64</ele>
        <time>2017-11-14T15:26:03Z</time>
      </trkpt>
      <trkpt lat="49.43269" lon="1.14473">
        <ele>64</ele>
        <time>2017-11-14T15:26:03Z</time>
      </trkpt>
      <trkpt lat="49.43265" lon="1.1447">
        <ele>64</ele>
        <time>2017-11-14T15:26:03Z</time>
      </trkpt>
      <trkpt lat="49.43262" lon="1.14467">
        <ele>64</ele>
        <time>2017-11-14T15:26:19Z</time>
      </trkpt>
      <trkpt lat="49.43258" lon="1.14465">
        <ele>64</ele>
        <time>2017-11-14T15:26:19Z</time>
      </trkpt>
      <trkpt lat="49.43255" lon="1.14462">
        <ele>64</ele>
        <time>2017-11-14T15:26:19Z</time>
      </trkpt>
      <trkpt lat="49.43251" lon="1.1446">
        <ele>64</ele>
        <time>2017-11-14T15:26:19Z</time>
      </trkpt>
      <trkpt lat="49.43247" lon="1.14461">
        <ele>64</ele>
        <time>2017-11-14T15:26:35Z</time>
      </trkpt>
      <trkpt lat="49.43244" lon="1.14462">
        <ele>64</ele>
        <time>2017-11-14T15:26:35Z</time>
      </trkpt>
      <trkpt lat="49.4324" lon="1.14463">
        <ele>64</ele>
        <time>2017-11-14T15:26:35Z</time>
      </trkpt>
      <trkpt lat="49.43237" lon="1.14462">
        <ele>64</ele>
        <time>2017-11-14T15:26:35Z</time>
      </trkpt>
      <trkpt lat="49.43234" lon="1.1446">
        <ele>64</ele>
        <time>2017-11-14T15:26:55Z</time>
      </trkpt>
      <trkpt lat="49.43231" lon="1.14458">
        <ele>66</ele>
        <time>2017-11-14T15:26:55Z</time>
      </trkpt>
      <trkpt lat="49.43229" lon="1.14455">
        <ele>66</ele>
        <time>2017-11-14T15:26:55Z</time>
      </trkpt>
      <trkpt lat="49.43226" lon="1.14453">
        <ele>66</ele>
        <time>2017-11-14T15:26:55Z</time>
      </trkpt>
      <trkpt lat="49.43224" lon="1.14451">
        <ele>66</ele>
        <time>2017-11-14T15:26:55Z</time>
      </trkpt>
      <trkpt lat="49.43221" lon="1.14449">
        <ele>66</ele>
        <time>2017-11-14T15:27:15Z</time>
      </trkpt>
      <trkpt lat="49.43219" lon="1.14447">
        <ele>66</ele>
        <time>2017-11-14T15:27:15Z</time>
      </trkpt>
      <trkpt lat="49.43216" lon="1.14446">
        <ele>66</ele>
        <time>2017-11-14T15:27:15Z</time>
      </trkpt>
      <trkpt lat="49.43214" lon="1.14443">
        <ele>66</ele>
        <time>2017-11-14T15:27:15Z</time>
      </trkpt>
      <trkpt lat="49.43211" lon="1.14441">
        <ele>66</ele>
        <time>2017-11-14T15:27:15Z</time>
      </trkpt>
      <trkpt lat="49.4321" lon="1.14438">
        <ele>66</ele>
        <time>2017-11-14T15:27:35Z</time>
      </trkpt>
      <trkpt lat="49.43207" lon="1.14436">
        <ele>77</ele>
        <time>2017-11-14T15:27:35Z</time>
      </trkpt>
      <trkpt lat="49.43205" lon="1.14434">
        <ele>77</ele>
        <time>2017-11-14T15:27:35Z</time>
      </trkpt>
      <trkpt lat="49.43203" lon="1.14432">
        <ele>77</ele>
        <time>2017-11-14T15:27:35Z</time>
      </trkpt>
      <trkpt lat="49.43201" lon="1.14429">
        <ele>77</ele>
        <time>2017-11-14T15:27:35Z</time>
      </trkpt>
      <trkpt lat="49.43199" lon="1.14427">
        <ele>77</ele>
        <time>2017-11-14T15:27:55Z</time>
      </trkpt>
      <trkpt lat="49.43197" lon="1.14426">
        <ele>77</ele>
        <time>2017-11-14T15:27:55Z</time>
      </trkpt>
      <trkpt lat="49.43194" lon="1.14424">
        <ele>77</ele>
        <time>2017-11-14T15:27:55Z</time>
      </trkpt>
      <trkpt lat="49.43192" lon="1.14422">
        <ele>77</ele>
        <time>2017-11-14T15:27:55Z</time>
      </trkpt>
      <trkpt lat="49.4319" lon="1.1442">
        <ele>77</ele>
        <time>2017-11-14T15:27:55Z</time>
      </trkpt>
      <trkpt lat="49.43188" lon="1.14418">
        <ele>77</ele>
        <time>2017-11-14T15:28:15Z</time>
      </trkpt>
      <trkpt lat="49.43185" lon="1.14417">
        <ele>77</ele>
        <time>2017-11-14T15:28:15Z</time>
      </trkpt>
      <trkpt lat="49.43183" lon="1.14415">
        <ele>77</ele>
        <time>2017-11-14T15:28:15Z</time>
      </trkpt>
      <trkpt lat="49.4318" lon="1.14413">
        <ele>77</ele>
        <time>2017-11-14T15:28:15Z</time>
      </trkpt>
      <trkpt lat="49.43178" lon="1.14411">
        <ele>77</ele>
        <time>2017-11-14T15:28:15Z</time>
      </trkpt>
      <trkpt lat="49.43176" lon="1.1441">
        <ele>77</ele>
        <time>2017-11-14T15:28:35Z</time>
      </trkpt>
      <trkpt lat="49.43174" lon="1.14409">
        <ele>77</ele>
        <time>2017-11-14T15:28:35Z</time>
      </trkpt>
      <trkpt lat="49.43172" lon="1.14407">
        <ele>77</ele>
        <time>2017-11-14T15:28:35Z</time>
      </trkpt>
      <trkpt lat="49.43169" lon="1.14406">
        <ele>77</ele>
        <time>2017-11-14T15:28:35Z</time>
      </trkpt>
      <trkpt lat="49.43167" lon="1.14404">
        <ele>77</ele>
        <time>2017-11-14T15:28:35Z</time>
      </trkpt>
      <trkpt lat="49.43164" lon="1.14403">
        <ele>77</ele>
        <time>2017-11-14T15:28:55Z</time>
      </trkpt>
      <trkpt lat="49.43162" lon="1.144">
        <ele>77</ele>
        <time>2017-11-14T15:28:55Z</time>
      </trkpt>
      <trkpt lat="49.43159" lon="1.14398">
        <ele>77</ele>
        <time>2017-11-14T15:28:55Z</time>
      </trkpt>
      <trkpt lat="49.43157" lon="1.14395">
        <ele>77</ele>
        <time>2017-11-14T15:28:55Z</time>
      </trkpt>
      <trkpt lat="49.43155" lon="1.14391">
        <ele>77</ele>
        <time>2017-11-14T15:28:55Z</time>
      </trkpt>
      <trkpt lat="49.43152" lon="1.14385">
        <ele>77</ele>
        <time>2017-11-14T15:29:19Z</time>
      </trkpt>
      <trkpt lat="49.4315" lon="1.14384">
        <ele>77</ele>
        <time>2017-11-14T15:29:19Z</time>
      </trkpt>
      <trkpt lat="49.43148" lon="1.14382">
        <ele>77</ele>
        <time>2017-11-14T15:29:19Z</time>
      </trkpt>
      <trkpt lat="49.43147" lon="1.14379">
        <ele>77</ele>
        <time>2017-11-14T15:29:19Z</time>
      </trkpt>
      <trkpt lat="49.43145" lon="1.14377">
        <ele>77</ele>
        <time>2017-11-14T15:29:19Z</time>
      </trkpt>
      <trkpt lat="49.43143" lon="1.14375">
        <ele>89</ele>
        <time>2017-11-14T15:29:39Z</time>
      </trkpt>
      <trkpt lat="49.43141" lon="1.14373">
        <ele>89</ele>
        <time>2017-11-14T15:29:39Z</time>
      </trkpt>
      <trkpt lat="49.43139" lon="1.14371">
        <ele>89</ele>
        <time>2017-11-14T15:29:39Z</time>
      </trkpt>
      <trkpt lat="49.43137" lon="1.14368">
        <ele>89</ele>
        <time>2017-11-14T15:29:39Z</time>
      </trkpt>
      <trkpt lat="49.43136" lon="1.14366">
        <ele>89</ele>
        <time>2017-11-14T15:29:39Z</time>
      </trkpt>
      <trkpt lat="49.43134" lon="1.14364">
        <ele>89</ele>
        <time>2017-11-14T15:29:59Z</time>
      </trkpt>
      <trkpt lat="49.43132" lon="1.14361">
        <ele>89</ele>
        <time>2017-11-14T15:29:59Z</time>
      </trkpt>
      <trkpt lat="49.43131" lon="1.14358">
        <ele>89</ele>
        <time>2017-11-14T15:29:59Z</time>
      </trkpt>
      <trkpt lat="49.43129" lon="1.14355">
        <ele>89</ele>
        <time>2017-11-14T15:29:59Z</time>
      </trkpt>
      <trkpt lat="49.43127" lon="1.14353">
        <ele>89</ele>
        <time>2017-11-14T15:29:59Z</time>
      </trkpt>
      <trkpt lat="49.43126" lon="1.1435">
        <ele>89</ele>
        <time>2017-11-14T15:30:19Z</time>
      </trkpt>
      <trkpt lat="49.43125" lon="1.14347">
        <ele>99</ele>
        <time>2017-11-14T15:30:19Z</time>
      </trkpt>
      <trkpt lat="49.43124" lon="1.14343">
        <ele>99</ele>
        <time>2017-11-14T15:30:19Z</time>
      </trkpt>
      <trkpt lat="49.43122" lon="1.1434">
        <ele>99</ele>
        <time>2017-11-14T15:30:19Z</time>
      </trkpt>
      <trkpt lat="49.43119" lon="1.14338">
        <ele>99</ele>
        <time>2017-11-14T15:30:19Z</time>
      </trkpt>
      <trkpt lat="49.43116" lon="1.14333">
        <ele>99</ele>
        <time>2017-11-14T15:30:43Z</time>
      </trkpt>
      <trkpt lat="49.43115" lon="1.14331">
        <ele>99</ele>
        <time>2017-11-14T15:30:43Z</time>
      </trkpt>
      <trkpt lat="49.43114" lon="1.14329">
        <ele>99</ele>
        <time>2017-11-14T15:30:43Z</time>
      </trkpt>
      <trkpt lat="49.43112" lon="1.14326">
        <ele>99</ele>
        <time>2017-11-14T15:30:43Z</time>
      </trkpt>
      <trkpt lat="49.4311" lon="1.14324">
        <ele>99</ele>
        <time>2017-11-14T15:30:43Z</time>
      </trkpt>
      <trkpt lat="49.43106" lon="1.14322">
        <ele>99</ele>
        <time>2017-11-14T15:31:07Z</time>
      </trkpt>
      <trkpt lat="49.43104" lon="1.1432">
        <ele>99</ele>
        <time>2017-11-14T15:31:07Z</time>
      </trkpt>
      <trkpt lat="49.43102" lon="1.14319">
        <ele>99</ele>
        <time>2017-11-14T15:31:07Z</time>
      </trkpt>
      <trkpt lat="49.431" lon="1.14318">
        <ele>99</ele>
        <time>2017-11-14T15:31:07Z</time>
      </trkpt>
      <trkpt lat="49.43097" lon="1.14317">
        <ele>99</ele>
        <time>2017-11-14T15:31:07Z</time>
      </trkpt>
      <trkpt lat="49.43095" lon="1.14316">
        <ele>99</ele>
        <time>2017-11-14T15:31:27Z</time>
      </trkpt>
      <trkpt lat="49.43093" lon="1.14315">
        <ele>99</ele>
        <time>2017-11-14T15:31:27Z</time>
      </trkpt>
      <trkpt lat="49.4309" lon="1.14312">
        <ele>99</ele>
        <time>2017-11-14T15:31:27Z</time>
      </trkpt>
      <trkpt lat="49.43088" lon="1.1431">
        <ele>99</ele>
        <time>2017-11-14T15:31:27Z</time>
      </trkpt>
      <trkpt lat="49.43086" lon="1.14307">
        <ele>99</ele>
        <time>2017-11-14T15:31:27Z</time>
      </trkpt>
      <trkpt lat="49.43082" lon="1.14302">
        <ele>99</ele>
        <time>2017-11-14T15:31:51Z</time>
      </trkpt>
      <trkpt lat="49.4308" lon="1.143">
        <ele>99</ele>
        <time>2017-11-14T15:31:51Z</time>
      </trkpt>
      <trkpt lat="49.43079" lon="1.14299">
        <ele>99</ele>
        <time>2017-11-14T15:31:51Z</time>
      </trkpt>
      <trkpt lat="49.43077" lon="1.14296">
        <ele>99</ele>
        <time>2017-11-14T15:31:51Z</time>
      </trkpt>
      <trkpt lat="49.43075" lon="1.14293">
        <ele>99</ele>
        <time>2017-11-14T15:31:51Z</time>
      </trkpt>
      <trkpt lat="49.43073" lon="1.14289">
        <ele>120</ele>
        <time>2017-11-14T15:32:11Z</time>
      </trkpt>
      <trkpt lat="49.43071" lon="1.14287">
        <ele>120</ele>
        <time>2017-11-14T15:32:11Z</time>
      </trkpt>
      <trkpt lat="49.43069" lon="1.14284">
        <ele>120</ele>
        <time>2017-11-14T15:32:11Z</time>
      </trkpt>
      <trkpt lat="49.43066" lon="1.14282">
        <ele>120</ele>
        <time>2017-11-14T15:32:11Z</time>
      </trkpt>
      <trkpt lat="49.43064" lon="1.14281">
        <ele>120</ele>
        <time>2017-11-14T15:32:11Z</time>
      </trkpt>
      <trkpt lat="49.43061" lon="1.14279">
        <ele>120</ele>
        <time>2017-11-14T15:32:31Z</time>
      </trkpt>
      <trkpt lat="49.43059" lon="1.14277">
        <ele>120</ele>
        <time>2017-11-14T15:32:31Z</time>
      </trkpt>
      <trkpt lat="49.43056" lon="1.14273">
        <ele>120</ele>
        <time>2017-11-14T15:32:31Z</time>
      </trkpt>
      <trkpt lat="49.43054" lon="1.1427">
        <ele>120</ele>
        <time>2017-11-14T15:32:31Z</time>
      </trkpt>
      <trkpt lat="49.43053" lon="1.14269">
        <ele>120</ele>
        <time>2017-11-14T15:32:31Z</time>
      </trkpt>
      <trkpt lat="49.43051" lon="1.14268">
        <ele>120</ele>
        <time>2017-11-14T15:32:51Z</time>
      </trkpt>
      <trkpt lat="49.4305" lon="1.14266">
        <ele>120</ele>
        <time>2017-11-14T15:32:51Z</time>
      </trkpt>
      <trkpt lat="49.43047" lon="1.14264">
        <ele>120</ele>
        <time>2017-11-14T15:32:51Z</time>
      </trkpt>
      <trkpt lat="49.43045" lon="1.14262">
        <ele>120</ele>
        <time>2017-11-14T15:32:51Z</time>
      </trkpt>
      <trkpt lat="49.43042" lon="1.14259">
        <ele>120</ele>
        <time>2017-11-14T15:32:51Z</time>
      </trkpt>
      <trkpt lat="49.4304" lon="1.14257">
        <ele>125</ele>
        <time>2017-11-14T15:33:11Z</time>
      </trkpt>
      <trkpt lat="49.43037" lon="1.14254">
        <ele>125</ele>
        <time>2017-11-14T15:33:11Z</time>
      </trkpt>
      <trkpt lat="49.43035" lon="1.14252">
        <ele>125</ele>
        <time>2017-11-14T15:33:11Z</time>
      </trkpt>
      <trkpt lat="49.43033" lon="1.14249">
        <ele>125</ele>
        <time>2017-11-14T15:33:11Z</time>
      </trkpt>
      <trkpt lat="49.43032" lon="1.14246">
        <ele>125</ele>
        <time>2017-11-14T15:33:11Z</time>
      </trkpt>
      <trkpt lat="49.43029" lon="1.14244">
        <ele>125</ele>
        <time>2017-11-14T15:33:31Z</time>
      </trkpt>
      <trkpt lat="49.43027" lon="1.14243">
        <ele>125</ele>
        <time>2017-11-14T15:33:31Z</time>
      </trkpt>
      <trkpt lat="49.43025" lon="1.1424">
        <ele>125</ele>
        <time>2017-11-14T15:33:31Z</time>
      </trkpt>
      <trkpt lat="49.43023" lon="1.14237">
        <ele>125</ele>
        <time>2017-11-14T15:33:31Z</time>
      </trkpt>
      <trkpt lat="49.43021" lon="1.14234">
        <ele>125</ele>
        <time>2017-11-14T15:33:31Z</time>
      </trkpt>
      <trkpt lat="49.43019" lon="1.1423">
        <ele>125</ele>
        <time>2017-11-14T15:33:51Z</time>
      </trkpt>
      <trkpt lat="49.43017" lon="1.14227">
        <ele>125</ele>
        <time>2017-11-14T15:33:51Z</time>
      </trkpt>
      <trkpt lat="49.43015" lon="1.14224">
        <ele>125</ele>
        <time>2017-11-14T15:33:51Z</time>
      </trkpt>
      <trkpt lat="49.43013" lon="1.14221">
        <ele>125</ele>
        <time>2017-11-14T15:33:51Z</time>
      </trkpt>
      <trkpt lat="49.43011" lon="1.14218">
        <ele>125</ele>
        <time>2017-11-14T15:33:51Z</time>
      </trkpt>
      <trkpt lat="49.4301" lon="1.14214">
        <ele>125</ele>
        <time>2017-11-14T15:34:11Z</time>
      </trkpt>
      <trkpt lat="49.43008" lon="1.14212">
        <ele>125</ele>
        <time>2017-11-14T15:34:11Z</time>
      </trkpt>
      <trkpt lat="49.43006" lon="1.14208">
        <ele>137</ele>
        <time>2017-11-14T15:34:11Z</time>
      </trkpt>
      <trkpt lat="49.43004" lon="1.14204">
        <ele>137</ele>
        <time>2017-11-14T15:34:11Z</time>
      </trkpt>
      <trkpt lat="49.43002" lon="1.14202">
        <ele>137</ele>
        <time>2017-11-14T15:34:11Z</time>
      </trkpt>
      <trkpt lat="49.42999" lon="1.14199">
        <ele>137</ele>
        <time>2017-11-14T15:34:27Z</time>
      </trkpt>
      <trkpt lat="49.42996" lon="1.14197">
        <ele>137</ele>
        <time>2017-11-14T15:34:27Z</time>
      </trkpt>
      <trkpt lat="49.42994" lon="1.14194">
        <ele>137</ele>
        <time>2017-11-14T15:34:27Z</time>
      </trkpt>
      <trkpt lat="49.42991" lon="1.14192">
        <ele>137</ele>
        <time>2017-11-14T15:34:27Z</time>
      </trkpt>
      <trkpt lat="49.42988" lon="1.14189">
        <ele>137</ele>
        <time>2017-11-14T15:34:43Z</time>
      </trkpt>
      <trkpt lat="49.42986" lon="1.14186">
        <ele>137</ele>
        <time>2017-11-14T15:34:43Z</time>
      </trkpt>
      <trkpt lat="49.42983" lon="1.14183">
        <ele>137</ele>
        <time>2017-11-14T15:34:43Z</time>
      </trkpt>
      <trkpt lat="49.42982" lon="1.14178">
        <ele>137</ele>
        <time>2017-11-14T15:34:43Z</time>
      </trkpt>
      <trkpt lat="49.42973" lon="1.14168">
        <ele>137</ele>
        <time>2017-11-14T15:42:47Z</time>
      </trkpt>
      <trkpt lat="49.42973" lon="1.14167">
        <ele>137</ele>
        <time>2017-11-14T15:42:47Z</time>
      </trkpt>
      <trkpt lat="49.4297" lon="1.14164">
        <ele>137</ele>
        <time>2017-11-14T15:42:47Z</time>
      </trkpt>
      <trkpt lat="49.42967" lon="1.1416">
        <ele>137</ele>
        <time>2017-11-14T15:42:47Z</time>
      </trkpt>
      <trkpt lat="49.42964" lon="1.14155">
        <ele>137</ele>
        <time>2017-11-14T15:42:47Z</time>
      </trkpt>
      <trkpt lat="49.4296" lon="1.1415">
        <ele>137</ele>
        <time>2017-11-14T15:43:03Z</time>
      </trkpt>
      <trkpt lat="49.42957" lon="1.14145">
        <ele>135</ele>
        <time>2017-11-14T15:43:03Z</time>
      </trkpt>
      <trkpt lat="49.42954" lon="1.1414">
        <ele>135</ele>
        <time>2017-11-14T15:43:03Z</time>
      </trkpt>
      <trkpt lat="49.42951" lon="1.14137">
        <ele>135</ele>
        <time>2017-11-14T15:43:03Z</time>
      </trkpt>
      <trkpt lat="49.42948" lon="1.14133">
        <ele>135</ele>
        <time>2017-11-14T15:43:19Z</time>
      </trkpt>
      <trkpt lat="49.42945" lon="1.14128">
        <ele>135</ele>
        <time>2017-11-14T15:43:19Z</time>
      </trkpt>
      <trkpt lat="49.42942" lon="1.14125">
        <ele>137</ele>
        <time>2017-11-14T15:43:19Z</time>
      </trkpt>
      <trkpt lat="49.42937" lon="1.14121">
        <ele>137</ele>
        <time>2017-11-14T15:43:19Z</time>
      </trkpt>
      <trkpt lat="49.42934" lon="1.14117">
        <ele>137</ele>
        <time>2017-11-14T15:43:35Z</time>
      </trkpt>
      <trkpt lat="49.4293" lon="1.14115">
        <ele>137</ele>
        <time>2017-11-14T15:43:35Z</time>
      </trkpt>
      <trkpt lat="49.42926" lon="1.14112">
        <ele>137</ele>
        <time>2017-11-14T15:43:35Z</time>
      </trkpt>
      <trkpt lat="49.42923" lon="1.14106">
        <ele>137</ele>
        <time>2017-11-14T15:43:35Z</time>
      </trkpt>
      <trkpt lat="49.4292" lon="1.141">
        <ele>137</ele>
        <time>2017-11-14T15:43:51Z</time>
      </trkpt>
      <trkpt lat="49.42919" lon="1.14094">
        <ele>137</ele>
        <time>2017-11-14T15:43:51Z</time>
      </trkpt>
      <trkpt lat="49.42919" lon="1.14089">
        <ele>137</ele>
        <time>2017-11-14T15:43:51Z</time>
      </trkpt>
      <trkpt lat="49.42919" lon="1.14086">
        <ele>137</ele>
        <time>2017-11-14T15:43:51Z</time>
      </trkpt>
      <trkpt lat="49.42918" lon="1.14088">
        <ele>137</ele>
        <time>2017-11-14T15:44:15Z</time>
      </trkpt>
      <trkpt lat="49.42917" lon="1.14089">
        <ele>137</ele>
        <time>2017-11-14T15:44:15Z</time>
      </trkpt>
      <trkpt lat="49.4292" lon="1.14086">
        <ele>137</ele>
        <time>2017-11-14T15:44:15Z</time>
      </trkpt>
      <trkpt lat="49.42923" lon="1.14082">
        <ele>137</ele>
        <time>2017-11-14T15:44:15Z</time>
      </trkpt>
      <trkpt lat="49.42925" lon="1.14076">
        <ele>137</ele>
        <time>2017-11-14T15:44:15Z</time>
      </trkpt>
      <trkpt lat="49.42927" lon="1.14073">
        <ele>137</ele>
        <time>2017-11-14T15:44:31Z</time>
      </trkpt>
      <trkpt lat="49.4293" lon="1.1407">
        <ele>137</ele>
        <time>2017-11-14T15:44:31Z</time>
      </trkpt>
      <trkpt lat="49.42933" lon="1.14064">
        <ele>137</ele>
        <time>2017-11-14T15:44:31Z</time>
      </trkpt>
      <trkpt lat="49.42936" lon="1.14062">
        <ele>137</ele>
        <time>2017-11-14T15:44:31Z</time>
      </trkpt>
      <trkpt lat="49.4294" lon="1.14061">
        <ele>137</ele>
        <time>2017-11-14T15:44:47Z</time>
      </trkpt>
      <trkpt lat="49.42943" lon="1.14058">
        <ele>137</ele>
        <time>2017-11-14T15:44:47Z</time>
      </trkpt>
      <trkpt lat="49.42946" lon="1.14053">
        <ele>137</ele>
        <time>2017-11-14T15:44:47Z</time>
      </trkpt>
      <trkpt lat="49.42948" lon="1.14047">
        <ele>137</ele>
        <time>2017-11-14T15:44:47Z</time>
      </trkpt>
      <trkpt lat="49.42952" lon="1.14042">
        <ele>137</ele>
        <time>2017-11-14T15:45:03Z</time>
      </trkpt>
      <trkpt lat="49.42956" lon="1.14039">
        <ele>136</ele>
        <time>2017-11-14T15:45:03Z</time>
      </trkpt>
      <trkpt lat="49.42961" lon="1.14037">
        <ele>141</ele>
        <time>2017-11-14T15:45:03Z</time>
      </trkpt>
      <trkpt lat="49.42965" lon="1.14035">
        <ele>141</ele>
        <time>2017-11-14T15:45:03Z</time>
      </trkpt>
      <trkpt lat="49.4297" lon="1.14031">
        <ele>141</ele>
        <time>2017-11-14T15:45:19Z</time>
      </trkpt>
      <trkpt lat="49.42974" lon="1.14026">
        <ele>141</ele>
        <time>2017-11-14T15:45:19Z</time>
      </trkpt>
      <trkpt lat="49.42977" lon="1.14022">
        <ele>141</ele>
        <time>2017-11-14T15:45:19Z</time>
      </trkpt>
      <trkpt lat="49.42982" lon="1.1402">
        <ele>141</ele>
        <time>2017-11-14T15:45:19Z</time>
      </trkpt>
      <trkpt lat="49.42986" lon="1.14018">
        <ele>141</ele>
        <time>2017-11-14T15:45:35Z</time>
      </trkpt>
      <trkpt lat="49.42991" lon="1.14015">
        <ele>141</ele>
        <time>2017-11-14T15:45:35Z</time>
      </trkpt>
      <trkpt lat="49.42995" lon="1.14014">
        <ele>141</ele>
        <time>2017-11-14T15:45:35Z</time>
      </trkpt>
      <trkpt lat="49.43" lon="1.14012">
        <ele>141</ele>
        <time>2017-11-14T15:45:35Z</time>
      </trkpt>
      <trkpt lat="49.43003" lon="1.14007">
        <ele>141</ele>
        <time>2017-11-14T15:45:51Z</time>
      </trkpt>
      <trkpt lat="49.43006" lon="1.14002">
        <ele>141</ele>
        <time>2017-11-14T15:45:51Z</time>
      </trkpt>
      <trkpt lat="49.43009" lon="1.13998">
        <ele>141</ele>
        <time>2017-11-14T15:45:51Z</time>
      </trkpt>
      <trkpt lat="49.43012" lon="1.13994">
        <ele>141</ele>
        <time>2017-11-14T15:45:51Z</time>
      </trkpt>
      <trkpt lat="49.43015" lon="1.13989">
        <ele>141</ele>
        <time>2017-11-14T15:46:07Z</time>
      </trkpt>
      <trkpt lat="49.43017" lon="1.13984">
        <ele>141</ele>
        <time>2017-11-14T15:46:07Z</time>
      </trkpt>
      <trkpt lat="49.4302" lon="1.13979">
        <ele>141</ele>
        <time>2017-11-14T15:46:07Z</time>
      </trkpt>
      <trkpt lat="49.43024" lon="1.13975">
        <ele>141</ele>
        <time>2017-11-14T15:46:07Z</time>
      </trkpt>
      <trkpt lat="49.43028" lon="1.13972">
        <ele>141</ele>
        <time>2017-11-14T15:46:23Z</time>
      </trkpt>
      <trkpt lat="49.43032" lon="1.13971">
        <ele>141</ele>
        <time>2017-11-14T15:46:23Z</time>
      </trkpt>
      <trkpt lat="49.43036" lon="1.13969">
        <ele>141</ele>
        <time>2017-11-14T15:46:23Z</time>
      </trkpt>
      <trkpt lat="49.43039" lon="1.13965">
        <ele>141</ele>
        <time>2017-11-14T15:46:23Z</time>
      </trkpt>
      <trkpt lat="49.43038" lon="1.13949">
        <ele>141</ele>
        <time>2017-11-14T15:54:31Z</time>
      </trkpt>
      <trkpt lat="49.43038" lon="1.13949">
        <ele>141</ele>
        <time>2017-11-14T15:54:31Z</time>
      </trkpt>
      <trkpt lat="49.43039" lon="1.13947">
        <ele>141</ele>
        <time>2017-11-14T15:54:31Z</time>
      </trkpt>
      <trkpt lat="49.43039" lon="1.13944">
        <ele>141</ele>
        <time>2017-11-14T15:54:31Z</time>
      </trkpt>
      <trkpt lat="49.43039" lon="1.13941">
        <ele>141</ele>
        <time>2017-11-14T15:54:31Z</time>
      </trkpt>
      <trkpt lat="49.43039" lon="1.13939">
        <ele>141</ele>
        <time>2017-11-14T15:54:47Z</time>
      </trkpt>
      <trkpt lat="49.43039" lon="1.13934">
        <ele>141</ele>
        <time>2017-11-14T15:54:47Z</time>
      </trkpt>
      <trkpt lat="49.43038" lon="1.13929">
        <ele>141</ele>
        <time>2017-11-14T15:54:47Z</time>
      </trkpt>
      <trkpt lat="49.43038" lon="1.13924">
        <ele>141</ele>
        <time>2017-11-14T15:54:47Z</time>
      </trkpt>
      <trkpt lat="49.43036" lon="1.1392">
        <ele>141</ele>
        <time>2017-11-14T15:55:03Z</time>
      </trkpt>
      <trkpt lat="49.43035" lon="1.13916">
        <ele>141</ele>
        <time>2017-11-14T15:55:03Z</time>
      </trkpt>
      <trkpt lat="49.43034" lon="1.13911">
        <ele>141</ele>
        <time>2017-11-14T15:55:03Z</time>
      </trkpt>
      <trkpt lat="49.43034" lon="1.13907">
        <ele>141</ele>
        <time>2017-11-14T15:55:03Z</time>
      </trkpt>
      <trkpt lat="49.43032" lon="1.13905">
        <ele>141</ele>
        <time>2017-11-14T15:55:19Z</time>
      </trkpt>
      <trkpt lat="49.43032" lon="1.13901">
        <ele>141</ele>
        <time>2017-11-14T15:55:19Z</time>
      </trkpt>
      <trkpt lat="49.4303" lon="1.13897">
        <ele>141</ele>
        <time>2017-11-14T15:55:19Z</time>
      </trkpt>
      <trkpt lat="49.43027" lon="1.13893">
        <ele>141</ele>
        <time>2017-11-14T15:55:19Z</time>
      </trkpt>
      <trkpt lat="49.43026" lon="1.13888">
        <ele>141</ele>
        <time>2017-11-14T15:55:35Z</time>
      </trkpt>
      <trkpt lat="49.43025" lon="1.13883">
        <ele>141</ele>
        <time>2017-11-14T15:55:35Z</time>
      </trkpt>
      <trkpt lat="49.43024" lon="1.13878">
        <ele>141</ele>
        <time>2017-11-14T15:55:35Z</time>
      </trkpt>
      <trkpt lat="49.43022" lon="1.13873">
        <ele>144</ele>
        <time>2017-11-14T15:55:35Z</time>
      </trkpt>
      <trkpt lat="49.43022" lon="1.13867">
        <ele>144</ele>
        <time>2017-11-14T15:55:51Z</time>
      </trkpt>
      <trkpt lat="49.43023" lon="1.13862">
        <ele>144</ele>
        <time>2017-11-14T15:55:51Z</time>
      </trkpt>
      <trkpt lat="49.43025" lon="1.13856">
        <ele>144</ele>
        <time>2017-11-14T15:55:51Z</time>
      </trkpt>
      <trkpt lat="49.43026" lon="1.13851">
        <ele>144</ele>
        <time>2017-11-14T15:55:51Z</time>
      </trkpt>
      <trkpt lat="49.43028" lon="1.13845">
        <ele>144</ele>
        <time>2017-11-14T15:56:07Z</time>
      </trkpt>
      <trkpt lat="49.43029" lon="1.13839">
        <ele>144</ele>
        <time>2017-11-14T15:56:07Z</time>
      </trkpt>
      <trkpt lat="49.43029" lon="1.13832">
        <ele>144</ele>
        <time>2017-11-14T15:56:07Z</time>
      </trkpt>
      <trkpt lat="49.4303" lon="1.13825">
        <ele>144</ele>
        <time>2017-11-14T15:56:07Z</time>
      </trkpt>
      <trkpt lat="49.43032" lon="1.13818">
        <ele>144</ele>
        <time>2017-11-14T15:56:23Z</time>
      </trkpt>
      <trkpt lat="49.43034" lon="1.13812">
        <ele>144</ele>
        <time>2017-11-14T15:56:23Z</time>
      </trkpt>
      <trkpt lat="49.43036" lon="1.13807">
        <ele>144</ele>
        <time>2017-11-14T15:56:23Z</time>
      </trkpt>
      <trkpt lat="49.4304" lon="1.13803">
        <ele>144</ele>
        <time>2017-11-14T15:56:23Z</time>
      </trkpt>
      <trkpt lat="49.43043" lon="1.138">
        <ele>141</ele>
        <time>2017-11-14T15:56:39Z</time>
      </trkpt>
      <trkpt lat="49.43046" lon="1.13798">
        <ele>141</ele>
        <time>2017-11-14T15:56:39Z</time>
      </trkpt>
      <trkpt lat="49.43049" lon="1.13791">
        <ele>139</ele>
        <time>2017-11-14T15:56:39Z</time>
      </trkpt>
      <trkpt lat="49.43052" lon="1.13786">
        <ele>139</ele>
        <time>2017-11-14T15:56:39Z</time>
      </trkpt>
      <trkpt lat="49.43054" lon="1.13779">
        <ele>139</ele>
        <time>2017-11-14T15:56:55Z</time>
      </trkpt>
      <trkpt lat="49.43056" lon="1.13773">
        <ele>139</ele>
        <time>2017-11-14T15:56:55Z</time>
      </trkpt>
      <trkpt lat="49.43057" lon="1.13766">
        <ele>139</ele>
        <time>2017-11-14T15:56:55Z</time>
      </trkpt>
      <trkpt lat="49.43056" lon="1.1376">
        <ele>139</ele>
        <time>2017-11-14T15:56:55Z</time>
      </trkpt>
      <trkpt lat="49.43055" lon="1.13753">
        <ele>139</ele>
        <time>2017-11-14T15:57:11Z</time>
      </trkpt>
      <trkpt lat="49.43055" lon="1.13746">
        <ele>139</ele>
        <time>2017-11-14T15:57:11Z</time>
      </trkpt>
      <trkpt lat="49.43054" lon="1.1374">
        <ele>139</ele>
        <time>2017-11-14T15:57:11Z</time>
      </trkpt>
      <trkpt lat="49.43054" lon="1.13734">
        <ele>139</ele>
        <time>2017-11-14T15:57:11Z</time>
      </trkpt>
      <trkpt lat="49.43054" lon="1.13728">
        <ele>139</ele>
        <time>2017-11-14T15:57:27Z</time>
      </trkpt>
      <trkpt lat="49.43055" lon="1.13722">
        <ele>139</ele>
        <time>2017-11-14T15:57:27Z</time>
      </trkpt>
      <trkpt lat="49.43054" lon="1.13716">
        <ele>139</ele>
        <time>2017-11-14T15:57:27Z</time>
      </trkpt>
      <trkpt lat="49.43054" lon="1.1371">
        <ele>139</ele>
        <time>2017-11-14T15:57:27Z</time>
      </trkpt>
      <trkpt lat="49.43056" lon="1.13703">
        <ele>138</ele>
        <time>2017-11-14T15:57:43Z</time>
      </trkpt>
      <trkpt lat="49.43056" lon="1.13696">
        <ele>138</ele>
        <time>2017-11-14T15:57:43Z</time>
      </trkpt>
      <trkpt lat="49.43055" lon="1.13689">
        <ele>138</ele>
        <time>2017-11-14T15:57:43Z</time>
      </trkpt>
      <trkpt lat="49.43054" lon="1.13683">
        <ele>138</ele>
        <time>2017-11-14T15:57:43Z</time>
      </trkpt>
      <trkpt lat="49.43053" lon="1.13677">
        <ele>138</ele>
        <time>2017-11-14T15:57:59Z</time>
      </trkpt>
      <trkpt lat="49.43053" lon="1.13671">
        <ele>138</ele>
        <time>2017-11-14T15:57:59Z</time>
      </trkpt>
      <trkpt lat="49.43053" lon="1.13665">
        <ele>138</ele>
        <time>2017-11-14T15:57:59Z</time>
      </trkpt>
      <trkpt lat="49.43053" lon="1.13659">
        <ele>138</ele>
        <time>2017-11-14T15:57:59Z</time>
      </trkpt>
      <trkpt lat="49.43054" lon="1.13653">
        <ele>138</ele>
        <time>2017-11-14T15:58:15Z</time>
      </trkpt>
      <trkpt lat="49.43056" lon="1.13647">
        <ele>138</ele>
        <time>2017-11-14T15:58:15Z</time>
      </trkpt>
      <trkpt lat="49.43058" lon="1.13641">
        <ele>138</ele>
        <time>2017-11-14T15:58:15Z</time>
      </trkpt>
      <trkpt lat="49.43062" lon="1.13638">
        <ele>138</ele>
        <time>2017-11-14T15:58:15Z</time>
      </trkpt>
      <trkpt lat="49.43066" lon="1.13634">
        <ele>138</ele>
        <time>2017-11-14T15:58:31Z</time>
      </trkpt>
      <trkpt lat="49.43068" lon="1.1363">
        <ele>138</ele>
        <time>2017-11-14T15:58:31Z</time>
      </trkpt>
      <trkpt lat="49.43071" lon="1.13627">
        <ele>138</ele>
        <time>2017-11-14T15:58:31Z</time>
      </trkpt>
      <trkpt lat="49.43075" lon="1.13625">
        <ele>138</ele>
        <time>2017-11-14T15:58:31Z</time>
      </trkpt>
      <trkpt lat="49.43079" lon="1.13623">
        <ele>136</ele>
        <time>2017-11-14T15:58:47Z</time>
      </trkpt>
      <trkpt lat="49.43083" lon="1.13621">
        <ele>136</ele>
        <time>2017-11-14T15:58:47Z</time>
      </trkpt>
      <trkpt lat="49.43087" lon="1.13617">
        <ele>136</ele>
        <time>2017-11-14T15:58:47Z</time>
      </trkpt>
      <trkpt lat="49.4309" lon="1.13614">
        <ele>136</ele>
        <time>2017-11-14T15:58:47Z</time>
      </trkpt>
      <trkpt lat="49.43097" lon="1.13613">
        <ele>136</ele>
        <time>2017-11-14T15:59:15Z</time>
      </trkpt>
      <trkpt lat="49.43098" lon="1.13611">
        <ele>136</ele>
        <time>2017-11-14T15:59:15Z</time>
      </trkpt>
      <trkpt lat="49.43099" lon="1.1361">
        <ele>136</ele>
        <time>2017-11-14T15:59:15Z</time>
      </trkpt>
      <trkpt lat="49.431" lon="1.13609">
        <ele>136</ele>
        <time>2017-11-14T15:59:15Z</time>
      </trkpt>
      <trkpt lat="49.43102" lon="1.13608">
        <ele>136</ele>
        <time>2017-11-14T15:59:15Z</time>
      </trkpt>
      <trkpt lat="49.43103" lon="1.13608">
        <ele>136</ele>
        <time>2017-11-14T15:59:35Z</time>
      </trkpt>
      <trkpt lat="49.43105" lon="1.13605">
        <ele>136</ele>
        <time>2017-11-14T15:59:35Z</time>
      </trkpt>
      <trkpt lat="49.43107" lon="1.13601">
        <ele>136</ele>
        <time>2017-11-14T15:59:35Z</time>
      </trkpt>
      <trkpt lat="49.43108" lon="1.13598">
        <ele>136</ele>
        <time>2017-11-14T15:59:35Z</time>
      </trkpt>
      <trkpt lat="49.4311" lon="1.13595">
        <ele>136</ele>
        <time>2017-11-14T15:59:35Z</time>
      </trkpt>
      <trkpt lat="49.43113" lon="1.13591">
        <ele>136</ele>
        <time>2017-11-14T15:59:51Z</time>
      </trkpt>
      <trkpt lat="49.43116" lon="1.13586">
        <ele>136</ele>
        <time>2017-11-14T15:59:51Z</time>
      </trkpt>
      <trkpt lat="49.43116" lon="1.1358">
        <ele>136</ele>
        <time>2017-11-14T15:59:51Z</time>
      </trkpt>
      <trkpt lat="49.43116" lon="1.13575">
        <ele>136</ele>
        <time>2017-11-14T15:59:51Z</time>
      </trkpt>
      <trkpt lat="49.43117" lon="1.1357">
        <ele>136</ele>
        <time>2017-11-14T16:00:11Z</time>
      </trkpt>
      <trkpt lat="49.43115" lon="1.13566">
        <ele>136</ele>
        <time>2017-11-14T16:00:11Z</time>
      </trkpt>
      <trkpt lat="49.43113" lon="1.13564">
        <ele>136</ele>
        <time>2017-11-14T16:00:11Z</time>
      </trkpt>
      <trkpt lat="49.43111" lon="1.13561">
        <ele>136</ele>
        <time>2017-11-14T16:00:11Z</time>
      </trkpt>
      <trkpt lat="49.43108" lon="1.13558">
        <ele>136</ele>
        <time>2017-11-14T16:00:11Z</time>
      </trkpt>
      <trkpt lat="49.43106" lon="1.13553">
        <ele>136</ele>
        <time>2017-11-14T16:00:27Z</time>
      </trkpt>
      <trkpt lat="49.43104" lon="1.13547">
        <ele>136</ele>
        <time>2017-11-14T16:00:27Z</time>
      </trkpt>
      <trkpt lat="49.43102" lon="1.13541">
        <ele>134</ele>
        <time>2017-11-14T16:00:27Z</time>
      </trkpt>
      <trkpt lat="49.43101" lon="1.13535">
        <ele>134</ele>
        <time>2017-11-14T16:00:27Z</time>
      </trkpt>
      <trkpt lat="49.43099" lon="1.13528">
        <ele>134</ele>
        <time>2017-11-14T16:00:43Z</time>
      </trkpt>
      <trkpt lat="49.43098" lon="1.13524">
        <ele>134</ele>
        <time>2017-11-14T16:00:43Z</time>
      </trkpt>
      <trkpt lat="49.43096" lon="1.13519">
        <ele>134</ele>
        <time>2017-11-14T16:00:43Z</time>
      </trkpt>
      <trkpt lat="49.43095" lon="1.13514">
        <ele>134</ele>
        <time>2017-11-14T16:00:43Z</time>
      </trkpt>
      <trkpt lat="49.43094" lon="1.13507">
        <ele>134</ele>
        <time>2017-11-14T16:00:59Z</time>
      </trkpt>
      <trkpt lat="49.43093" lon="1.13503">
        <ele>134</ele>
        <time>2017-11-14T16:00:59Z</time>
      </trkpt>
      <trkpt lat="49.43091" lon="1.13497">
        <ele>134</ele>
        <time>2017-11-14T16:00:59Z</time>
      </trkpt>
      <trkpt lat="49.4309" lon="1.13491">
        <ele>134</ele>
        <time>2017-11-14T16:00:59Z</time>
      </trkpt>
      <trkpt lat="49.43087" lon="1.13486">
        <ele>134</ele>
        <time>2017-11-14T16:01:15Z</time>
      </trkpt>
      <trkpt lat="49.43086" lon="1.13482">
        <ele>134</ele>
        <time>2017-11-14T16:01:15Z</time>
      </trkpt>
      <trkpt lat="49.43084" lon="1.13477">
        <ele>134</ele>
        <time>2017-11-14T16:01:15Z</time>
      </trkpt>
      <trkpt lat="49.43082" lon="1.13472">
        <ele>134</ele>
        <time>2017-11-14T16:01:15Z</time>
      </trkpt>
      <trkpt lat="49.43079" lon="1.13468">
        <ele>134</ele>
        <time>2017-11-14T16:01:31Z</time>
      </trkpt>
      <trkpt lat="49.43077" lon="1.13465">
        <ele>134</ele>
        <time>2017-11-14T16:01:31Z</time>
      </trkpt>
      <trkpt lat="49.43074" lon="1.1346">
        <ele>134</ele>
        <time>2017-11-14T16:01:31Z</time>
      </trkpt>
      <trkpt lat="49.43072" lon="1.13454">
        <ele>129</ele>
        <time>2017-11-14T16:01:31Z</time>
      </trkpt>
      <trkpt lat="49.4307" lon="1.13448">
        <ele>129</ele>
        <time>2017-11-14T16:01:47Z</time>
      </trkpt>
      <trkpt lat="49.43068" lon="1.13445">
        <ele>129</ele>
        <time>2017-11-14T16:01:47Z</time>
      </trkpt>
      <trkpt lat="49.43065" lon="1.13441">
        <ele>129</ele>
        <time>2017-11-14T16:01:47Z</time>
      </trkpt>
      <trkpt lat="49.43062" lon="1.13438">
        <ele>129</ele>
        <time>2017-11-14T16:01:47Z</time>
      </trkpt>
      <trkpt lat="49.43058" lon="1.13435">
        <ele>129</ele>
        <time>2017-11-14T16:02:03Z</time>
      </trkpt>
      <trkpt lat="49.43056" lon="1.13434">
        <ele>129</ele>
        <time>2017-11-14T16:02:03Z</time>
      </trkpt>
      <trkpt lat="49.43051" lon="1.13431">
        <ele>129</ele>
        <time>2017-11-14T16:02:03Z</time>
      </trkpt>
      <trkpt lat="49.43048" lon="1.13427">
        <ele>129</ele>
        <time>2017-11-14T16:02:03Z</time>
      </trkpt>
      <trkpt lat="49.43044" lon="1.13421">
        <ele>129</ele>
        <time>2017-11-14T16:02:19Z</time>
      </trkpt>
      <trkpt lat="49.43042" lon="1.13418">
        <ele>139</ele>
        <time>2017-11-14T16:02:19Z</time>
      </trkpt>
      <trkpt lat="49.4304" lon="1.13413">
        <ele>139</ele>
        <time>2017-11-14T16:02:19Z</time>
      </trkpt>
      <trkpt lat="49.43039" lon="1.13408">
        <ele>139</ele>
        <time>2017-11-14T16:02:19Z</time>
      </trkpt>
      <trkpt lat="49.43037" lon="1.13402">
        <ele>139</ele>
        <time>2017-11-14T16:02:35Z</time>
      </trkpt>
      <trkpt lat="49.43034" lon="1.13396">
        <ele>139</ele>
        <time>2017-11-14T16:02:35Z</time>
      </trkpt>
      <trkpt lat="49.43033" lon="1.1339">
        <ele>139</ele>
        <time>2017-11-14T16:02:35Z</time>
      </trkpt>
      <trkpt lat="49.43031" lon="1.13386">
        <ele>139</ele>
        <time>2017-11-14T16:02:35Z</time>
      </trkpt>
      <trkpt lat="49.43028" lon="1.13382">
        <ele>139</ele>
        <time>2017-11-14T16:02:55Z</time>
      </trkpt>
      <trkpt lat="49.43026" lon="1.1338">
        <ele>139</ele>
        <time>2017-11-14T16:02:55Z</time>
      </trkpt>
      <trkpt lat="49.43024" lon="1.13378">
        <ele>139</ele>
        <time>2017-11-14T16:02:55Z</time>
      </trkpt>
      <trkpt lat="49.43022" lon="1.13375">
        <ele>136</ele>
        <time>2017-11-14T16:02:55Z</time>
      </trkpt>
      <trkpt lat="49.4302" lon="1.13372">
        <ele>136</ele>
        <time>2017-11-14T16:02:55Z</time>
      </trkpt>
      <trkpt lat="49.43017" lon="1.13368">
        <ele>136</ele>
        <time>2017-11-14T16:03:11Z</time>
      </trkpt>
      <trkpt lat="49.43014" lon="1.13364">
        <ele>136</ele>
        <time>2017-11-14T16:03:11Z</time>
      </trkpt>
      <trkpt lat="49.43011" lon="1.13359">
        <ele>136</ele>
        <time>2017-11-14T16:03:11Z</time>
      </trkpt>
      <trkpt lat="49.43008" lon="1.13352">
        <ele>136</ele>
        <time>2017-11-14T16:03:11Z</time>
      </trkpt>
      <trkpt lat="49.43006" lon="1.13347">
        <ele>136</ele>
        <time>2017-11-14T16:03:27Z</time>
      </trkpt>
      <trkpt lat="49.43004" lon="1.13343">
        <ele>136</ele>
        <time>2017-11-14T16:03:27Z</time>
      </trkpt>
      <trkpt lat="49.43001" lon="1.13338">
        <ele>136</ele>
        <time>2017-11-14T16:03:27Z</time>
      </trkpt>
      <trkpt lat="49.42999" lon="1.13332">
        <ele>136</ele>
        <time>2017-11-14T16:03:27Z</time>
      </trkpt>
      <trkpt lat="49.42996" lon="1.13326">
        <ele>136</ele>
        <time>2017-11-14T16:03:43Z</time>
      </trkpt>
      <trkpt lat="49.42993" lon="1.13321">
        <ele>136</ele>
        <time>2017-11-14T16:03:43Z</time>
      </trkpt>
      <trkpt lat="49.4299" lon="1.13318">
        <ele>136</ele>
        <time>2017-11-14T16:03:43Z</time>
      </trkpt>
      <trkpt lat="49.42987" lon="1.13317">
        <ele>136</ele>
        <time>2017-11-14T16:03:43Z</time>
      </trkpt>
      <trkpt lat="49.42984" lon="1.13314">
        <ele>136</ele>
        <time>2017-11-14T16:04:07Z</time>
      </trkpt>
      <trkpt lat="49.42982" lon="1.13313">
        <ele>136</ele>
        <time>2017-11-14T16:04:07Z</time>
      </trkpt>
      <trkpt lat="49.42979" lon="1.13311">
        <ele>136</ele>
        <time>2017-11-14T16:04:07Z</time>
      </trkpt>
      <trkpt lat="49.42978" lon="1.13311">
        <ele>136</ele>
        <time>2017-11-14T16:04:07Z</time>
      </trkpt>
      <trkpt lat="49.42976" lon="1.1331">
        <ele>136</ele>
        <time>2017-11-14T16:04:07Z</time>
      </trkpt>
      <trkpt lat="49.42976" lon="1.13315">
        <ele>136</ele>
        <time>2017-11-14T16:04:23Z</time>
      </trkpt>
      <trkpt lat="49.42977" lon="1.13321">
        <ele>136</ele>
        <time>2017-11-14T16:04:23Z</time>
      </trkpt>
      <trkpt lat="49.4298" lon="1.13326">
        <ele>136</ele>
        <time>2017-11-14T16:04:23Z</time>
      </trkpt>
      <trkpt lat="49.42983" lon="1.1333">
        <ele>136</ele>
        <time>2017-11-14T16:04:23Z</time>
      </trkpt>
      <trkpt lat="49.42985" lon="1.13335">
        <ele>136</ele>
        <time>2017-11-14T16:04:39Z</time>
      </trkpt>
      <trkpt lat="49.42986" lon="1.1334">
        <ele>136</ele>
        <time>2017-11-14T16:04:39Z</time>
      </trkpt>
      <trkpt lat="49.42987" lon="1.13346">
        <ele>136</ele>
        <time>2017-11-14T16:04:39Z</time>
      </trkpt>
      <trkpt lat="49.42986" lon="1.13349">
        <ele>136</ele>
        <time>2017-11-14T16:04:39Z</time>
      </trkpt>
      <trkpt lat="49.42985" lon="1.13349">
        <ele>136</ele>
        <time>2017-11-14T16:04:55Z</time>
      </trkpt>
      <trkpt lat="49.42981" lon="1.13347">
        <ele>136</ele>
        <time>2017-11-14T16:04:55Z</time>
      </trkpt>
      <trkpt lat="49.42978" lon="1.13348">
        <ele>136</ele>
        <time>2017-11-14T16:04:55Z</time>
      </trkpt>
      <trkpt lat="49.42973" lon="1.13349">
        <ele>136</ele>
        <time>2017-11-14T16:04:55Z</time>
      </trkpt>
      <trkpt lat="49.4297" lon="1.1335">
        <ele>136</ele>
        <time>2017-11-14T16:05:11Z</time>
      </trkpt>
      <trkpt lat="49.42965" lon="1.13351">
        <ele>136</ele>
        <time>2017-11-14T16:05:11Z</time>
      </trkpt>
      <trkpt lat="49.42962" lon="1.13353">
        <ele>136</ele>
        <time>2017-11-14T16:05:11Z</time>
      </trkpt>
      <trkpt lat="49.42958" lon="1.13355">
        <ele>140</ele>
        <time>2017-11-14T16:05:11Z</time>
      </trkpt>
      <trkpt lat="49.42954" lon="1.13357">
        <ele>140</ele>
        <time>2017-11-14T16:05:27Z</time>
      </trkpt>
      <trkpt lat="49.4295" lon="1.13358">
        <ele>140</ele>
        <time>2017-11-14T16:05:27Z</time>
      </trkpt>
      <trkpt lat="49.42946" lon="1.1336">
        <ele>140</ele>
        <time>2017-11-14T16:05:27Z</time>
      </trkpt>
      <trkpt lat="49.42943" lon="1.13362">
        <ele>140</ele>
        <time>2017-11-14T16:05:27Z</time>
      </trkpt>
      <trkpt lat="49.42938" lon="1.13364">
        <ele>140</ele>
        <time>2017-11-14T16:05:43Z</time>
      </trkpt>
      <trkpt lat="49.42934" lon="1.13366">
        <ele>140</ele>
        <time>2017-11-14T16:05:43Z</time>
      </trkpt>
      <trkpt lat="49.4293" lon="1.13369">
        <ele>140</ele>
        <time>2017-11-14T16:05:43Z</time>
      </trkpt>
      <trkpt lat="49.42925" lon="1.13371">
        <ele>140</ele>
        <time>2017-11-14T16:05:43Z</time>
      </trkpt>
      <trkpt lat="49.42921" lon="1.13373">
        <ele>140</ele>
        <time>2017-11-14T16:05:59Z</time>
      </trkpt>
      <trkpt lat="49.42916" lon="1.13374">
        <ele>140</ele>
        <time>2017-11-14T16:05:59Z</time>
      </trkpt>
      <trkpt lat="49.42912" lon="1.13376">
        <ele>141</ele>
        <time>2017-11-14T16:05:59Z</time>
      </trkpt>
      <trkpt lat="49.42907" lon="1.13378">
        <ele>141</ele>
        <time>2017-11-14T16:05:59Z</time>
      </trkpt>
      <trkpt lat="49.42903" lon="1.13379">
        <ele>141</ele>
        <time>2017-11-14T16:06:15Z</time>
      </trkpt>
      <trkpt lat="49.42899" lon="1.1338">
        <ele>141</ele>
        <time>2017-11-14T16:06:15Z</time>
      </trkpt>
      <trkpt lat="49.42894" lon="1.13383">
        <ele>141</ele>
        <time>2017-11-14T16:06:15Z</time>
      </trkpt>
      <trkpt lat="49.42891" lon="1.13387">
        <ele>141</ele>
        <time>2017-11-14T16:06:15Z</time>
      </trkpt>
      <trkpt lat="49.42889" lon="1.13389">
        <ele>141</ele>
        <time>2017-11-14T16:06:35Z</time>
      </trkpt>
      <trkpt lat="49.42886" lon="1.13391">
        <ele>141</ele>
        <time>2017-11-14T16:06:35Z</time>
      </trkpt>
      <trkpt lat="49.42884" lon="1.13394">
        <ele>141</ele>
        <time>2017-11-14T16:06:35Z</time>
      </trkpt>
      <trkpt lat="49.42885" lon="1.13398">
        <ele>141</ele>
        <time>2017-11-14T16:06:35Z</time>
      </trkpt>
      <trkpt lat="49.42886" lon="1.13404">
        <ele>141</ele>
        <time>2017-11-14T16:06:35Z</time>
      </trkpt>
      <trkpt lat="49.42887" lon="1.13412">
        <ele>141</ele>
        <time>2017-11-14T16:06:51Z</time>
      </trkpt>
      <trkpt lat="49.42887" lon="1.13419">
        <ele>141</ele>
        <time>2017-11-14T16:06:51Z</time>
      </trkpt>
      <trkpt lat="49.42888" lon="1.13423">
        <ele>141</ele>
        <time>2017-11-14T16:06:51Z</time>
      </trkpt>
      <trkpt lat="49.42889" lon="1.13429">
        <ele>141</ele>
        <time>2017-11-14T16:06:51Z</time>
      </trkpt>
      <trkpt lat="49.4289" lon="1.13435">
        <ele>141</ele>
        <time>2017-11-14T16:07:07Z</time>
      </trkpt>
      <trkpt lat="49.42891" lon="1.13442">
        <ele>141</ele>
        <time>2017-11-14T16:07:07Z</time>
      </trkpt>
      <trkpt lat="49.42892" lon="1.13448">
        <ele>141</ele>
        <time>2017-11-14T16:07:07Z</time>
      </trkpt>
      <trkpt lat="49.42893" lon="1.13455">
        <ele>141</ele>
        <time>2017-11-14T16:07:07Z</time>
      </trkpt>
      <trkpt lat="49.42893" lon="1.13461">
        <ele>140</ele>
        <time>2017-11-14T16:07:23Z</time>
      </trkpt>
      <trkpt lat="49.42893" lon="1.13468">
        <ele>140</ele>
        <time>2017-11-14T16:07:23Z</time>
      </trkpt>
      <trkpt lat="49.42893" lon="1.13475">
        <ele>140</ele>
        <time>2017-11-14T16:07:23Z</time>
      </trkpt>
      <trkpt lat="49.42893" lon="1.13482">
        <ele>140</ele>
        <time>2017-11-14T16:07:23Z</time>
      </trkpt>
      <trkpt lat="49.42892" lon="1.13489">
        <ele>140</ele>
        <time>2017-11-14T16:07:39Z</time>
      </trkpt>
      <trkpt lat="49.42891" lon="1.13495">
        <ele>140</ele>
        <time>2017-11-14T16:07:39Z</time>
      </trkpt>
      <trkpt lat="49.4289" lon="1.13502">
        <ele>140</ele>
        <time>2017-11-14T16:07:39Z</time>
      </trkpt>
      <trkpt lat="49.42888" lon="1.13508">
        <ele>140</ele>
        <time>2017-11-14T16:07:39Z</time>
      </trkpt>
      <trkpt lat="49.42886" lon="1.13514">
        <ele>140</ele>
        <time>2017-11-14T16:07:55Z</time>
      </trkpt>
      <trkpt lat="49.42884" lon="1.1352">
        <ele>140</ele>
        <time>2017-11-14T16:07:55Z</time>
      </trkpt>
      <trkpt lat="49.4288" lon="1.13526">
        <ele>140</ele>
        <time>2017-11-14T16:07:55Z</time>
      </trkpt>
      <trkpt lat="49.42877" lon="1.13529">
        <ele>140</ele>
        <time>2017-11-14T16:07:55Z</time>
      </trkpt>
      <trkpt lat="49.42874" lon="1.13534">
        <ele>144</ele>
        <time>2017-11-14T16:08:11Z</time>
      </trkpt>
      <trkpt lat="49.42872" lon="1.13537">
        <ele>144</ele>
        <time>2017-11-14T16:08:11Z</time>
      </trkpt>
      <trkpt lat="49.42869" lon="1.13541">
        <ele>144</ele>
        <time>2017-11-14T16:08:11Z</time>
      </trkpt>
      <trkpt lat="49.42867" lon="1.13545">
        <ele>142</ele>
        <time>2017-11-14T16:08:11Z</time>
      </trkpt>
      <trkpt lat="49.42863" lon="1.1355">
        <ele>142</ele>
        <time>2017-11-14T16:08:27Z</time>
      </trkpt>
      <trkpt lat="49.42861" lon="1.13553">
        <ele>142</ele>
        <time>2017-11-14T16:08:27Z</time>
      </trkpt>
      <trkpt lat="49.42858" lon="1.13557">
        <ele>142</ele>
        <time>2017-11-14T16:08:27Z</time>
      </trkpt>
      <trkpt lat="49.42854" lon="1.13561">
        <ele>142</ele>
        <time>2017-11-14T16:08:27Z</time>
      </trkpt>
      <trkpt lat="49.42851" lon="1.13566">
        <ele>142</ele>
        <time>2017-11-14T16:08:43Z</time>
      </trkpt>
      <trkpt lat="49.42847" lon="1.1357">
        <ele>142</ele>
        <time>2017-11-14T16:08:43Z</time>
      </trkpt>
      <trkpt lat="49.42844" lon="1.13575">
        <ele>142</ele>
        <time>2017-11-14T16:08:43Z</time>
      </trkpt>
      <trkpt lat="49.4284" lon="1.13579">
        <ele>142</ele>
        <time>2017-11-14T16:08:43Z</time>
      </trkpt>
      <trkpt lat="49.42836" lon="1.13585">
        <ele>142</ele>
        <time>2017-11-14T16:08:59Z</time>
      </trkpt>
      <trkpt lat="49.42833" lon="1.13588">
        <ele>142</ele>
        <time>2017-11-14T16:08:59Z</time>
      </trkpt>
      <trkpt lat="49.42829" lon="1.13593">
        <ele>142</ele>
        <time>2017-11-14T16:08:59Z</time>
      </trkpt>
      <trkpt lat="49.42826" lon="1.13598">
        <ele>142</ele>
        <time>2017-11-14T16:08:59Z</time>
      </trkpt>
      <trkpt lat="49.42821" lon="1.13603">
        <ele>142</ele>
        <time>2017-11-14T16:09:15Z</time>
      </trkpt>
      <trkpt lat="49.42819" lon="1.13606">
        <ele>142</ele>
        <time>2017-11-14T16:09:15Z</time>
      </trkpt>
      <trkpt lat="49.42815" lon="1.13611">
        <ele>142</ele>
        <time>2017-11-14T16:09:15Z</time>
      </trkpt>
      <trkpt lat="49.42811" lon="1.13615">
        <ele>142</ele>
        <time>2017-11-14T16:09:15Z</time>
      </trkpt>
      <trkpt lat="49.42808" lon="1.13619">
        <ele>142</ele>
        <time>2017-11-14T16:09:31Z</time>
      </trkpt>
      <trkpt lat="49.42804" lon="1.13623">
        <ele>142</ele>
        <time>2017-11-14T16:09:31Z</time>
      </trkpt>
      <trkpt lat="49.42801" lon="1.13628">
        <ele>141</ele>
        <time>2017-11-14T16:09:31Z</time>
      </trkpt>
      <trkpt lat="49.42797" lon="1.13632">
        <ele>141</ele>
        <time>2017-11-14T16:09:31Z</time>
      </trkpt>
      <trkpt lat="49.42793" lon="1.13637">
        <ele>141</ele>
        <time>2017-11-14T16:09:47Z</time>
      </trkpt>
      <trkpt lat="49.4279" lon="1.13641">
        <ele>143</ele>
        <time>2017-11-14T16:09:47Z</time>
      </trkpt>
      <trkpt lat="49.42787" lon="1.13645">
        <ele>143</ele>
        <time>2017-11-14T16:09:47Z</time>
      </trkpt>
      <trkpt lat="49.42783" lon="1.1365">
        <ele>143</ele>
        <time>2017-11-14T16:09:47Z</time>
      </trkpt>
      <trkpt lat="49.42779" lon="1.13654">
        <ele>143</ele>
        <time>2017-11-14T16:10:03Z</time>
      </trkpt>
      <trkpt lat="49.42775" lon="1.1366">
        <ele>143</ele>
        <time>2017-11-14T16:10:03Z</time>
      </trkpt>
      <trkpt lat="49.42772" lon="1.13663">
        <ele>143</ele>
        <time>2017-11-14T16:10:03Z</time>
      </trkpt>
      <trkpt lat="49.42768" lon="1.13667">
        <ele>143</ele>
        <time>2017-11-14T16:10:03Z</time>
      </trkpt>
      <trkpt lat="49.42764" lon="1.13672">
        <ele>143</ele>
        <time>2017-11-14T16:10:19Z</time>
      </trkpt>
      <trkpt lat="49.4276" lon="1.13676">
        <ele>143</ele>
        <time>2017-11-14T16:10:19Z</time>
      </trkpt>
      <trkpt lat="49.42758" lon="1.13679">
        <ele>143</ele>
        <time>2017-11-14T16:10:19Z</time>
      </trkpt>
      <trkpt lat="49.42754" lon="1.13683">
        <ele>143</ele>
        <time>2017-11-14T16:10:19Z</time>
      </trkpt>
      <trkpt lat="49.42749" lon="1.13689">
        <ele>143</ele>
        <time>2017-11-14T16:10:35Z</time>
      </trkpt>
      <trkpt lat="49.42747" lon="1.13692">
        <ele>143</ele>
        <time>2017-11-14T16:10:35Z</time>
      </trkpt>
      <trkpt lat="49.42743" lon="1.13696">
        <ele>143</ele>
        <time>2017-11-14T16:10:35Z</time>
      </trkpt>
      <trkpt lat="49.4274" lon="1.13701">
        <ele>143</ele>
        <time>2017-11-14T16:10:35Z</time>
      </trkpt>
      <trkpt lat="49.42736" lon="1.13705">
        <ele>143</ele>
        <time>2017-11-14T16:10:51Z</time>
      </trkpt>
      <trkpt lat="49.42732" lon="1.13709">
        <ele>140</ele>
        <time>2017-11-14T16:10:51Z</time>
      </trkpt>
      <trkpt lat="49.42729" lon="1.13713">
        <ele>140</ele>
        <time>2017-11-14T16:10:51Z</time>
      </trkpt>
      <trkpt lat="49.42725" lon="1.13718">
        <ele>140</ele>
        <time>2017-11-14T16:10:51Z</time>
      </trkpt>
      <trkpt lat="49.42721" lon="1.13723">
        <ele>140</ele>
        <time>2017-11-14T16:11:07Z</time>
      </trkpt>
      <trkpt lat="49.42718" lon="1.13726">
        <ele>140</ele>
        <time>2017-11-14T16:11:07Z</time>
      </trkpt>
      <trkpt lat="49.42715" lon="1.13731">
        <ele>140</ele>
        <time>2017-11-14T16:11:07Z</time>
      </trkpt>
      <trkpt lat="49.42711" lon="1.13735">
        <ele>140</ele>
        <time>2017-11-14T16:11:07Z</time>
      </trkpt>
      <trkpt lat="49.42707" lon="1.13739">
        <ele>144</ele>
        <time>2017-11-14T16:11:23Z</time>
      </trkpt>
      <trkpt lat="49.42704" lon="1.13744">
        <ele>144</ele>
        <time>2017-11-14T16:11:23Z</time>
      </trkpt>
      <trkpt lat="49.427" lon="1.13748">
        <ele>144</ele>
        <time>2017-11-14T16:11:23Z</time>
      </trkpt>
      <trkpt lat="49.42696" lon="1.13752">
        <ele>144</ele>
        <time>2017-11-14T16:11:23Z</time>
      </trkpt>
      <trkpt lat="49.4269" lon="1.13756">
        <ele>144</ele>
        <time>2017-11-14T16:11:39Z</time>
      </trkpt>
      <trkpt lat="49.42687" lon="1.13758">
        <ele>144</ele>
        <time>2017-11-14T16:11:39Z</time>
      </trkpt>
      <trkpt lat="49.42683" lon="1.13762">
        <ele>144</ele>
        <time>2017-11-14T16:11:39Z</time>
      </trkpt>
      <trkpt lat="49.42679" lon="1.13765">
        <ele>144</ele>
        <time>2017-11-14T16:11:39Z</time>
      </trkpt>
      <trkpt lat="49.42675" lon="1.13768">
        <ele>144</ele>
        <time>2017-11-14T16:11:55Z</time>
      </trkpt>
      <trkpt lat="49.42671" lon="1.13771">
        <ele>144</ele>
        <time>2017-11-14T16:11:55Z</time>
      </trkpt>
      <trkpt lat="49.42667" lon="1.13774">
        <ele>144</ele>
        <time>2017-11-14T16:11:55Z</time>
      </trkpt>
      <trkpt lat="49.42663" lon="1.13776">
        <ele>144</ele>
        <time>2017-11-14T16:11:55Z</time>
      </trkpt>
      <trkpt lat="49.42659" lon="1.13774">
        <ele>144</ele>
        <time>2017-11-14T16:12:11Z</time>
      </trkpt>
      <trkpt lat="49.42657" lon="1.13777">
        <ele>144</ele>
        <time>2017-11-14T16:12:11Z</time>
      </trkpt>
      <trkpt lat="49.42653" lon="1.13777">
        <ele>144</ele>
        <time>2017-11-14T16:12:11Z</time>
      </trkpt>
      <trkpt lat="49.42649" lon="1.13776">
        <ele>144</ele>
        <time>2017-11-14T16:12:11Z</time>
      </trkpt>
      <trkpt lat="49.42645" lon="1.13775">
        <ele>144</ele>
        <time>2017-11-14T16:12:27Z</time>
      </trkpt>
      <trkpt lat="49.4264" lon="1.13775">
        <ele>144</ele>
        <time>2017-11-14T16:12:27Z</time>
      </trkpt>
      <trkpt lat="49.42637" lon="1.1378">
        <ele>144</ele>
        <time>2017-11-14T16:12:27Z</time>
      </trkpt>
      <trkpt lat="49.42633" lon="1.13784">
        <ele>144</ele>
        <time>2017-11-14T16:12:27Z</time>
      </trkpt>
      <trkpt lat="49.42629" lon="1.13787">
        <ele>144</ele>
        <time>2017-11-14T16:12:43Z</time>
      </trkpt>
      <trkpt lat="49.42625" lon="1.13789">
        <ele>144</ele>
        <time>2017-11-14T16:12:43Z</time>
      </trkpt>
      <trkpt lat="49.42621" lon="1.13793">
        <ele>140</ele>
        <time>2017-11-14T16:12:43Z</time>
      </trkpt>
      <trkpt lat="49.42617" lon="1.13795">
        <ele>140</ele>
        <time>2017-11-14T16:12:43Z</time>
      </trkpt>
      <trkpt lat="49.42612" lon="1.13797">
        <ele>140</ele>
        <time>2017-11-14T16:12:59Z</time>
      </trkpt>
      <trkpt lat="49.42608" lon="1.138">
        <ele>140</ele>
        <time>2017-11-14T16:12:59Z</time>
      </trkpt>
      <trkpt lat="49.42604" lon="1.13803">
        <ele>140</ele>
        <time>2017-11-14T16:12:59Z</time>
      </trkpt>
      <trkpt lat="49.42601" lon="1.13805">
        <ele>140</ele>
        <time>2017-11-14T16:12:59Z</time>
      </trkpt>
      <trkpt lat="49.42597" lon="1.13808">
        <ele>140</ele>
        <time>2017-11-14T16:13:15Z</time>
      </trkpt>
      <trkpt lat="49.42593" lon="1.1381">
        <ele>140</ele>
        <time>2017-11-14T16:13:15Z</time>
      </trkpt>
      <trkpt lat="49.42589" lon="1.13812">
        <ele>140</ele>
        <time>2017-11-14T16:13:15Z</time>
      </trkpt>
      <trkpt lat="49.42585" lon="1.13814">
        <ele>140</ele>
        <time>2017-11-14T16:13:15Z</time>
      </trkpt>
      <trkpt lat="49.4258" lon="1.13818">
        <ele>140</ele>
        <time>2017-11-14T16:13:31Z</time>
      </trkpt>
      <trkpt lat="49.42577" lon="1.1382">
        <ele>140</ele>
        <time>2017-11-14T16:13:31Z</time>
      </trkpt>
      <trkpt lat="49.42573" lon="1.13823">
        <ele>140</ele>
        <time>2017-11-14T16:13:31Z</time>
      </trkpt>
      <trkpt lat="49.42568" lon="1.13825">
        <ele>140</ele>
        <time>2017-11-14T16:13:31Z</time>
      </trkpt>
      <trkpt lat="49.42564" lon="1.13828">
        <ele>140</ele>
        <time>2017-11-14T16:13:47Z</time>
      </trkpt>
      <trkpt lat="49.42561" lon="1.13832">
        <ele>140</ele>
        <time>2017-11-14T16:13:47Z</time>
      </trkpt>
      <trkpt lat="49.42557" lon="1.13835">
        <ele>140</ele>
        <time>2017-11-14T16:13:47Z</time>
      </trkpt>
      <trkpt lat="49.42553" lon="1.13838">
        <ele>140</ele>
        <time>2017-11-14T16:13:47Z</time>
      </trkpt>
      <trkpt lat="49.42549" lon="1.13842">
        <ele>140</ele>
        <time>2017-11-14T16:14:03Z</time>
      </trkpt>
      <trkpt lat="49.42545" lon="1.13845">
        <ele>140</ele>
        <time>2017-11-14T16:14:03Z</time>
      </trkpt>
      <trkpt lat="49.42541" lon="1.13849">
        <ele>150</ele>
        <time>2017-11-14T16:14:03Z</time>
      </trkpt>
      <trkpt lat="49.42537" lon="1.13852">
        <ele>150</ele>
        <time>2017-11-14T16:14:03Z</time>
      </trkpt>
      <trkpt lat="49.42533" lon="1.13855">
        <ele>150</ele>
        <time>2017-11-14T16:14:19Z</time>
      </trkpt>
      <trkpt lat="49.42529" lon="1.13859">
        <ele>150</ele>
        <time>2017-11-14T16:14:19Z</time>
      </trkpt>
      <trkpt lat="49.42525" lon="1.13862">
        <ele>150</ele>
        <time>2017-11-14T16:14:19Z</time>
      </trkpt>
      <trkpt lat="49.42522" lon="1.13866">
        <ele>150</ele>
        <time>2017-11-14T16:14:19Z</time>
      </trkpt>
      <trkpt lat="49.42517" lon="1.13869">
        <ele>150</ele>
        <time>2017-11-14T16:14:35Z</time>
      </trkpt>
      <trkpt lat="49.42514" lon="1.13872">
        <ele>150</ele>
        <time>2017-11-14T16:14:35Z</time>
      </trkpt>
      <trkpt lat="49.4251" lon="1.13875">
        <ele>160</ele>
        <time>2017-11-14T16:14:35Z</time>
      </trkpt>
      <trkpt lat="49.42506" lon="1.13879">
        <ele>160</ele>
        <time>2017-11-14T16:14:35Z</time>
      </trkpt>
      <trkpt lat="49.42503" lon="1.13882">
        <ele>160</ele>
        <time>2017-11-14T16:14:51Z</time>
      </trkpt>
      <trkpt lat="49.42499" lon="1.13886">
        <ele>160</ele>
        <time>2017-11-14T16:14:51Z</time>
      </trkpt>
      <trkpt lat="49.42495" lon="1.13888">
        <ele>160</ele>
        <time>2017-11-14T16:14:51Z</time>
      </trkpt>
      <trkpt lat="49.42491" lon="1.13891">
        <ele>160</ele>
        <time>2017-11-14T16:14:51Z</time>
      </trkpt>
      <trkpt lat="49.42487" lon="1.13894">
        <ele>160</ele>
        <time>2017-11-14T16:15:07Z</time>
      </trkpt>
      <trkpt lat="49.42484" lon="1.13897">
        <ele>160</ele>
        <time>2017-11-14T16:15:07Z</time>
      </trkpt>
      <trkpt lat="49.42479" lon="1.139">
        <ele>160</ele>
        <time>2017-11-14T16:15:07Z</time>
      </trkpt>
      <trkpt lat="49.42476" lon="1.13903">
        <ele>160</ele>
        <time>2017-11-14T16:15:07Z</time>
      </trkpt>
      <trkpt lat="49.42472" lon="1.13906">
        <ele>160</ele>
        <time>2017-11-14T16:15:23Z</time>
      </trkpt>
      <trkpt lat="49.42468" lon="1.13909">
        <ele>160</ele>
        <time>2017-11-14T16:15:23Z</time>
      </trkpt>
      <trkpt lat="49.42464" lon="1.13912">
        <ele>160</ele>
        <time>2017-11-14T16:15:23Z</time>
      </trkpt>
      <trkpt lat="49.4246" lon="1.13915">
        <ele>160</ele>
        <time>2017-11-14T16:15:23Z</time>
      </trkpt>
      <trkpt lat="49.42457" lon="1.13919">
        <ele>187</ele>
        <time>2017-11-14T16:15:39Z</time>
      </trkpt>
      <trkpt lat="49.42453" lon="1.13922">
        <ele>187</ele>
        <time>2017-11-14T16:15:39Z</time>
      </trkpt>
      <trkpt lat="49.42449" lon="1.13925">
        <ele>187</ele>
        <time>2017-11-14T16:15:39Z</time>
      </trkpt>
      <trkpt lat="49.42445" lon="1.13929">
        <ele>187</ele>
        <time>2017-11-14T16:15:39Z</time>
      </trkpt>
      <trkpt lat="49.42442" lon="1.13932">
        <ele>187</ele>
        <time>2017-11-14T16:15:55Z</time>
      </trkpt>
      <trkpt lat="49.42438" lon="1.13935">
        <ele>187</ele>
        <time>2017-11-14T16:15:55Z</time>
      </trkpt>
      <trkpt lat="49.42434" lon="1.13939">
        <ele>187</ele>
        <time>2017-11-14T16:15:55Z</time>
      </trkpt>
      <trkpt lat="49.42431" lon="1.13942">
        <ele>187</ele>
        <time>2017-11-14T16:15:55Z</time>
      </trkpt>
      <trkpt lat="49.42426" lon="1.13945">
        <ele>187</ele>
        <time>2017-11-14T16:16:11Z</time>
      </trkpt>
      <trkpt lat="49.42422" lon="1.13949">
        <ele>187</ele>
        <time>2017-11-14T16:16:11Z</time>
      </trkpt>
      <trkpt lat="49.42418" lon="1.13952">
        <ele>187</ele>
        <time>2017-11-14T16:16:11Z</time>
      </trkpt>
      <trkpt lat="49.42415" lon="1.13955">
        <ele>187</ele>
        <time>2017-11-14T16:16:11Z</time>
      </trkpt>
      <trkpt lat="49.42411" lon="1.13958">
        <ele>187</ele>
        <time>2017-11-14T16:16:27Z</time>
      </trkpt>
      <trkpt lat="49.42407" lon="1.13961">
        <ele>194</ele>
        <time>2017-11-14T16:16:27Z</time>
      </trkpt>
      <trkpt lat="49.42403" lon="1.13964">
        <ele>194</ele>
        <time>2017-11-14T16:16:27Z</time>
      </trkpt>
      <trkpt lat="49.42399" lon="1.13967">
        <ele>194</ele>
        <time>2017-11-14T16:16:27Z</time>
      </trkpt>
      <trkpt lat="49.42395" lon="1.1397">
        <ele>194</ele>
        <time>2017-11-14T16:16:43Z</time>
      </trkpt>
      <trkpt lat="49.42391" lon="1.13974">
        <ele>194</ele>
        <time>2017-11-14T16:16:43Z</time>
      </trkpt>
      <trkpt lat="49.42387" lon="1.13977">
        <ele>194</ele>
        <time>2017-11-14T16:16:43Z</time>
      </trkpt>
      <trkpt lat="49.42383" lon="1.13981">
        <ele>194</ele>
        <time>2017-11-14T16:16:43Z</time>
      </trkpt>
      <trkpt lat="49.42379" lon="1.13984">
        <ele>194</ele>
        <time>2017-11-14T16:16:59Z</time>
      </trkpt>
      <trkpt lat="49.42376" lon="1.13987">
        <ele>194</ele>
        <time>2017-11-14T16:16:59Z</time>
      </trkpt>
      <trkpt lat="49.42372" lon="1.13989">
        <ele>151</ele>
        <time>2017-11-14T16:16:59Z</time>
      </trkpt>
      <trkpt lat="49.42368" lon="1.13992">
        <ele>151</ele>
        <time>2017-11-14T16:16:59Z</time>
      </trkpt>
      <trkpt lat="49.42364" lon="1.13995">
        <ele>151</ele>
        <time>2017-11-14T16:17:15Z</time>
      </trkpt>
      <trkpt lat="49.4236" lon="1.13998">
        <ele>151</ele>
        <time>2017-11-14T16:17:15Z</time>
      </trkpt>
      <trkpt lat="49.42356" lon="1.14001">
        <ele>151</ele>
        <time>2017-11-14T16:17:15Z</time>
      </trkpt>
      <trkpt lat="49.42352" lon="1.14004">
        <ele>151</ele>
        <time>2017-11-14T16:17:15Z</time>
      </trkpt>
      <trkpt lat="49.42349" lon="1.14007">
        <ele>151</ele>
        <time>2017-11-14T16:17:31Z</time>
      </trkpt>
      <trkpt lat="49.42345" lon="1.14011">
        <ele>151</ele>
        <time>2017-11-14T16:17:31Z</time>
      </trkpt>
      <trkpt lat="49.42341" lon="1.14014">
        <ele>151</ele>
        <time>2017-11-14T16:17:31Z</time>
      </trkpt>
      <trkpt lat="49.42337" lon="1.14017">
        <ele>151</ele>
        <time>2017-11-14T16:17:31Z</time>
      </trkpt>
      <trkpt lat="49.42333" lon="1.14021">
        <ele>151</ele>
        <time>2017-11-14T16:17:47Z</time>
      </trkpt>
      <trkpt lat="49.42329" lon="1.14024">
        <ele>151</ele>
        <time>2017-11-14T16:17:47Z</time>
      </trkpt>
      <trkpt lat="49.42325" lon="1.14028">
        <ele>151</ele>
        <time>2017-11-14T16:17:47Z</time>
      </trkpt>
      <trkpt lat="49.42321" lon="1.14031">
        <ele>151</ele>
        <time>2017-11-14T16:17:47Z</time>
      </trkpt>
      <trkpt lat="49.42317" lon="1.14034">
        <ele>151</ele>
        <time>2017-11-14T16:18:03Z</time>
      </trkpt>
      <trkpt lat="49.42313" lon="1.14038">
        <ele>151</ele>
        <time>2017-11-14T16:18:03Z</time>
      </trkpt>
      <trkpt lat="49.42309" lon="1.14041">
        <ele>151</ele>
        <time>2017-11-14T16:18:03Z</time>
      </trkpt>
      <trkpt lat="49.42305" lon="1.14044">
        <ele>157</ele>
        <time>2017-11-14T16:18:03Z</time>
      </trkpt>
      <trkpt lat="49.42301" lon="1.14047">
        <ele>157</ele>
        <time>2017-11-14T16:18:19Z</time>
      </trkpt>
      <trkpt lat="49.42298" lon="1.1405">
        <ele>157</ele>
        <time>2017-11-14T16:18:19Z</time>
      </trkpt>
      <trkpt lat="49.42294" lon="1.14055">
        <ele>157</ele>
        <time>2017-11-14T16:18:19Z</time>
      </trkpt>
      <trkpt lat="49.42291" lon="1.1406">
        <ele>150</ele>
        <time>2017-11-14T16:18:19Z</time>
      </trkpt>
      <trkpt lat="49.42287" lon="1.14063">
        <ele>150</ele>
        <time>2017-11-14T16:18:35Z</time>
      </trkpt>
      <trkpt lat="49.42283" lon="1.14067">
        <ele>150</ele>
        <time>2017-11-14T16:18:35Z</time>
      </trkpt>
      <trkpt lat="49.42279" lon="1.1407">
        <ele>150</ele>
        <time>2017-11-14T16:18:35Z</time>
      </trkpt>
      <trkpt lat="49.42275" lon="1.14074">
        <ele>150</ele>
        <time>2017-11-14T16:18:35Z</time>
      </trkpt>
      <trkpt lat="49.42271" lon="1.14077">
        <ele>150</ele>
        <time>2017-11-14T16:18:51Z</time>
      </trkpt>
      <trkpt lat="49.42268" lon="1.1408">
        <ele>150</ele>
        <time>2017-11-14T16:18:51Z</time>
      </trkpt>
      <trkpt lat="49.42264" lon="1.14083">
        <ele>150</ele>
        <time>2017-11-14T16:18:51Z</time>
      </trkpt>
      <trkpt lat="49.42259" lon="1.14086">
        <ele>150</ele>
        <time>2017-11-14T16:18:51Z</time>
      </trkpt>
      <trkpt lat="49.42255" lon="1.1409">
        <ele>150</ele>
        <time>2017-11-14T16:19:07Z</time>
      </trkpt>
      <trkpt lat="49.42252" lon="1.14094">
        <ele>150</ele>
        <time>2017-11-14T16:19:07Z</time>
      </trkpt>
      <trkpt lat="49.42248" lon="1.14097">
        <ele>150</ele>
        <time>2017-11-14T16:19:07Z</time>
      </trkpt>
      <trkpt lat="49.42244" lon="1.141">
        <ele>150</ele>
        <time>2017-11-14T16:19:07Z</time>
      </trkpt>
      <trkpt lat="49.4224" lon="1.14101">
        <ele>150</ele>
        <time>2017-11-14T16:19:23Z</time>
      </trkpt>
      <trkpt lat="49.42235" lon="1.14102">
        <ele>150</ele>
        <time>2017-11-14T16:19:23Z</time>
      </trkpt>
      <trkpt lat="49.42231" lon="1.14103">
        <ele>150</ele>
        <time>2017-11-14T16:19:23Z</time>
      </trkpt>
      <trkpt lat="49.42226" lon="1.14106">
        <ele>150</ele>
        <time>2017-11-14T16:19:23Z</time>
      </trkpt>
      <trkpt lat="49.42222" lon="1.1411">
        <ele>150</ele>
        <time>2017-11-14T16:19:39Z</time>
      </trkpt>
      <trkpt lat="49.42218" lon="1.14113">
        <ele>150</ele>
        <time>2017-11-14T16:19:39Z</time>
      </trkpt>
      <trkpt lat="49.42215" lon="1.14116">
        <ele>150</ele>
        <time>2017-11-14T16:19:39Z</time>
      </trkpt>
      <trkpt lat="49.42211" lon="1.14119">
        <ele>150</ele>
        <time>2017-11-14T16:19:39Z</time>
      </trkpt>
      <trkpt lat="49.42207" lon="1.14123">
        <ele>151</ele>
        <time>2017-11-14T16:19:55Z</time>
      </trkpt>
      <trkpt lat="49.42203" lon="1.14126">
        <ele>151</ele>
        <time>2017-11-14T16:19:55Z</time>
      </trkpt>
      <trkpt lat="49.42199" lon="1.1413">
        <ele>151</ele>
        <time>2017-11-14T16:19:55Z</time>
      </trkpt>
      <trkpt lat="49.42195" lon="1.14133">
        <ele>151</ele>
        <time>2017-11-14T16:19:55Z</time>
      </trkpt>
      <trkpt lat="49.42191" lon="1.14137">
        <ele>151</ele>
        <time>2017-11-14T16:20:11Z</time>
      </trkpt>
      <trkpt lat="49.42187" lon="1.1414">
        <ele>151</ele>
        <time>2017-11-14T16:20:11Z</time>
      </trkpt>
      <trkpt lat="49.42183" lon="1.14144">
        <ele>151</ele>
        <time>2017-11-14T16:20:11Z</time>
      </trkpt>
      <trkpt lat="49.42179" lon="1.14147">
        <ele>151</ele>
        <time>2017-11-14T16:20:11Z</time>
      </trkpt>
      <trkpt lat="49.42175" lon="1.14151">
        <ele>151</ele>
        <time>2017-11-14T16:20:27Z</time>
      </trkpt>
      <trkpt lat="49.42171" lon="1.14154">
        <ele>151</ele>
        <time>2017-11-14T16:20:27Z</time>
      </trkpt>
      <trkpt lat="49.42167" lon="1.14157">
        <ele>151</ele>
        <time>2017-11-14T16:20:27Z</time>
      </trkpt>
      <trkpt lat="49.42163" lon="1.14161">
        <ele>151</ele>
        <time>2017-11-14T16:20:27Z</time>
      </trkpt>
      <trkpt lat="49.42158" lon="1.14164">
        <ele>151</ele>
        <time>2017-11-14T16:20:43Z</time>
      </trkpt>
      <trkpt lat="49.42154" lon="1.14167">
        <ele>151</ele>
        <time>2017-11-14T16:20:43Z</time>
      </trkpt>
      <trkpt lat="49.4215" lon="1.14171">
        <ele>151</ele>
        <time>2017-11-14T16:20:43Z</time>
      </trkpt>
      <trkpt lat="49.42146" lon="1.14174">
        <ele>151</ele>
        <time>2017-11-14T16:20:43Z</time>
      </trkpt>
      <trkpt lat="49.42142" lon="1.14177">
        <ele>151</ele>
        <time>2017-11-14T16:20:59Z</time>
      </trkpt>
      <trkpt lat="49.42138" lon="1.14181">
        <ele>151</ele>
        <time>2017-11-14T16:20:59Z</time>
      </trkpt>
      <trkpt lat="49.42133" lon="1.14185">
        <ele>151</ele>
        <time>2017-11-14T16:20:59Z</time>
      </trkpt>
      <trkpt lat="49.42129" lon="1.14189">
        <ele>151</ele>
        <time>2017-11-14T16:20:59Z</time>
      </trkpt>
      <trkpt lat="49.42125" lon="1.14193">
        <ele>151</ele>
        <time>2017-11-14T16:21:15Z</time>
      </trkpt>
      <trkpt lat="49.4212" lon="1.14197">
        <ele>151</ele>
        <time>2017-11-14T16:21:15Z</time>
      </trkpt>
      <trkpt lat="49.42116" lon="1.14201">
        <ele>151</ele>
        <time>2017-11-14T16:21:15Z</time>
      </trkpt>
      <trkpt lat="49.42112" lon="1.14205">
        <ele>151</ele>
        <time>2017-11-14T16:21:15Z</time>
      </trkpt>
      <trkpt lat="49.42108" lon="1.14209">
        <ele>151</ele>
        <time>2017-11-14T16:21:31Z</time>
      </trkpt>
      <trkpt lat="49.42103" lon="1.14213">
        <ele>151</ele>
        <time>2017-11-14T16:21:31Z</time>
      </trkpt>
      <trkpt lat="49.42099" lon="1.14217">
        <ele>151</ele>
        <time>2017-11-14T16:21:31Z</time>
      </trkpt>
      <trkpt lat="49.42094" lon="1.14221">
        <ele>151</ele>
        <time>2017-11-14T16:21:31Z</time>
      </trkpt>
      <trkpt lat="49.4209" lon="1.14225">
        <ele>151</ele>
        <time>2017-11-14T16:21:47Z</time>
      </trkpt>
      <trkpt lat="49.42086" lon="1.14229">
        <ele>151</ele>
        <time>2017-11-14T16:21:47Z</time>
      </trkpt>
      <trkpt lat="49.42082" lon="1.14232">
        <ele>151</ele>
        <time>2017-11-14T16:21:47Z</time>
      </trkpt>
      <trkpt lat="49.42078" lon="1.14236">
        <ele>151</ele>
        <time>2017-11-14T16:21:47Z</time>
      </trkpt>
      <trkpt lat="49.42074" lon="1.14241">
        <ele>151</ele>
        <time>2017-11-14T16:22:03Z</time>
      </trkpt>
      <trkpt lat="49.4207" lon="1.14244">
        <ele>151</ele>
        <time>2017-11-14T16:22:03Z</time>
      </trkpt>
      <trkpt lat="49.42066" lon="1.14248">
        <ele>151</ele>
        <time>2017-11-14T16:22:03Z</time>
      </trkpt>
      <trkpt lat="49.42062" lon="1.14252">
        <ele>151</ele>
        <time>2017-11-14T16:22:03Z</time>
      </trkpt>
      <trkpt lat="49.42058" lon="1.14256">
        <ele>151</ele>
        <time>2017-11-14T16:22:19Z</time>
      </trkpt>
      <trkpt lat="49.42054" lon="1.1426">
        <ele>151</ele>
        <time>2017-11-14T16:22:19Z</time>
      </trkpt>
      <trkpt lat="49.4205" lon="1.14265">
        <ele>151</ele>
        <time>2017-11-14T16:22:19Z</time>
      </trkpt>
      <trkpt lat="49.42046" lon="1.14269">
        <ele>151</ele>
        <time>2017-11-14T16:22:19Z</time>
      </trkpt>
      <trkpt lat="49.42043" lon="1.14273">
        <ele>151</ele>
        <time>2017-11-14T16:22:35Z</time>
      </trkpt>
      <trkpt lat="49.42038" lon="1.14276">
        <ele>151</ele>
        <time>2017-11-14T16:22:35Z</time>
      </trkpt>
      <trkpt lat="49.42034" lon="1.14277">
        <ele>151</ele>
        <time>2017-11-14T16:22:35Z</time>
      </trkpt>
      <trkpt lat="49.42028" lon="1.14277">
        <ele>151</ele>
        <time>2017-11-14T16:22:35Z</time>
      </trkpt>
      <trkpt lat="49.42023" lon="1.1428">
        <ele>151</ele>
        <time>2017-11-14T16:22:51Z</time>
      </trkpt>
      <trkpt lat="49.4202" lon="1.14285">
        <ele>151</ele>
        <time>2017-11-14T16:22:51Z</time>
      </trkpt>
      <trkpt lat="49.42018" lon="1.14291">
        <ele>151</ele>
        <time>2017-11-14T16:22:51Z</time>
      </trkpt>
      <trkpt lat="49.42016" lon="1.14297">
        <ele>150</ele>
        <time>2017-11-14T16:22:51Z</time>
      </trkpt>
      <trkpt lat="49.42013" lon="1.14301">
        <ele>150</ele>
        <time>2017-11-14T16:23:07Z</time>
      </trkpt>
      <trkpt lat="49.42009" lon="1.14303">
        <ele>150</ele>
        <time>2017-11-14T16:23:07Z</time>
      </trkpt>
      <trkpt lat="49.42005" lon="1.14306">
        <ele>150</ele>
        <time>2017-11-14T16:23:07Z</time>
      </trkpt>
      <trkpt lat="49.42001" lon="1.14309">
        <ele>150</ele>
        <time>2017-11-14T16:23:07Z</time>
      </trkpt>
      <trkpt lat="49.41997" lon="1.14313">
        <ele>150</ele>
        <time>2017-11-14T16:23:23Z</time>
      </trkpt>
      <trkpt lat="49.41993" lon="1.14316">
        <ele>150</ele>
        <time>2017-11-14T16:23:23Z</time>
      </trkpt>
      <trkpt lat="49.41989" lon="1.14319">
        <ele>150</ele>
        <time>2017-11-14T16:23:23Z</time>
      </trkpt>
      <trkpt lat="49.41985" lon="1.14322">
        <ele>150</ele>
        <time>2017-11-14T16:23:23Z</time>
      </trkpt>
      <trkpt lat="49.41981" lon="1.14325">
        <ele>150</ele>
        <time>2017-11-14T16:23:39Z</time>
      </trkpt>
      <trkpt lat="49.41977" lon="1.14329">
        <ele>150</ele>
        <time>2017-11-14T16:23:39Z</time>
      </trkpt>
      <trkpt lat="49.41973" lon="1.14333">
        <ele>150</ele>
        <time>2017-11-14T16:23:39Z</time>
      </trkpt>
      <trkpt lat="49.41969" lon="1.14336">
        <ele>150</ele>
        <time>2017-11-14T16:23:39Z</time>
      </trkpt>
      <trkpt lat="49.41965" lon="1.14339">
        <ele>150</ele>
        <time>2017-11-14T16:23:55Z</time>
      </trkpt>
      <trkpt lat="49.41961" lon="1.14343">
        <ele>150</ele>
        <time>2017-11-14T16:23:55Z</time>
      </trkpt>
      <trkpt lat="49.41957" lon="1.14346">
        <ele>150</ele>
        <time>2017-11-14T16:23:55Z</time>
      </trkpt>
      <trkpt lat="49.41953" lon="1.14349">
        <ele>150</ele>
        <time>2017-11-14T16:23:55Z</time>
      </trkpt>
      <trkpt lat="49.41949" lon="1.14352">
        <ele>150</ele>
        <time>2017-11-14T16:24:11Z</time>
      </trkpt>
      <trkpt lat="49.41945" lon="1.14355">
        <ele>150</ele>
        <time>2017-11-14T16:24:11Z</time>
      </trkpt>
      <trkpt lat="49.41941" lon="1.14359">
        <ele>150</ele>
        <time>2017-11-14T16:24:11Z</time>
      </trkpt>
      <trkpt lat="49.41937" lon="1.14362">
        <ele>150</ele>
        <time>2017-11-14T16:24:11Z</time>
      </trkpt>
      <trkpt lat="49.41933" lon="1.14365">
        <ele>150</ele>
        <time>2017-11-14T16:24:27Z</time>
      </trkpt>
      <trkpt lat="49.41929" lon="1.14368">
        <ele>150</ele>
        <time>2017-11-14T16:24:27Z</time>
      </trkpt>
      <trkpt lat="49.41924" lon="1.14371">
        <ele>150</ele>
        <time>2017-11-14T16:24:27Z</time>
      </trkpt>
      <trkpt lat="49.41919" lon="1.14373">
        <ele>150</ele>
        <time>2017-11-14T16:24:27Z</time>
      </trkpt>
      <trkpt lat="49.41915" lon="1.14376">
        <ele>149</ele>
        <time>2017-11-14T16:24:43Z</time>
      </trkpt>
      <trkpt lat="49.41911" lon="1.14378">
        <ele>149</ele>
        <time>2017-11-14T16:24:43Z</time>
      </trkpt>
      <trkpt lat="49.41906" lon="1.14379">
        <ele>149</ele>
        <time>2017-11-14T16:24:43Z</time>
      </trkpt>
      <trkpt lat="49.41901" lon="1.14381">
        <ele>149</ele>
        <time>2017-11-14T16:24:43Z</time>
      </trkpt>
      <trkpt lat="49.41897" lon="1.14383">
        <ele>149</ele>
        <time>2017-11-14T16:24:59Z</time>
      </trkpt>
      <trkpt lat="49.41893" lon="1.14387">
        <ele>149</ele>
        <time>2017-11-14T16:24:59Z</time>
      </trkpt>
      <trkpt lat="49.4189" lon="1.14393">
        <ele>149</ele>
        <time>2017-11-14T16:24:59Z</time>
      </trkpt>
      <trkpt lat="49.41886" lon="1.14396">
        <ele>149</ele>
        <time>2017-11-14T16:24:59Z</time>
      </trkpt>
      <trkpt lat="49.41882" lon="1.144">
        <ele>149</ele>
        <time>2017-11-14T16:25:15Z</time>
      </trkpt>
      <trkpt lat="49.41877" lon="1.14402">
        <ele>149</ele>
        <time>2017-11-14T16:25:15Z</time>
      </trkpt>
      <trkpt lat="49.41873" lon="1.14406">
        <ele>147</ele>
        <time>2017-11-14T16:25:15Z</time>
      </trkpt>
      <trkpt lat="49.41869" lon="1.14409">
        <ele>147</ele>
        <time>2017-11-14T16:25:15Z</time>
      </trkpt>
      <trkpt lat="49.41865" lon="1.14412">
        <ele>147</ele>
        <time>2017-11-14T16:25:31Z</time>
      </trkpt>
      <trkpt lat="49.41861" lon="1.14416">
        <ele>147</ele>
        <time>2017-11-14T16:25:31Z</time>
      </trkpt>
      <trkpt lat="49.41857" lon="1.14419">
        <ele>147</ele>
        <time>2017-11-14T16:25:31Z</time>
      </trkpt>
      <trkpt lat="49.41852" lon="1.14422">
        <ele>147</ele>
        <time>2017-11-14T16:25:31Z</time>
      </trkpt>
      <trkpt lat="49.41848" lon="1.14425">
        <ele>147</ele>
        <time>2017-11-14T16:25:47Z</time>
      </trkpt>
      <trkpt lat="49.41844" lon="1.14429">
        <ele>147</ele>
        <time>2017-11-14T16:25:47Z</time>
      </trkpt>
      <trkpt lat="49.4184" lon="1.14433">
        <ele>147</ele>
        <time>2017-11-14T16:25:47Z</time>
      </trkpt>
      <trkpt lat="49.41836" lon="1.14437">
        <ele>147</ele>
        <time>2017-11-14T16:25:47Z</time>
      </trkpt>
      <trkpt lat="49.41832" lon="1.1444">
        <ele>147</ele>
        <time>2017-11-14T16:26:03Z</time>
      </trkpt>
      <trkpt lat="49.41828" lon="1.14444">
        <ele>147</ele>
        <time>2017-11-14T16:26:03Z</time>
      </trkpt>
      <trkpt lat="49.41824" lon="1.14448">
        <ele>147</ele>
        <time>2017-11-14T16:26:03Z</time>
      </trkpt>
      <trkpt lat="49.4182" lon="1.14452">
        <ele>147</ele>
        <time>2017-11-14T16:26:03Z</time>
      </trkpt>
      <trkpt lat="49.41816" lon="1.14455">
        <ele>147</ele>
        <time>2017-11-14T16:26:19Z</time>
      </trkpt>
      <trkpt lat="49.41811" lon="1.14457">
        <ele>147</ele>
        <time>2017-11-14T16:26:19Z</time>
      </trkpt>
      <trkpt lat="49.41807" lon="1.1446">
        <ele>144</ele>
        <time>2017-11-14T16:26:19Z</time>
      </trkpt>
      <trkpt lat="49.41803" lon="1.14463">
        <ele>144</ele>
        <time>2017-11-14T16:26:19Z</time>
      </trkpt>
      <trkpt lat="49.418" lon="1.14468">
        <ele>144</ele>
        <time>2017-11-14T16:26:35Z</time>
      </trkpt>
      <trkpt lat="49.41797" lon="1.14474">
        <ele>144</ele>
        <time>2017-11-14T16:26:35Z</time>
      </trkpt>
      <trkpt lat="49.41793" lon="1.14478">
        <ele>144</ele>
        <time>2017-11-14T16:26:35Z</time>
      </trkpt>
      <trkpt lat="49.41789" lon="1.14481">
        <ele>144</ele>
        <time>2017-11-14T16:26:35Z</time>
      </trkpt>
      <trkpt lat="49.41785" lon="1.14484">
        <ele>144</ele>
        <time>2017-11-14T16:26:51Z</time>
      </trkpt>
      <trkpt lat="49.41781" lon="1.14488">
        <ele>144</ele>
        <time>2017-11-14T16:26:51Z</time>
      </trkpt>
      <trkpt lat="49.41777" lon="1.14492">
        <ele>144</ele>
        <time>2017-11-14T16:26:51Z</time>
      </trkpt>
      <trkpt lat="49.41774" lon="1.14497">
        <ele>144</ele>
        <time>2017-11-14T16:26:51Z</time>
      </trkpt>
      <trkpt lat="49.4177" lon="1.14502">
        <ele>144</ele>
        <time>2017-11-14T16:27:07Z</time>
      </trkpt>
      <trkpt lat="49.41766" lon="1.14505">
        <ele>144</ele>
        <time>2017-11-14T16:27:07Z</time>
      </trkpt>
      <trkpt lat="49.41762" lon="1.14509">
        <ele>144</ele>
        <time>2017-11-14T16:27:07Z</time>
      </trkpt>
      <trkpt lat="49.41758" lon="1.14512">
        <ele>144</ele>
        <time>2017-11-14T16:27:07Z</time>
      </trkpt>
      <trkpt lat="49.41753" lon="1.14516">
        <ele>144</ele>
        <time>2017-11-14T16:27:23Z</time>
      </trkpt>
      <trkpt lat="49.41749" lon="1.14519">
        <ele>144</ele>
        <time>2017-11-14T16:27:23Z</time>
      </trkpt>
      <trkpt lat="49.41745" lon="1.14523">
        <ele>144</ele>
        <time>2017-11-14T16:27:23Z</time>
      </trkpt>
      <trkpt lat="49.41741" lon="1.14528">
        <ele>144</ele>
        <time>2017-11-14T16:27:23Z</time>
      </trkpt>
      <trkpt lat="49.41737" lon="1.14531">
        <ele>144</ele>
        <time>2017-11-14T16:27:39Z</time>
      </trkpt>
      <trkpt lat="49.41733" lon="1.14535">
        <ele>144</ele>
        <time>2017-11-14T16:27:39Z</time>
      </trkpt>
      <trkpt lat="49.41729" lon="1.14539">
        <ele>144</ele>
        <time>2017-11-14T16:27:39Z</time>
      </trkpt>
      <trkpt lat="49.41725" lon="1.14543">
        <ele>141</ele>
        <time>2017-11-14T16:27:39Z</time>
      </trkpt>
      <trkpt lat="49.41721" lon="1.14547">
        <ele>141</ele>
        <time>2017-11-14T16:27:55Z</time>
      </trkpt>
      <trkpt lat="49.41716" lon="1.14551">
        <ele>141</ele>
        <time>2017-11-14T16:27:55Z</time>
      </trkpt>
      <trkpt lat="49.41712" lon="1.14555">
        <ele>141</ele>
        <time>2017-11-14T16:27:55Z</time>
      </trkpt>
      <trkpt lat="49.41708" lon="1.14559">
        <ele>142</ele>
        <time>2017-11-14T16:27:55Z</time>
      </trkpt>
      <trkpt lat="49.41704" lon="1.14563">
        <ele>142</ele>
        <time>2017-11-14T16:28:11Z</time>
      </trkpt>
      <trkpt lat="49.417" lon="1.14566">
        <ele>142</ele>
        <time>2017-11-14T16:28:11Z</time>
      </trkpt>
      <trkpt lat="49.41696" lon="1.1457">
        <ele>142</ele>
        <time>2017-11-14T16:28:11Z</time>
      </trkpt>
      <trkpt lat="49.41691" lon="1.14574">
        <ele>142</ele>
        <time>2017-11-14T16:28:11Z</time>
      </trkpt>
      <trkpt lat="49.41687" lon="1.14576">
        <ele>142</ele>
        <time>2017-11-14T16:28:27Z</time>
      </trkpt>
      <trkpt lat="49.41682" lon="1.14577">
        <ele>142</ele>
        <time>2017-11-14T16:28:27Z</time>
      </trkpt>
      <trkpt lat="49.41677" lon="1.14575">
        <ele>142</ele>
        <time>2017-11-14T16:28:27Z</time>
      </trkpt>
      <trkpt lat="49.41673" lon="1.14572">
        <ele>142</ele>
        <time>2017-11-14T16:28:27Z</time>
      </trkpt>
      <trkpt lat="49.41669" lon="1.14567">
        <ele>142</ele>
        <time>2017-11-14T16:28:43Z</time>
      </trkpt>
      <trkpt lat="49.41666" lon="1.14561">
        <ele>142</ele>
        <time>2017-11-14T16:28:43Z</time>
      </trkpt>
      <trkpt lat="49.41663" lon="1.14556">
        <ele>142</ele>
        <time>2017-11-14T16:28:43Z</time>
      </trkpt>
      <trkpt lat="49.41659" lon="1.14551">
        <ele>142</ele>
        <time>2017-11-14T16:28:43Z</time>
      </trkpt>
      <trkpt lat="49.41656" lon="1.14546">
        <ele>142</ele>
        <time>2017-11-14T16:28:59Z</time>
      </trkpt>
      <trkpt lat="49.41652" lon="1.1454">
        <ele>145</ele>
        <time>2017-11-14T16:28:59Z</time>
      </trkpt>
      <trkpt lat="49.41648" lon="1.14535">
        <ele>145</ele>
        <time>2017-11-14T16:28:59Z</time>
      </trkpt>
      <trkpt lat="49.41645" lon="1.1453">
        <ele>145</ele>
        <time>2017-11-14T16:28:59Z</time>
      </trkpt>
      <trkpt lat="49.41641" lon="1.14525">
        <ele>145</ele>
        <time>2017-11-14T16:29:15Z</time>
      </trkpt>
      <trkpt lat="49.41638" lon="1.14519">
        <ele>145</ele>
        <time>2017-11-14T16:29:15Z</time>
      </trkpt>
      <trkpt lat="49.41635" lon="1.14514">
        <ele>145</ele>
        <time>2017-11-14T16:29:15Z</time>
      </trkpt>
      <trkpt lat="49.41631" lon="1.14508">
        <ele>145</ele>
        <time>2017-11-14T16:29:15Z</time>
      </trkpt>
      <trkpt lat="49.41628" lon="1.14502">
        <ele>145</ele>
        <time>2017-11-14T16:29:31Z</time>
      </trkpt>
      <trkpt lat="49.41625" lon="1.14497">
        <ele>145</ele>
        <time>2017-11-14T16:29:31Z</time>
      </trkpt>
      <trkpt lat="49.41622" lon="1.14491">
        <ele>145</ele>
        <time>2017-11-14T16:29:31Z</time>
      </trkpt>
      <trkpt lat="49.41619" lon="1.14486">
        <ele>145</ele>
        <time>2017-11-14T16:29:31Z</time>
      </trkpt>
      <trkpt lat="49.41616" lon="1.14482">
        <ele>145</ele>
        <time>2017-11-14T16:29:47Z</time>
      </trkpt>
      <trkpt lat="49.41613" lon="1.14477">
        <ele>145</ele>
        <time>2017-11-14T16:29:47Z</time>
      </trkpt>
      <trkpt lat="49.4161" lon="1.14471">
        <ele>145</ele>
        <time>2017-11-14T16:29:47Z</time>
      </trkpt>
      <trkpt lat="49.41607" lon="1.14466">
        <ele>145</ele>
        <time>2017-11-14T16:29:47Z</time>
      </trkpt>
      <trkpt lat="49.41604" lon="1.1446">
        <ele>145</ele>
        <time>2017-11-14T16:30:03Z</time>
      </trkpt>
      <trkpt lat="49.41601" lon="1.14455">
        <ele>145</ele>
        <time>2017-11-14T16:30:03Z</time>
      </trkpt>
      <trkpt lat="49.41598" lon="1.1445">
        <ele>145</ele>
        <time>2017-11-14T16:30:03Z</time>
      </trkpt>
      <trkpt lat="49.41596" lon="1.14444">
        <ele>145</ele>
        <time>2017-11-14T16:30:03Z</time>
      </trkpt>
      <trkpt lat="49.41593" lon="1.14438">
        <ele>145</ele>
        <time>2017-11-14T16:30:19Z</time>
      </trkpt>
      <trkpt lat="49.4159" lon="1.14433">
        <ele>145</ele>
        <time>2017-11-14T16:30:19Z</time>
      </trkpt>
      <trkpt lat="49.41587" lon="1.14427">
        <ele>145</ele>
        <time>2017-11-14T16:30:19Z</time>
      </trkpt>
      <trkpt lat="49.41584" lon="1.14422">
        <ele>145</ele>
        <time>2017-11-14T16:30:19Z</time>
      </trkpt>
      <trkpt lat="49.4158" lon="1.14417">
        <ele>145</ele>
        <time>2017-11-14T16:30:35Z</time>
      </trkpt>
      <trkpt lat="49.41577" lon="1.14411">
        <ele>145</ele>
        <time>2017-11-14T16:30:35Z</time>
      </trkpt>
      <trkpt lat="49.41573" lon="1.14406">
        <ele>145</ele>
        <time>2017-11-14T16:30:35Z</time>
      </trkpt>
      <trkpt lat="49.4157" lon="1.14401">
        <ele>145</ele>
        <time>2017-11-14T16:30:35Z</time>
      </trkpt>
      <trkpt lat="49.41567" lon="1.14396">
        <ele>145</ele>
        <time>2017-11-14T16:30:51Z</time>
      </trkpt>
      <trkpt lat="49.41565" lon="1.14391">
        <ele>145</ele>
        <time>2017-11-14T16:30:51Z</time>
      </trkpt>
      <trkpt lat="49.41561" lon="1.14387">
        <ele>145</ele>
        <time>2017-11-14T16:30:51Z</time>
      </trkpt>
      <trkpt lat="49.41558" lon="1.14382">
        <ele>145</ele>
        <time>2017-11-14T16:30:51Z</time>
      </trkpt>
      <trkpt lat="49.41555" lon="1.14377">
        <ele>145</ele>
        <time>2017-11-14T16:31:07Z</time>
      </trkpt>
      <trkpt lat="49.41552" lon="1.14371">
        <ele>147</ele>
        <time>2017-11-14T16:31:07Z</time>
      </trkpt>
      <trkpt lat="49.41549" lon="1.14367">
        <ele>147</ele>
        <time>2017-11-14T16:31:07Z</time>
      </trkpt>
      <trkpt lat="49.41545" lon="1.14362">
        <ele>147</ele>
        <time>2017-11-14T16:31:07Z</time>
      </trkpt>
      <trkpt lat="49.41542" lon="1.14357">
        <ele>147</ele>
        <time>2017-11-14T16:31:23Z</time>
      </trkpt>
      <trkpt lat="49.41539" lon="1.14351">
        <ele>152</ele>
        <time>2017-11-14T16:31:23Z</time>
      </trkpt>
      <trkpt lat="49.41535" lon="1.14347">
        <ele>152</ele>
        <time>2017-11-14T16:31:23Z</time>
      </trkpt>
      <trkpt lat="49.41532" lon="1.14342">
        <ele>152</ele>
        <time>2017-11-14T16:31:23Z</time>
      </trkpt>
      <trkpt lat="49.41528" lon="1.14338">
        <ele>152</ele>
        <time>2017-11-14T16:31:39Z</time>
      </trkpt>
      <trkpt lat="49.41525" lon="1.14334">
        <ele>152</ele>
        <time>2017-11-14T16:31:39Z</time>
      </trkpt>
      <trkpt lat="49.41521" lon="1.14331">
        <ele>152</ele>
        <time>2017-11-14T16:31:39Z</time>
      </trkpt>
      <trkpt lat="49.41517" lon="1.14329">
        <ele>152</ele>
        <time>2017-11-14T16:31:39Z</time>
      </trkpt>
      <trkpt lat="49.41513" lon="1.14326">
        <ele>152</ele>
        <time>2017-11-14T16:31:55Z</time>
      </trkpt>
      <trkpt lat="49.4151" lon="1.14321">
        <ele>152</ele>
        <time>2017-11-14T16:31:55Z</time>
      </trkpt>
      <trkpt lat="49.41507" lon="1.14318">
        <ele>152</ele>
        <time>2017-11-14T16:31:55Z</time>
      </trkpt>
      <trkpt lat="49.41503" lon="1.14319">
        <ele>152</ele>
        <time>2017-11-14T16:31:55Z</time>
      </trkpt>
      <trkpt lat="49.41501" lon="1.14325">
        <ele>152</ele>
        <time>2017-11-14T16:32:11Z</time>
      </trkpt>
      <trkpt lat="49.415" lon="1.14331">
        <ele>152</ele>
        <time>2017-11-14T16:32:11Z</time>
      </trkpt>
      <trkpt lat="49.41498" lon="1.14337">
        <ele>152</ele>
        <time>2017-11-14T16:32:11Z</time>
      </trkpt>
      <trkpt lat="49.41497" lon="1.14344">
        <ele>152</ele>
        <time>2017-11-14T16:32:11Z</time>
      </trkpt>
      <trkpt lat="49.41495" lon="1.14351">
        <ele>152</ele>
        <time>2017-11-14T16:32:27Z</time>
      </trkpt>
      <trkpt lat="49.41493" lon="1.14358">
        <ele>152</ele>
        <time>2017-11-14T16:32:27Z</time>
      </trkpt>
      <trkpt lat="49.41492" lon="1.14364">
        <ele>152</ele>
        <time>2017-11-14T16:32:27Z</time>
      </trkpt>
      <trkpt lat="49.4149" lon="1.1437">
        <ele>152</ele>
        <time>2017-11-14T16:32:27Z</time>
      </trkpt>
      <trkpt lat="49.41488" lon="1.14377">
        <ele>149</ele>
        <time>2017-11-14T16:32:43Z</time>
      </trkpt>
      <trkpt lat="49.41487" lon="1.14384">
        <ele>149</ele>
        <time>2017-11-14T16:32:43Z</time>
      </trkpt>
      <trkpt lat="49.41485" lon="1.1439">
        <ele>149</ele>
        <time>2017-11-14T16:32:43Z</time>
      </trkpt>
      <trkpt lat="49.41483" lon="1.14396">
        <ele>149</ele>
        <time>2017-11-14T16:32:43Z</time>
      </trkpt>
      <trkpt lat="49.41481" lon="1.14402">
        <ele>149</ele>
        <time>2017-11-14T16:32:59Z</time>
      </trkpt>
      <trkpt lat="49.41478" lon="1.14407">
        <ele>149</ele>
        <time>2017-11-14T16:32:59Z</time>
      </trkpt>
      <trkpt lat="49.41476" lon="1.14413">
        <ele>149</ele>
        <time>2017-11-14T16:32:59Z</time>
      </trkpt>
      <trkpt lat="49.41474" lon="1.14419">
        <ele>149</ele>
        <time>2017-11-14T16:32:59Z</time>
      </trkpt>
      <trkpt lat="49.41473" lon="1.14426">
        <ele>149</ele>
        <time>2017-11-14T16:33:15Z</time>
      </trkpt>
      <trkpt lat="49.41471" lon="1.14433">
        <ele>149</ele>
        <time>2017-11-14T16:33:15Z</time>
      </trkpt>
      <trkpt lat="49.41468" lon="1.1444">
        <ele>149</ele>
        <time>2017-11-14T16:33:15Z</time>
      </trkpt>
      <trkpt lat="49.41466" lon="1.14447">
        <ele>149</ele>
        <time>2017-11-14T16:33:15Z</time>
      </trkpt>
      <trkpt lat="49.41464" lon="1.14454">
        <ele>149</ele>
        <time>2017-11-14T16:33:31Z</time>
      </trkpt>
      <trkpt lat="49.4146" lon="1.14459">
        <ele>147</ele>
        <time>2017-11-14T16:33:31Z</time>
      </trkpt>
      <trkpt lat="49.41457" lon="1.14464">
        <ele>151</ele>
        <time>2017-11-14T16:33:31Z</time>
      </trkpt>
      <trkpt lat="49.41453" lon="1.14469">
        <ele>151</ele>
        <time>2017-11-14T16:33:31Z</time>
      </trkpt>
      <trkpt lat="49.41449" lon="1.14473">
        <ele>151</ele>
        <time>2017-11-14T16:33:47Z</time>
      </trkpt>
      <trkpt lat="49.41445" lon="1.14477">
        <ele>151</ele>
        <time>2017-11-14T16:33:47Z</time>
      </trkpt>
      <trkpt lat="49.41441" lon="1.14481">
        <ele>151</ele>
        <time>2017-11-14T16:33:47Z</time>
      </trkpt>
      <trkpt lat="49.41436" lon="1.14484">
        <ele>151</ele>
        <time>2017-11-14T16:33:47Z</time>
      </trkpt>
      <trkpt lat="49.41432" lon="1.14488">
        <ele>151</ele>
        <time>2017-11-14T16:34:03Z</time>
      </trkpt>
      <trkpt lat="49.41428" lon="1.14491">
        <ele>151</ele>
        <time>2017-11-14T16:34:03Z</time>
      </trkpt>
      <trkpt lat="49.41424" lon="1.14494">
        <ele>151</ele>
        <time>2017-11-14T16:34:03Z</time>
      </trkpt>
      <trkpt lat="49.4142" lon="1.14496">
        <ele>151</ele>
        <time>2017-11-14T16:34:03Z</time>
      </trkpt>
      <trkpt lat="49.41416" lon="1.145">
        <ele>151</ele>
        <time>2017-11-14T16:34:19Z</time>
      </trkpt>
      <trkpt lat="49.41411" lon="1.14503">
        <ele>151</ele>
        <time>2017-11-14T16:34:19Z</time>
      </trkpt>
      <trkpt lat="49.41408" lon="1.14508">
        <ele>151</ele>
        <time>2017-11-14T16:34:19Z</time>
      </trkpt>
      <trkpt lat="49.41404" lon="1.14511">
        <ele>151</ele>
        <time>2017-11-14T16:34:19Z</time>
      </trkpt>
      <trkpt lat="49.414" lon="1.14513">
        <ele>151</ele>
        <time>2017-11-14T16:34:35Z</time>
      </trkpt>
      <trkpt lat="49.41396" lon="1.14517">
        <ele>151</ele>
        <time>2017-11-14T16:34:35Z</time>
      </trkpt>
      <trkpt lat="49.41392" lon="1.14521">
        <ele>151</ele>
        <time>2017-11-14T16:34:35Z</time>
      </trkpt>
      <trkpt lat="49.41388" lon="1.14524">
        <ele>151</ele>
        <time>2017-11-14T16:34:35Z</time>
      </trkpt>
      <trkpt lat="49.41385" lon="1.14529">
        <ele>151</ele>
        <time>2017-11-14T16:34:51Z</time>
      </trkpt>
      <trkpt lat="49.41382" lon="1.14534">
        <ele>151</ele>
        <time>2017-11-14T16:34:51Z</time>
      </trkpt>
      <trkpt lat="49.41379" lon="1.14539">
        <ele>151</ele>
        <time>2017-11-14T16:34:51Z</time>
      </trkpt>
      <trkpt lat="49.41377" lon="1.14546">
        <ele>152</ele>
        <time>2017-11-14T16:34:51Z</time>
      </trkpt>
      <trkpt lat="49.41373" lon="1.14551">
        <ele>153</ele>
        <time>2017-11-14T16:35:07Z</time>
      </trkpt>
      <trkpt lat="49.4137" lon="1.14555">
        <ele>153</ele>
        <time>2017-11-14T16:35:07Z</time>
      </trkpt>
      <trkpt lat="49.41367" lon="1.14561">
        <ele>153</ele>
        <time>2017-11-14T16:35:07Z</time>
      </trkpt>
      <trkpt lat="49.41364" lon="1.14567">
        <ele>153</ele>
        <time>2017-11-14T16:35:07Z</time>
      </trkpt>
      <trkpt lat="49.41361" lon="1.14572">
        <ele>153</ele>
        <time>2017-11-14T16:35:23Z</time>
      </trkpt>
      <trkpt lat="49.41357" lon="1.14576">
        <ele>153</ele>
        <time>2017-11-14T16:35:23Z</time>
      </trkpt>
      <trkpt lat="49.41354" lon="1.14582">
        <ele>153</ele>
        <time>2017-11-14T16:35:23Z</time>
      </trkpt>
      <trkpt lat="49.41351" lon="1.14587">
        <ele>153</ele>
        <time>2017-11-14T16:35:23Z</time>
      </trkpt>
      <trkpt lat="49.41347" lon="1.14591">
        <ele>153</ele>
        <time>2017-11-14T16:35:39Z</time>
      </trkpt>
      <trkpt lat="49.41344" lon="1.14597">
        <ele>153</ele>
        <time>2017-11-14T16:35:39Z</time>
      </trkpt>
      <trkpt lat="49.41341" lon="1.14603">
        <ele>153</ele>
        <time>2017-11-14T16:35:39Z</time>
      </trkpt>
      <trkpt lat="49.4134" lon="1.14609">
        <ele>153</ele>
        <time>2017-11-14T16:35:39Z</time>
      </trkpt>
      <trkpt lat="49.4134" lon="1.14616">
        <ele>153</ele>
        <time>2017-11-14T16:35:55Z</time>
      </trkpt>
      <trkpt lat="49.4134" lon="1.14624">
        <ele>153</ele>
        <time>2017-11-14T16:35:55Z</time>
      </trkpt>
      <trkpt lat="49.4134" lon="1.14632">
        <ele>154</ele>
        <time>2017-11-14T16:35:55Z</time>
      </trkpt>
      <trkpt lat="49.41337" lon="1.14641">
        <ele>154</ele>
        <time>2017-11-14T16:35:55Z</time>
      </trkpt>
      <trkpt lat="49.41337" lon="1.14649">
        <ele>154</ele>
        <time>2017-11-14T16:36:11Z</time>
      </trkpt>
      <trkpt lat="49.4134" lon="1.14656">
        <ele>154</ele>
        <time>2017-11-14T16:36:11Z</time>
      </trkpt>
      <trkpt lat="49.41343" lon="1.14662">
        <ele>154</ele>
        <time>2017-11-14T16:36:11Z</time>
      </trkpt>
      <trkpt lat="49.41345" lon="1.14668">
        <ele>154</ele>
        <time>2017-11-14T16:36:11Z</time>
      </trkpt>
      <trkpt lat="49.41347" lon="1.14674">
        <ele>154</ele>
        <time>2017-11-14T16:36:27Z</time>
      </trkpt>
      <trkpt lat="49.41349" lon="1.1468">
        <ele>154</ele>
        <time>2017-11-14T16:36:27Z</time>
      </trkpt>
      <trkpt lat="49.41352" lon="1.14686">
        <ele>154</ele>
        <time>2017-11-14T16:36:27Z</time>
      </trkpt>
      <trkpt lat="49.41354" lon="1.14692">
        <ele>154</ele>
        <time>2017-11-14T16:36:27Z</time>
      </trkpt>
      <trkpt lat="49.41357" lon="1.14698">
        <ele>154</ele>
        <time>2017-11-14T16:36:43Z</time>
      </trkpt>
      <trkpt lat="49.4136" lon="1.14704">
        <ele>154</ele>
        <time>2017-11-14T16:36:43Z</time>
      </trkpt>
      <trkpt lat="49.41363" lon="1.14711">
        <ele>152</ele>
        <time>2017-11-14T16:36:43Z</time>
      </trkpt>
      <trkpt lat="49.41366" lon="1.14717">
        <ele>152</ele>
        <time>2017-11-14T16:36:43Z</time>
      </trkpt>
      <trkpt lat="49.41369" lon="1.14723">
        <ele>152</ele>
        <time>2017-11-14T16:36:59Z</time>
      </trkpt>
      <trkpt lat="49.41372" lon="1.14729">
        <ele>152</ele>
        <time>2017-11-14T16:36:59Z</time>
      </trkpt>
      <trkpt lat="49.41374" lon="1.14734">
        <ele>152</ele>
        <time>2017-11-14T16:36:59Z</time>
      </trkpt>
      <trkpt lat="49.41377" lon="1.1474">
        <ele>149</ele>
        <time>2017-11-14T16:36:59Z</time>
      </trkpt>
      <trkpt lat="49.4138" lon="1.14745">
        <ele>149</ele>
        <time>2017-11-14T16:37:15Z</time>
      </trkpt>
      <trkpt lat="49.41382" lon="1.14751">
        <ele>149</ele>
        <time>2017-11-14T16:37:15Z</time>
      </trkpt>
      <trkpt lat="49.41386" lon="1.14755">
        <ele>149</ele>
        <time>2017-11-14T16:37:15Z</time>
      </trkpt>
      <trkpt lat="49.41388" lon="1.14761">
        <ele>149</ele>
        <time>2017-11-14T16:37:15Z</time>
      </trkpt>
      <trkpt lat="49.41386" lon="1.14769">
        <ele>149</ele>
        <time>2017-11-14T16:37:31Z</time>
      </trkpt>
      <trkpt lat="49.41383" lon="1.14776">
        <ele>149</ele>
        <time>2017-11-14T16:37:31Z</time>
      </trkpt>
      <trkpt lat="49.41379" lon="1.14782">
        <ele>149</ele>
        <time>2017-11-14T16:37:31Z</time>
      </trkpt>
      <trkpt lat="49.41376" lon="1.14789">
        <ele>149</ele>
        <time>2017-11-14T16:37:31Z</time>
      </trkpt>
      <trkpt lat="49.41372" lon="1.14794">
        <ele>149</ele>
        <time>2017-11-14T16:37:47Z</time>
      </trkpt>
      <trkpt lat="49.41369" lon="1.148">
        <ele>149</ele>
        <time>2017-11-14T16:37:47Z</time>
      </trkpt>
      <trkpt lat="49.41366" lon="1.14804">
        <ele>149</ele>
        <time>2017-11-14T16:37:47Z</time>
      </trkpt>
      <trkpt lat="49.41363" lon="1.14809">
        <ele>149</ele>
        <time>2017-11-14T16:37:47Z</time>
      </trkpt>
      <trkpt lat="49.4136" lon="1.14815">
        <ele>149</ele>
        <time>2017-11-14T16:38:03Z</time>
      </trkpt>
      <trkpt lat="49.41356" lon="1.14819">
        <ele>149</ele>
        <time>2017-11-14T16:38:03Z</time>
      </trkpt>
      <trkpt lat="49.41352" lon="1.14825">
        <ele>149</ele>
        <time>2017-11-14T16:38:03Z</time>
      </trkpt>
      <trkpt lat="49.41349" lon="1.1483">
        <ele>149</ele>
        <time>2017-11-14T16:38:03Z</time>
      </trkpt>
      <trkpt lat="49.41345" lon="1.14836">
        <ele>149</ele>
        <time>2017-11-14T16:38:19Z</time>
      </trkpt>
      <trkpt lat="49.41342" lon="1.14842">
        <ele>149</ele>
        <time>2017-11-14T16:38:19Z</time>
      </trkpt>
      <trkpt lat="49.41338" lon="1.14847">
        <ele>149</ele>
        <time>2017-11-14T16:38:19Z</time>
      </trkpt>
      <trkpt lat="49.41334" lon="1.14851">
        <ele>149</ele>
        <time>2017-11-14T16:38:19Z</time>
      </trkpt>
      <trkpt lat="49.41331" lon="1.14856">
        <ele>149</ele>
        <time>2017-11-14T16:38:35Z</time>
      </trkpt>
      <trkpt lat="49.41327" lon="1.14861">
        <ele>149</ele>
        <time>2017-11-14T16:38:35Z</time>
      </trkpt>
      <trkpt lat="49.41323" lon="1.14866">
        <ele>149</ele>
        <time>2017-11-14T16:38:35Z</time>
      </trkpt>
      <trkpt lat="49.41319" lon="1.1487">
        <ele>149</ele>
        <time>2017-11-14T16:38:35Z</time>
      </trkpt>
      <trkpt lat="49.41315" lon="1.14874">
        <ele>149</ele>
        <time>2017-11-14T16:38:51Z</time>
      </trkpt>
      <trkpt lat="49.41311" lon="1.14878">
        <ele>148</ele>
        <time>2017-11-14T16:38:51Z</time>
      </trkpt>
      <trkpt lat="49.41307" lon="1.14881">
        <ele>148</ele>
        <time>2017-11-14T16:38:51Z</time>
      </trkpt>
      <trkpt lat="49.41303" lon="1.14884">
        <ele>148</ele>
        <time>2017-11-14T16:38:51Z</time>
      </trkpt>
      <trkpt lat="49.41299" lon="1.14887">
        <ele>148</ele>
        <time>2017-11-14T16:39:07Z</time>
      </trkpt>
      <trkpt lat="49.41295" lon="1.14891">
        <ele>148</ele>
        <time>2017-11-14T16:39:07Z</time>
      </trkpt>
      <trkpt lat="49.41291" lon="1.14894">
        <ele>151</ele>
        <time>2017-11-14T16:39:07Z</time>
      </trkpt>
      <trkpt lat="49.41287" lon="1.14898">
        <ele>151</ele>
        <time>2017-11-14T16:39:07Z</time>
      </trkpt>
      <trkpt lat="49.41283" lon="1.14903">
        <ele>151</ele>
        <time>2017-11-14T16:39:23Z</time>
      </trkpt>
      <trkpt lat="49.41279" lon="1.14908">
        <ele>151</ele>
        <time>2017-11-14T16:39:23Z</time>
      </trkpt>
      <trkpt lat="49.41276" lon="1.14913">
        <ele>151</ele>
        <time>2017-11-14T16:39:23Z</time>
      </trkpt>
      <trkpt lat="49.41273" lon="1.14919">
        <ele>151</ele>
        <time>2017-11-14T16:39:23Z</time>
      </trkpt>
      <trkpt lat="49.4127" lon="1.14925">
        <ele>151</ele>
        <time>2017-11-14T16:39:39Z</time>
      </trkpt>
      <trkpt lat="49.41266" lon="1.14929">
        <ele>151</ele>
        <time>2017-11-14T16:39:39Z</time>
      </trkpt>
      <trkpt lat="49.41263" lon="1.14934">
        <ele>151</ele>
        <time>2017-11-14T16:39:39Z</time>
      </trkpt>
      <trkpt lat="49.4126" lon="1.1494">
        <ele>151</ele>
        <time>2017-11-14T16:39:39Z</time>
      </trkpt>
      <trkpt lat="49.41257" lon="1.14945">
        <ele>151</ele>
        <time>2017-11-14T16:39:55Z</time>
      </trkpt>
      <trkpt lat="49.41253" lon="1.14949">
        <ele>151</ele>
        <time>2017-11-14T16:39:55Z</time>
      </trkpt>
      <trkpt lat="49.4125" lon="1.14954">
        <ele>151</ele>
        <time>2017-11-14T16:39:55Z</time>
      </trkpt>
      <trkpt lat="49.41247" lon="1.14959">
        <ele>148</ele>
        <time>2017-11-14T16:39:55Z</time>
      </trkpt>
      <trkpt lat="49.41243" lon="1.14963">
        <ele>148</ele>
        <time>2017-11-14T16:40:11Z</time>
      </trkpt>
      <trkpt lat="49.41241" lon="1.14969">
        <ele>148</ele>
        <time>2017-11-14T16:40:11Z</time>
      </trkpt>
      <trkpt lat="49.41237" lon="1.14974">
        <ele>148</ele>
        <time>2017-11-14T16:40:11Z</time>
      </trkpt>
      <trkpt lat="49.41234" lon="1.14979">
        <ele>148</ele>
        <time>2017-11-14T16:40:11Z</time>
      </trkpt>
      <trkpt lat="49.41229" lon="1.14982">
        <ele>148</ele>
        <time>2017-11-14T16:40:27Z</time>
      </trkpt>
      <trkpt lat="49.41225" lon="1.14984">
        <ele>148</ele>
        <time>2017-11-14T16:40:27Z</time>
      </trkpt>
      <trkpt lat="49.41221" lon="1.14987">
        <ele>148</ele>
        <time>2017-11-14T16:40:27Z</time>
      </trkpt>
      <trkpt lat="49.41216" lon="1.14987">
        <ele>148</ele>
        <time>2017-11-14T16:40:27Z</time>
      </trkpt>
      <trkpt lat="49.41212" lon="1.14986">
        <ele>148</ele>
        <time>2017-11-14T16:40:43Z</time>
      </trkpt>
      <trkpt lat="49.41207" lon="1.14985">
        <ele>150</ele>
        <time>2017-11-14T16:40:43Z</time>
      </trkpt>
      <trkpt lat="49.41202" lon="1.14984">
        <ele>150</ele>
        <time>2017-11-14T16:40:43Z</time>
      </trkpt>
      <trkpt lat="49.41197" lon="1.14982">
        <ele>150</ele>
        <time>2017-11-14T16:40:43Z</time>
      </trkpt>
      <trkpt lat="49.41192" lon="1.14981">
        <ele>150</ele>
        <time>2017-11-14T16:40:59Z</time>
      </trkpt>
      <trkpt lat="49.41187" lon="1.1498">
        <ele>150</ele>
        <time>2017-11-14T16:40:59Z</time>
      </trkpt>
      <trkpt lat="49.41183" lon="1.14979">
        <ele>150</ele>
        <time>2017-11-14T16:40:59Z</time>
      </trkpt>
      <trkpt lat="49.41178" lon="1.14978">
        <ele>150</ele>
        <time>2017-11-14T16:40:59Z</time>
      </trkpt>
      <trkpt lat="49.41174" lon="1.14977">
        <ele>150</ele>
        <time>2017-11-14T16:41:15Z</time>
      </trkpt>
      <trkpt lat="49.41169" lon="1.14976">
        <ele>150</ele>
        <time>2017-11-14T16:41:15Z</time>
      </trkpt>
      <trkpt lat="49.41165" lon="1.14974">
        <ele>150</ele>
        <time>2017-11-14T16:41:15Z</time>
      </trkpt>
      <trkpt lat="49.41161" lon="1.14971">
        <ele>150</ele>
        <time>2017-11-14T16:41:15Z</time>
      </trkpt>
      <trkpt lat="49.41156" lon="1.14967">
        <ele>150</ele>
        <time>2017-11-14T16:41:31Z</time>
      </trkpt>
      <trkpt lat="49.41152" lon="1.14964">
        <ele>150</ele>
        <time>2017-11-14T16:41:31Z</time>
      </trkpt>
      <trkpt lat="49.41148" lon="1.1496">
        <ele>150</ele>
        <time>2017-11-14T16:41:31Z</time>
      </trkpt>
      <trkpt lat="49.41144" lon="1.14957">
        <ele>153</ele>
        <time>2017-11-14T16:41:31Z</time>
      </trkpt>
      <trkpt lat="49.41139" lon="1.14954">
        <ele>153</ele>
        <time>2017-11-14T16:41:47Z</time>
      </trkpt>
      <trkpt lat="49.41136" lon="1.1495">
        <ele>153</ele>
        <time>2017-11-14T16:41:47Z</time>
      </trkpt>
      <trkpt lat="49.41131" lon="1.14947">
        <ele>153</ele>
        <time>2017-11-14T16:41:47Z</time>
      </trkpt>
      <trkpt lat="49.41127" lon="1.14945">
        <ele>153</ele>
        <time>2017-11-14T16:41:47Z</time>
      </trkpt>
      <trkpt lat="49.41123" lon="1.14942">
        <ele>155</ele>
        <time>2017-11-14T16:42:03Z</time>
      </trkpt>
      <trkpt lat="49.41119" lon="1.14939">
        <ele>155</ele>
        <time>2017-11-14T16:42:03Z</time>
      </trkpt>
      <trkpt lat="49.41115" lon="1.14936">
        <ele>155</ele>
        <time>2017-11-14T16:42:03Z</time>
      </trkpt>
      <trkpt lat="49.41111" lon="1.14933">
        <ele>155</ele>
        <time>2017-11-14T16:42:03Z</time>
      </trkpt>
      <trkpt lat="49.41107" lon="1.14931">
        <ele>155</ele>
        <time>2017-11-14T16:42:19Z</time>
      </trkpt>
      <trkpt lat="49.41105" lon="1.14934">
        <ele>155</ele>
        <time>2017-11-14T16:42:19Z</time>
      </trkpt>
      <trkpt lat="49.41103" lon="1.1494">
        <ele>155</ele>
        <time>2017-11-14T16:42:19Z</time>
      </trkpt>
      <trkpt lat="49.41101" lon="1.14945">
        <ele>155</ele>
        <time>2017-11-14T16:42:19Z</time>
      </trkpt>
      <trkpt lat="49.41098" lon="1.14951">
        <ele>155</ele>
        <time>2017-11-14T16:42:35Z</time>
      </trkpt>
      <trkpt lat="49.41096" lon="1.14957">
        <ele>155</ele>
        <time>2017-11-14T16:42:35Z</time>
      </trkpt>
      <trkpt lat="49.41094" lon="1.14962">
        <ele>152</ele>
        <time>2017-11-14T16:42:35Z</time>
      </trkpt>
      <trkpt lat="49.41091" lon="1.14968">
        <ele>152</ele>
        <time>2017-11-14T16:42:35Z</time>
      </trkpt>
      <trkpt lat="49.41089" lon="1.14975">
        <ele>152</ele>
        <time>2017-11-14T16:42:51Z</time>
      </trkpt>
      <trkpt lat="49.41087" lon="1.1498">
        <ele>152</ele>
        <time>2017-11-14T16:42:51Z</time>
      </trkpt>
      <trkpt lat="49.41084" lon="1.14987">
        <ele>152</ele>
        <time>2017-11-14T16:42:51Z</time>
      </trkpt>
      <trkpt lat="49.41081" lon="1.14992">
        <ele>152</ele>
        <time>2017-11-14T16:42:51Z</time>
      </trkpt>
      <trkpt lat="49.41079" lon="1.14998">
        <ele>152</ele>
        <time>2017-11-14T16:43:07Z</time>
      </trkpt>
      <trkpt lat="49.41077" lon="1.15003">
        <ele>152</ele>
        <time>2017-11-14T16:43:07Z</time>
      </trkpt>
      <trkpt lat="49.41075" lon="1.15009">
        <ele>152</ele>
        <time>2017-11-14T16:43:07Z</time>
      </trkpt>
      <trkpt lat="49.41073" lon="1.15014">
        <ele>152</ele>
        <time>2017-11-14T16:43:07Z</time>
      </trkpt>
      <trkpt lat="49.41075" lon="1.1502">
        <ele>152</ele>
        <time>2017-11-14T16:43:23Z</time>
      </trkpt>
      <trkpt lat="49.41078" lon="1.15025">
        <ele>152</ele>
        <time>2017-11-14T16:43:23Z</time>
      </trkpt>
      <trkpt lat="49.4108" lon="1.1503">
        <ele>152</ele>
        <time>2017-11-14T16:43:23Z</time>
      </trkpt>
      <trkpt lat="49.41077" lon="1.15033">
        <ele>152</ele>
        <time>2017-11-14T16:43:23Z</time>
      </trkpt>
      <trkpt lat="49.41074" lon="1.15038">
        <ele>152</ele>
        <time>2017-11-14T16:43:39Z</time>
      </trkpt>
      <trkpt lat="49.41071" lon="1.15042">
        <ele>149</ele>
        <time>2017-11-14T16:43:39Z</time>
      </trkpt>
      <trkpt lat="49.41068" lon="1.15047">
        <ele>149</ele>
        <time>2017-11-14T16:43:39Z</time>
      </trkpt>
      <trkpt lat="49.41065" lon="1.15051">
        <ele>149</ele>
        <time>2017-11-14T16:43:39Z</time>
      </trkpt>
      <trkpt lat="49.41062" lon="1.15057">
        <ele>149</ele>
        <time>2017-11-14T16:43:55Z</time>
      </trkpt>
      <trkpt lat="49.41058" lon="1.15062">
        <ele>149</ele>
        <time>2017-11-14T16:43:55Z</time>
      </trkpt>
      <trkpt lat="49.41056" lon="1.15067">
        <ele>149</ele>
        <time>2017-11-14T16:43:55Z</time>
      </trkpt>
      <trkpt lat="49.41052" lon="1.15072">
        <ele>149</ele>
        <time>2017-11-14T16:43:55Z</time>
      </trkpt>
      <trkpt lat="49.41047" lon="1.15075">
        <ele>149</ele>
        <time>2017-11-14T16:44:11Z</time>
      </trkpt>
      <trkpt lat="49.41042" lon="1.15074">
        <ele>149</ele>
        <time>2017-11-14T16:44:11Z</time>
      </trkpt>
      <trkpt lat="49.41039" lon="1.1507">
        <ele>152</ele>
        <time>2017-11-14T16:44:11Z</time>
      </trkpt>
      <trkpt lat="49.41036" lon="1.15064">
        <ele>152</ele>
        <time>2017-11-14T16:44:11Z</time>
      </trkpt>
      <trkpt lat="49.41033" lon="1.15059">
        <ele>152</ele>
        <time>2017-11-14T16:44:27Z</time>
      </trkpt>
      <trkpt lat="49.41029" lon="1.15054">
        <ele>152</ele>
        <time>2017-11-14T16:44:27Z</time>
      </trkpt>
      <trkpt lat="49.41026" lon="1.1505">
        <ele>152</ele>
        <time>2017-11-14T16:44:27Z</time>
      </trkpt>
      <trkpt lat="49.41023" lon="1.15044">
        <ele>152</ele>
        <time>2017-11-14T16:44:27Z</time>
      </trkpt>
      <trkpt lat="49.4102" lon="1.15038">
        <ele>156</ele>
        <time>2017-11-14T16:44:43Z</time>
      </trkpt>
      <trkpt lat="49.41017" lon="1.15033">
        <ele>156</ele>
        <time>2017-11-14T16:44:43Z</time>
      </trkpt>
      <trkpt lat="49.41015" lon="1.15028">
        <ele>156</ele>
        <time>2017-11-14T16:44:43Z</time>
      </trkpt>
      <trkpt lat="49.41012" lon="1.15022">
        <ele>156</ele>
        <time>2017-11-14T16:44:43Z</time>
      </trkpt>
      <trkpt lat="49.41009" lon="1.15017">
        <ele>156</ele>
        <time>2017-11-14T16:44:59Z</time>
      </trkpt>
      <trkpt lat="49.41007" lon="1.15011">
        <ele>156</ele>
        <time>2017-11-14T16:44:59Z</time>
      </trkpt>
      <trkpt lat="49.41004" lon="1.15006">
        <ele>156</ele>
        <time>2017-11-14T16:44:59Z</time>
      </trkpt>
      <trkpt lat="49.41001" lon="1.15001">
        <ele>156</ele>
        <time>2017-11-14T16:44:59Z</time>
      </trkpt>
      <trkpt lat="49.40998" lon="1.15004">
        <ele>156</ele>
        <time>2017-11-14T16:45:15Z</time>
      </trkpt>
      <trkpt lat="49.40994" lon="1.15007">
        <ele>156</ele>
        <time>2017-11-14T16:45:15Z</time>
      </trkpt>
      <trkpt lat="49.40991" lon="1.15006">
        <ele>156</ele>
        <time>2017-11-14T16:45:15Z</time>
      </trkpt>
      <trkpt lat="49.40987" lon="1.15004">
        <ele>156</ele>
        <time>2017-11-14T16:45:15Z</time>
      </trkpt>
      <trkpt lat="49.40984" lon="1.15009">
        <ele>156</ele>
        <time>2017-11-14T16:45:31Z</time>
      </trkpt>
      <trkpt lat="49.40982" lon="1.15014">
        <ele>156</ele>
        <time>2017-11-14T16:45:31Z</time>
      </trkpt>
      <trkpt lat="49.40979" lon="1.15018">
        <ele>156</ele>
        <time>2017-11-14T16:45:31Z</time>
      </trkpt>
      <trkpt lat="49.40976" lon="1.15023">
        <ele>156</ele>
        <time>2017-11-14T16:45:31Z</time>
      </trkpt>
      <trkpt lat="49.40972" lon="1.15028">
        <ele>156</ele>
        <time>2017-11-14T16:45:47Z</time>
      </trkpt>
      <trkpt lat="49.40969" lon="1.15033">
        <ele>156</ele>
        <time>2017-11-14T16:45:47Z</time>
      </trkpt>
      <trkpt lat="49.40966" lon="1.15038">
        <ele>156</ele>
        <time>2017-11-14T16:45:47Z</time>
      </trkpt>
      <trkpt lat="49.40962" lon="1.15043">
        <ele>152</ele>
        <time>2017-11-14T16:45:47Z</time>
      </trkpt>
      <trkpt lat="49.40959" lon="1.15048">
        <ele>152</ele>
        <time>2017-11-14T16:46:03Z</time>
      </trkpt>
      <trkpt lat="49.40956" lon="1.15053">
        <ele>156</ele>
        <time>2017-11-14T16:46:03Z</time>
      </trkpt>
      <trkpt lat="49.40953" lon="1.15057">
        <ele>156</ele>
        <time>2017-11-14T16:46:03Z</time>
      </trkpt>
      <trkpt lat="49.4095" lon="1.15063">
        <ele>156</ele>
        <time>2017-11-14T16:46:03Z</time>
      </trkpt>
      <trkpt lat="49.40947" lon="1.15067">
        <ele>156</ele>
        <time>2017-11-14T16:46:19Z</time>
      </trkpt>
      <trkpt lat="49.40944" lon="1.15072">
        <ele>156</ele>
        <time>2017-11-14T16:46:19Z</time>
      </trkpt>
      <trkpt lat="49.4094" lon="1.15077">
        <ele>156</ele>
        <time>2017-11-14T16:46:19Z</time>
      </trkpt>
      <trkpt lat="49.40937" lon="1.15082">
        <ele>156</ele>
        <time>2017-11-14T16:46:19Z</time>
      </trkpt>
      <trkpt lat="49.40933" lon="1.15088">
        <ele>156</ele>
        <time>2017-11-14T16:46:35Z</time>
      </trkpt>
      <trkpt lat="49.4093" lon="1.15093">
        <ele>156</ele>
        <time>2017-11-14T16:46:35Z</time>
      </trkpt>
      <trkpt lat="49.40926" lon="1.15098">
        <ele>156</ele>
        <time>2017-11-14T16:46:35Z</time>
      </trkpt>
      <trkpt lat="49.40923" lon="1.15103">
        <ele>156</ele>
        <time>2017-11-14T16:46:35Z</time>
      </trkpt>
      <trkpt lat="49.40919" lon="1.15108">
        <ele>156</ele>
        <time>2017-11-14T16:46:51Z</time>
      </trkpt>
      <trkpt lat="49.40916" lon="1.15112">
        <ele>156</ele>
        <time>2017-11-14T16:46:51Z</time>
      </trkpt>
      <trkpt lat="49.40913" lon="1.15118">
        <ele>156</ele>
        <time>2017-11-14T16:46:51Z</time>
      </trkpt>
      <trkpt lat="49.4091" lon="1.15124">
        <ele>156</ele>
        <time>2017-11-14T16:46:51Z</time>
      </trkpt>
      <trkpt lat="49.40907" lon="1.1513">
        <ele>155</ele>
        <time>2017-11-14T16:47:07Z</time>
      </trkpt>
      <trkpt lat="49.40905" lon="1.15136">
        <ele>155</ele>
        <time>2017-11-14T16:47:07Z</time>
      </trkpt>
      <trkpt lat="49.40903" lon="1.15142">
        <ele>155</ele>
        <time>2017-11-14T16:47:07Z</time>
      </trkpt>
      <trkpt lat="49.40901" lon="1.15148">
        <ele>155</ele>
        <time>2017-11-14T16:47:07Z</time>
      </trkpt>
      <trkpt lat="49.40898" lon="1.15154">
        <ele>155</ele>
        <time>2017-11-14T16:47:23Z</time>
      </trkpt>
      <trkpt lat="49.40896" lon="1.1516">
        <ele>155</ele>
        <time>2017-11-14T16:47:23Z</time>
      </trkpt>
      <trkpt lat="49.40895" lon="1.15166">
        <ele>155</ele>
        <time>2017-11-14T16:47:23Z</time>
      </trkpt>
      <trkpt lat="49.40893" lon="1.15171">
        <ele>155</ele>
        <time>2017-11-14T16:47:23Z</time>
      </trkpt>
      <trkpt lat="49.40892" lon="1.15177">
        <ele>155</ele>
        <time>2017-11-14T16:47:39Z</time>
      </trkpt>
      <trkpt lat="49.4089" lon="1.15183">
        <ele>155</ele>
        <time>2017-11-14T16:47:39Z</time>
      </trkpt>
      <trkpt lat="49.40889" lon="1.15189">
        <ele>155</ele>
        <time>2017-11-14T16:47:39Z</time>
      </trkpt>
      <trkpt lat="49.40887" lon="1.15196">
        <ele>155</ele>
        <time>2017-11-14T16:47:39Z</time>
      </trkpt>
      <trkpt lat="49.40885" lon="1.15203">
        <ele>155</ele>
        <time>2017-11-14T16:47:55Z</time>
      </trkpt>
      <trkpt lat="49.40882" lon="1.15209">
        <ele>154</ele>
        <time>2017-11-14T16:47:55Z</time>
      </trkpt>
      <trkpt lat="49.4088" lon="1.15215">
        <ele>154</ele>
        <time>2017-11-14T16:47:55Z</time>
      </trkpt>
      <trkpt lat="49.40878" lon="1.15221">
        <ele>154</ele>
        <time>2017-11-14T16:47:55Z</time>
      </trkpt>
      <trkpt lat="49.40876" lon="1.15228">
        <ele>154</ele>
        <time>2017-11-14T16:48:11Z</time>
      </trkpt>
      <trkpt lat="49.40874" lon="1.15234">
        <ele>159</ele>
        <time>2017-11-14T16:48:11Z</time>
      </trkpt>
      <trkpt lat="49.40873" lon="1.15241">
        <ele>159</ele>
        <time>2017-11-14T16:48:11Z</time>
      </trkpt>
      <trkpt lat="49.40872" lon="1.15247">
        <ele>159</ele>
        <time>2017-11-14T16:48:11Z</time>
      </trkpt>
      <trkpt lat="49.4087" lon="1.15254">
        <ele>159</ele>
        <time>2017-11-14T16:48:27Z</time>
      </trkpt>
      <trkpt lat="49.40869" lon="1.1526">
        <ele>159</ele>
        <time>2017-11-14T16:48:27Z</time>
      </trkpt>
      <trkpt lat="49.40867" lon="1.15266">
        <ele>159</ele>
        <time>2017-11-14T16:48:27Z</time>
      </trkpt>
      <trkpt lat="49.40867" lon="1.15272">
        <ele>159</ele>
        <time>2017-11-14T16:48:27Z</time>
      </trkpt>
      <trkpt lat="49.40867" lon="1.15279">
        <ele>159</ele>
        <time>2017-11-14T16:48:43Z</time>
      </trkpt>
      <trkpt lat="49.40868" lon="1.15285">
        <ele>159</ele>
        <time>2017-11-14T16:48:43Z</time>
      </trkpt>
      <trkpt lat="49.40868" lon="1.1529">
        <ele>159</ele>
        <time>2017-11-14T16:48:43Z</time>
      </trkpt>
      <trkpt lat="49.40869" lon="1.15293">
        <ele>156</ele>
        <time>2017-11-14T16:48:43Z</time>
      </trkpt>
      <trkpt lat="49.40872" lon="1.15294">
        <ele>156</ele>
        <time>2017-11-14T16:49:11Z</time>
      </trkpt>
      <trkpt lat="49.40872" lon="1.1529">
        <ele>159</ele>
        <time>2017-11-14T16:49:11Z</time>
      </trkpt>
      <trkpt lat="49.40872" lon="1.15286">
        <ele>159</ele>
        <time>2017-11-14T16:49:11Z</time>
      </trkpt>
      <trkpt lat="49.40875" lon="1.15283">
        <ele>159</ele>
        <time>2017-11-14T16:49:11Z</time>
      </trkpt>
      <trkpt lat="49.40877" lon="1.15281">
        <ele>154</ele>
        <time>2017-11-14T16:49:11Z</time>
      </trkpt>
    </trkseg>
  </trk>
</gpx>